<?xml version="1.0" encoding="UTF-8" standalone="no" ?>
<gpx xmlns="http://www.topografix.com/GPX/1/1" xmlns:xsi="http://www.w3.org/2001/XMLSchema-instance" xsi:schemaLocation="http://www.topografix.com/GPX/1/1 http://www.topografix.com/GPX/1/1/gpx.xsd" version="1.1" creator="VisuGPX - https://www.visugpx.com">
  <metadata>
    <name>04 SEPT 2022 Pic de Coubayran</name>
    <desc><![CDATA[Ne prenez surtout pas cette trace comme modèle! La descente est galère dans le bartas avec descente de ravin, fougères merdiques, tiques, vaches agressives et j'en passe.
Sinon la montée est plutôt cool et le sommet est magnifique. Ne pas oublier d'aller se perdre un peu sur le GR10 après la cabane du col des Cassaings.
]]></desc>
  </metadata>
  <trk>
    <name><![CDATA[Tracé actuel: 04 SEPT 2022 08:28]]></name>
    <extensions>
      <line xmlns="http://www.topografix.com/GPX/gpx_style/0/2">
        <color>0000FF</color>
        <width>4</width>
      </line>
    </extensions>
    <trkseg>
      <trkpt lat="42.84586" lon="0.94083">
        <ele>932.62</ele>
        <time>2022-09-04T07:28:27Z</time>
      </trkpt>
      <trkpt lat="42.84583" lon="0.94083">
        <ele>901.37</ele>
        <time>2022-09-04T07:29:03Z</time>
      </trkpt>
      <trkpt lat="42.84581" lon="0.94084">
        <ele>901.37</ele>
        <time>2022-09-04T07:29:29Z</time>
      </trkpt>
      <trkpt lat="42.84583" lon="0.94086">
        <ele>901.37</ele>
        <time>2022-09-04T07:29:33Z</time>
      </trkpt>
      <trkpt lat="42.84579" lon="0.94084">
        <ele>901.37</ele>
        <time>2022-09-04T07:29:49Z</time>
      </trkpt>
      <trkpt lat="42.84575" lon="0.94072">
        <ele>902.33</ele>
        <time>2022-09-04T07:30:04Z</time>
      </trkpt>
      <trkpt lat="42.84569" lon="0.9405">
        <ele>904.74</ele>
        <time>2022-09-04T07:30:23Z</time>
      </trkpt>
      <trkpt lat="42.84566" lon="0.94036">
        <ele>905.22</ele>
        <time>2022-09-04T07:30:39Z</time>
      </trkpt>
      <trkpt lat="42.84564" lon="0.94037">
        <ele>904.26</ele>
        <time>2022-09-04T07:30:53Z</time>
      </trkpt>
      <trkpt lat="42.84554" lon="0.94015">
        <ele>906.66</ele>
        <time>2022-09-04T07:31:10Z</time>
      </trkpt>
      <trkpt lat="42.84536" lon="0.94001">
        <ele>908.1</ele>
        <time>2022-09-04T07:31:28Z</time>
      </trkpt>
      <trkpt lat="42.84523" lon="0.93987">
        <ele>909.54</ele>
        <time>2022-09-04T07:31:46Z</time>
      </trkpt>
      <trkpt lat="42.84505" lon="0.93973">
        <ele>910.99</ele>
        <time>2022-09-04T07:32:06Z</time>
      </trkpt>
      <trkpt lat="42.84493" lon="0.9397">
        <ele>911.95</ele>
        <time>2022-09-04T07:32:20Z</time>
      </trkpt>
      <trkpt lat="42.84499" lon="0.93982">
        <ele>913.87</ele>
        <time>2022-09-04T07:32:36Z</time>
      </trkpt>
      <trkpt lat="42.84503" lon="0.93983">
        <ele>914.35</ele>
        <time>2022-09-04T07:32:41Z</time>
      </trkpt>
      <trkpt lat="42.84518" lon="0.93996">
        <ele>915.79</ele>
        <time>2022-09-04T07:32:59Z</time>
      </trkpt>
      <trkpt lat="42.84531" lon="0.94017">
        <ele>916.75</ele>
        <time>2022-09-04T07:33:18Z</time>
      </trkpt>
      <trkpt lat="42.84541" lon="0.94039">
        <ele>918.68</ele>
        <time>2022-09-04T07:33:38Z</time>
      </trkpt>
      <trkpt lat="42.84548" lon="0.9406">
        <ele>919.64</ele>
        <time>2022-09-04T07:33:53Z</time>
      </trkpt>
      <trkpt lat="42.84551" lon="0.94084">
        <ele>920.6</ele>
        <time>2022-09-04T07:34:08Z</time>
      </trkpt>
      <trkpt lat="42.84553" lon="0.94094">
        <ele>920.6</ele>
        <time>2022-09-04T07:34:16Z</time>
      </trkpt>
      <trkpt lat="42.84552" lon="0.94118">
        <ele>922.04</ele>
        <time>2022-09-04T07:34:30Z</time>
      </trkpt>
      <trkpt lat="42.84552" lon="0.94123">
        <ele>922.04</ele>
        <time>2022-09-04T07:34:34Z</time>
      </trkpt>
      <trkpt lat="42.84553" lon="0.94134">
        <ele>922.52</ele>
        <time>2022-09-04T07:34:42Z</time>
      </trkpt>
      <trkpt lat="42.84553" lon="0.9414">
        <ele>923.96</ele>
        <time>2022-09-04T07:34:46Z</time>
      </trkpt>
      <trkpt lat="42.84556" lon="0.94161">
        <ele>923.96</ele>
        <time>2022-09-04T07:35:00Z</time>
      </trkpt>
      <trkpt lat="42.84558" lon="0.94182">
        <ele>924.93</ele>
        <time>2022-09-04T07:35:14Z</time>
      </trkpt>
      <trkpt lat="42.8456" lon="0.94196">
        <ele>925.89</ele>
        <time>2022-09-04T07:35:25Z</time>
      </trkpt>
      <trkpt lat="42.84564" lon="0.9421">
        <ele>926.37</ele>
        <time>2022-09-04T07:35:35Z</time>
      </trkpt>
      <trkpt lat="42.84572" lon="0.94236">
        <ele>927.81</ele>
        <time>2022-09-04T07:35:55Z</time>
      </trkpt>
      <trkpt lat="42.84577" lon="0.94259">
        <ele>929.25</ele>
        <time>2022-09-04T07:36:12Z</time>
      </trkpt>
      <trkpt lat="42.84579" lon="0.94285">
        <ele>930.21</ele>
        <time>2022-09-04T07:36:30Z</time>
      </trkpt>
      <trkpt lat="42.84575" lon="0.94305">
        <ele>931.17</ele>
        <time>2022-09-04T07:36:45Z</time>
      </trkpt>
      <trkpt lat="42.84573" lon="0.94307">
        <ele>931.65</ele>
        <time>2022-09-04T07:36:47Z</time>
      </trkpt>
      <trkpt lat="42.84566" lon="0.94326">
        <ele>932.62</ele>
        <time>2022-09-04T07:37:00Z</time>
      </trkpt>
      <trkpt lat="42.84562" lon="0.94338">
        <ele>932.62</ele>
        <time>2022-09-04T07:37:11Z</time>
      </trkpt>
      <trkpt lat="42.8456" lon="0.94355">
        <ele>931.65</ele>
        <time>2022-09-04T07:37:21Z</time>
      </trkpt>
      <trkpt lat="42.84564" lon="0.94358">
        <ele>932.14</ele>
        <time>2022-09-04T07:37:33Z</time>
      </trkpt>
      <trkpt lat="42.84563" lon="0.9436">
        <ele>932.14</ele>
        <time>2022-09-04T07:37:51Z</time>
      </trkpt>
      <trkpt lat="42.84564" lon="0.9436">
        <ele>932.14</ele>
        <time>2022-09-04T07:38:09Z</time>
      </trkpt>
      <trkpt lat="42.84569" lon="0.94362">
        <ele>932.14</ele>
        <time>2022-09-04T07:38:18Z</time>
      </trkpt>
      <trkpt lat="42.84573" lon="0.94362">
        <ele>932.14</ele>
        <time>2022-09-04T07:38:32Z</time>
      </trkpt>
      <trkpt lat="42.84575" lon="0.94362">
        <ele>932.14</ele>
        <time>2022-09-04T07:38:34Z</time>
      </trkpt>
      <trkpt lat="42.84591" lon="0.9435">
        <ele>931.65</ele>
        <time>2022-09-04T07:38:53Z</time>
      </trkpt>
      <trkpt lat="42.84607" lon="0.94336">
        <ele>930.21</ele>
        <time>2022-09-04T07:39:13Z</time>
      </trkpt>
      <trkpt lat="42.84608" lon="0.94336">
        <ele>930.21</ele>
        <time>2022-09-04T07:39:14Z</time>
      </trkpt>
      <trkpt lat="42.84619" lon="0.94343">
        <ele>930.21</ele>
        <time>2022-09-04T07:39:28Z</time>
      </trkpt>
      <trkpt lat="42.8462" lon="0.94346">
        <ele>931.65</ele>
        <time>2022-09-04T07:39:30Z</time>
      </trkpt>
      <trkpt lat="42.84623" lon="0.94354">
        <ele>934.54</ele>
        <time>2022-09-04T07:39:40Z</time>
      </trkpt>
      <trkpt lat="42.84623" lon="0.94355">
        <ele>934.54</ele>
        <time>2022-09-04T07:39:46Z</time>
      </trkpt>
      <trkpt lat="42.84618" lon="0.94363">
        <ele>937.42</ele>
        <time>2022-09-04T07:40:01Z</time>
      </trkpt>
      <trkpt lat="42.84616" lon="0.94373">
        <ele>939.83</ele>
        <time>2022-09-04T07:40:16Z</time>
      </trkpt>
      <trkpt lat="42.84622" lon="0.94385">
        <ele>942.71</ele>
        <time>2022-09-04T07:40:32Z</time>
      </trkpt>
      <trkpt lat="42.84625" lon="0.94386">
        <ele>943.19</ele>
        <time>2022-09-04T07:40:43Z</time>
      </trkpt>
      <trkpt lat="42.84625" lon="0.94387">
        <ele>943.19</ele>
        <time>2022-09-04T07:40:47Z</time>
      </trkpt>
      <trkpt lat="42.84626" lon="0.94391">
        <ele>941.75</ele>
        <time>2022-09-04T07:40:50Z</time>
      </trkpt>
      <trkpt lat="42.84623" lon="0.94395">
        <ele>941.75</ele>
        <time>2022-09-04T07:41:03Z</time>
      </trkpt>
      <trkpt lat="42.84619" lon="0.94401">
        <ele>943.67</ele>
        <time>2022-09-04T07:41:17Z</time>
      </trkpt>
      <trkpt lat="42.84613" lon="0.94412">
        <ele>946.56</ele>
        <time>2022-09-04T07:41:35Z</time>
      </trkpt>
      <trkpt lat="42.84612" lon="0.94414">
        <ele>947.04</ele>
        <time>2022-09-04T07:41:46Z</time>
      </trkpt>
      <trkpt lat="42.84609" lon="0.94421">
        <ele>949.44</ele>
        <time>2022-09-04T07:41:59Z</time>
      </trkpt>
      <trkpt lat="42.84607" lon="0.94425">
        <ele>950.4</ele>
        <time>2022-09-04T07:42:13Z</time>
      </trkpt>
      <trkpt lat="42.84605" lon="0.94431">
        <ele>952.8</ele>
        <time>2022-09-04T07:42:33Z</time>
      </trkpt>
      <trkpt lat="42.84604" lon="0.94432">
        <ele>952.8</ele>
        <time>2022-09-04T07:42:40Z</time>
      </trkpt>
      <trkpt lat="42.84599" lon="0.94439">
        <ele>953.77</ele>
        <time>2022-09-04T07:43:02Z</time>
      </trkpt>
      <trkpt lat="42.84596" lon="0.94445">
        <ele>955.21</ele>
        <time>2022-09-04T07:43:21Z</time>
      </trkpt>
      <trkpt lat="42.84593" lon="0.94451">
        <ele>956.65</ele>
        <time>2022-09-04T07:43:42Z</time>
      </trkpt>
      <trkpt lat="42.84592" lon="0.94465">
        <ele>959.53</ele>
        <time>2022-09-04T07:44:00Z</time>
      </trkpt>
      <trkpt lat="42.84588" lon="0.94469">
        <ele>962.42</ele>
        <time>2022-09-04T07:44:14Z</time>
      </trkpt>
      <trkpt lat="42.84587" lon="0.94473">
        <ele>962.42</ele>
        <time>2022-09-04T07:44:32Z</time>
      </trkpt>
      <trkpt lat="42.84586" lon="0.94475">
        <ele>965.3</ele>
        <time>2022-09-04T07:44:45Z</time>
      </trkpt>
      <trkpt lat="42.84577" lon="0.94479">
        <ele>967.7</ele>
        <time>2022-09-04T07:45:02Z</time>
      </trkpt>
      <trkpt lat="42.84576" lon="0.94487">
        <ele>968.67</ele>
        <time>2022-09-04T07:45:23Z</time>
      </trkpt>
      <trkpt lat="42.84574" lon="0.94498">
        <ele>971.07</ele>
        <time>2022-09-04T07:45:37Z</time>
      </trkpt>
      <trkpt lat="42.84576" lon="0.94508">
        <ele>973.95</ele>
        <time>2022-09-04T07:45:52Z</time>
      </trkpt>
      <trkpt lat="42.84571" lon="0.94508">
        <ele>975.39</ele>
        <time>2022-09-04T07:46:10Z</time>
      </trkpt>
      <trkpt lat="42.84573" lon="0.94509">
        <ele>976.36</ele>
        <time>2022-09-04T07:46:23Z</time>
      </trkpt>
      <trkpt lat="42.84576" lon="0.94515">
        <ele>977.8</ele>
        <time>2022-09-04T07:46:38Z</time>
      </trkpt>
      <trkpt lat="42.84573" lon="0.94518">
        <ele>978.76</ele>
        <time>2022-09-04T07:46:50Z</time>
      </trkpt>
      <trkpt lat="42.84571" lon="0.94529">
        <ele>982.12</ele>
        <time>2022-09-04T07:47:08Z</time>
      </trkpt>
      <trkpt lat="42.84571" lon="0.94546">
        <ele>984.53</ele>
        <time>2022-09-04T07:47:31Z</time>
      </trkpt>
      <trkpt lat="42.84561" lon="0.94552">
        <ele>988.85</ele>
        <time>2022-09-04T07:47:46Z</time>
      </trkpt>
      <trkpt lat="42.84559" lon="0.94565">
        <ele>989.33</ele>
        <time>2022-09-04T07:48:02Z</time>
      </trkpt>
      <trkpt lat="42.84559" lon="0.94576">
        <ele>991.26</ele>
        <time>2022-09-04T07:48:16Z</time>
      </trkpt>
      <trkpt lat="42.84559" lon="0.94584">
        <ele>992.7</ele>
        <time>2022-09-04T07:48:32Z</time>
      </trkpt>
      <trkpt lat="42.84557" lon="0.94593">
        <ele>995.58</ele>
        <time>2022-09-04T07:48:46Z</time>
      </trkpt>
      <trkpt lat="42.84557" lon="0.946">
        <ele>997.02</ele>
        <time>2022-09-04T07:48:58Z</time>
      </trkpt>
      <trkpt lat="42.84556" lon="0.94598">
        <ele>996.54</ele>
        <time>2022-09-04T07:49:11Z</time>
      </trkpt>
      <trkpt lat="42.84553" lon="0.946">
        <ele>997.99</ele>
        <time>2022-09-04T07:49:23Z</time>
      </trkpt>
      <trkpt lat="42.8455" lon="0.946">
        <ele>1000.39</ele>
        <time>2022-09-04T07:49:29Z</time>
      </trkpt>
      <trkpt lat="42.84549" lon="0.94603">
        <ele>998.47</ele>
        <time>2022-09-04T07:49:31Z</time>
      </trkpt>
      <trkpt lat="42.84548" lon="0.9461">
        <ele>999.91</ele>
        <time>2022-09-04T07:49:37Z</time>
      </trkpt>
      <trkpt lat="42.84543" lon="0.94621">
        <ele>1002.79</ele>
        <time>2022-09-04T07:49:51Z</time>
      </trkpt>
      <trkpt lat="42.84541" lon="0.94628">
        <ele>1005.68</ele>
        <time>2022-09-04T07:50:06Z</time>
      </trkpt>
      <trkpt lat="42.84541" lon="0.94638">
        <ele>1007.6</ele>
        <time>2022-09-04T07:50:21Z</time>
      </trkpt>
      <trkpt lat="42.84539" lon="0.94643">
        <ele>1009.52</ele>
        <time>2022-09-04T07:50:34Z</time>
      </trkpt>
      <trkpt lat="42.84534" lon="0.94647">
        <ele>1011.44</ele>
        <time>2022-09-04T07:50:47Z</time>
      </trkpt>
      <trkpt lat="42.84534" lon="0.94659">
        <ele>1014.81</ele>
        <time>2022-09-04T07:51:03Z</time>
      </trkpt>
      <trkpt lat="42.84532" lon="0.94657">
        <ele>1015.77</ele>
        <time>2022-09-04T07:51:19Z</time>
      </trkpt>
      <trkpt lat="42.84534" lon="0.94657">
        <ele>1015.77</ele>
        <time>2022-09-04T07:51:42Z</time>
      </trkpt>
      <trkpt lat="42.84537" lon="0.94659">
        <ele>1015.77</ele>
        <time>2022-09-04T07:51:58Z</time>
      </trkpt>
      <trkpt lat="42.84534" lon="0.94664">
        <ele>1016.25</ele>
        <time>2022-09-04T07:52:16Z</time>
      </trkpt>
      <trkpt lat="42.84529" lon="0.94669">
        <ele>1016.25</ele>
        <time>2022-09-04T07:52:30Z</time>
      </trkpt>
      <trkpt lat="42.84531" lon="0.94668">
        <ele>1016.25</ele>
        <time>2022-09-04T07:52:50Z</time>
      </trkpt>
      <trkpt lat="42.84532" lon="0.94666">
        <ele>1015.29</ele>
        <time>2022-09-04T07:53:01Z</time>
      </trkpt>
      <trkpt lat="42.84534" lon="0.94661">
        <ele>1018.17</ele>
        <time>2022-09-04T07:53:19Z</time>
      </trkpt>
      <trkpt lat="42.84534" lon="0.94659">
        <ele>1020.58</ele>
        <time>2022-09-04T07:53:48Z</time>
      </trkpt>
      <trkpt lat="42.84527" lon="0.94656">
        <ele>1022.5</ele>
        <time>2022-09-04T07:54:03Z</time>
      </trkpt>
      <trkpt lat="42.84526" lon="0.94657">
        <ele>1023.46</ele>
        <time>2022-09-04T07:54:15Z</time>
      </trkpt>
      <trkpt lat="42.84524" lon="0.9466">
        <ele>1024.42</ele>
        <time>2022-09-04T07:54:30Z</time>
      </trkpt>
      <trkpt lat="42.84524" lon="0.94661">
        <ele>1024.9</ele>
        <time>2022-09-04T07:54:44Z</time>
      </trkpt>
      <trkpt lat="42.8452" lon="0.94664">
        <ele>1026.34</ele>
        <time>2022-09-04T07:54:50Z</time>
      </trkpt>
      <trkpt lat="42.84514" lon="0.94668">
        <ele>1029.23</ele>
        <time>2022-09-04T07:55:06Z</time>
      </trkpt>
      <trkpt lat="42.84507" lon="0.94677">
        <ele>1031.15</ele>
        <time>2022-09-04T07:55:22Z</time>
      </trkpt>
      <trkpt lat="42.84511" lon="0.94678">
        <ele>1031.15</ele>
        <time>2022-09-04T07:55:48Z</time>
      </trkpt>
      <trkpt lat="42.84505" lon="0.94686">
        <ele>1031.63</ele>
        <time>2022-09-04T07:56:06Z</time>
      </trkpt>
      <trkpt lat="42.84506" lon="0.94687">
        <ele>1033.55</ele>
        <time>2022-09-04T07:56:27Z</time>
      </trkpt>
      <trkpt lat="42.84503" lon="0.94693">
        <ele>1035</ele>
        <time>2022-09-04T07:56:45Z</time>
      </trkpt>
      <trkpt lat="42.84497" lon="0.94697">
        <ele>1037.4</ele>
        <time>2022-09-04T07:57:03Z</time>
      </trkpt>
      <trkpt lat="42.84496" lon="0.94701">
        <ele>1038.84</ele>
        <time>2022-09-04T07:57:13Z</time>
      </trkpt>
      <trkpt lat="42.8449" lon="0.94712">
        <ele>1040.28</ele>
        <time>2022-09-04T07:57:27Z</time>
      </trkpt>
      <trkpt lat="42.84488" lon="0.94717">
        <ele>1043.17</ele>
        <time>2022-09-04T07:57:43Z</time>
      </trkpt>
      <trkpt lat="42.84483" lon="0.94723">
        <ele>1045.57</ele>
        <time>2022-09-04T07:57:56Z</time>
      </trkpt>
      <trkpt lat="42.84484" lon="0.94723">
        <ele>1046.05</ele>
        <time>2022-09-04T07:58:22Z</time>
      </trkpt>
      <trkpt lat="42.84474" lon="0.94732">
        <ele>1048.94</ele>
        <time>2022-09-04T07:58:40Z</time>
      </trkpt>
      <trkpt lat="42.8447" lon="0.94729">
        <ele>1051.34</ele>
        <time>2022-09-04T07:58:59Z</time>
      </trkpt>
      <trkpt lat="42.84464" lon="0.94731">
        <ele>1054.22</ele>
        <time>2022-09-04T07:59:18Z</time>
      </trkpt>
      <trkpt lat="42.84462" lon="0.94735">
        <ele>1055.18</ele>
        <time>2022-09-04T07:59:36Z</time>
      </trkpt>
      <trkpt lat="42.8446" lon="0.94737">
        <ele>1056.15</ele>
        <time>2022-09-04T08:00:00Z</time>
      </trkpt>
      <trkpt lat="42.84462" lon="0.94734">
        <ele>1057.11</ele>
        <time>2022-09-04T08:00:22Z</time>
      </trkpt>
      <trkpt lat="42.84455" lon="0.94746">
        <ele>1059.99</ele>
        <time>2022-09-04T08:00:39Z</time>
      </trkpt>
      <trkpt lat="42.8445" lon="0.94751">
        <ele>1061.91</ele>
        <time>2022-09-04T08:00:56Z</time>
      </trkpt>
      <trkpt lat="42.84448" lon="0.9476">
        <ele>1064.32</ele>
        <time>2022-09-04T08:01:13Z</time>
      </trkpt>
      <trkpt lat="42.84448" lon="0.94765">
        <ele>1066.72</ele>
        <time>2022-09-04T08:01:32Z</time>
      </trkpt>
      <trkpt lat="42.84443" lon="0.94772">
        <ele>1068.16</ele>
        <time>2022-09-04T08:01:47Z</time>
      </trkpt>
      <trkpt lat="42.84442" lon="0.9478">
        <ele>1071.05</ele>
        <time>2022-09-04T08:02:05Z</time>
      </trkpt>
      <trkpt lat="42.84441" lon="0.94784">
        <ele>1072.97</ele>
        <time>2022-09-04T08:02:22Z</time>
      </trkpt>
      <trkpt lat="42.84437" lon="0.94792">
        <ele>1075.37</ele>
        <time>2022-09-04T08:02:41Z</time>
      </trkpt>
      <trkpt lat="42.84434" lon="0.94798">
        <ele>1077.78</ele>
        <time>2022-09-04T08:03:01Z</time>
      </trkpt>
      <trkpt lat="42.84433" lon="0.94803">
        <ele>1080.18</ele>
        <time>2022-09-04T08:03:18Z</time>
      </trkpt>
      <trkpt lat="42.84429" lon="0.94809">
        <ele>1082.58</ele>
        <time>2022-09-04T08:03:37Z</time>
      </trkpt>
      <trkpt lat="42.84426" lon="0.94813">
        <ele>1084.99</ele>
        <time>2022-09-04T08:03:55Z</time>
      </trkpt>
      <trkpt lat="42.84425" lon="0.94812">
        <ele>1086.43</ele>
        <time>2022-09-04T08:04:11Z</time>
      </trkpt>
      <trkpt lat="42.84423" lon="0.94814">
        <ele>1086.43</ele>
        <time>2022-09-04T08:04:29Z</time>
      </trkpt>
      <trkpt lat="42.84421" lon="0.94823">
        <ele>1089.79</ele>
        <time>2022-09-04T08:04:50Z</time>
      </trkpt>
      <trkpt lat="42.84419" lon="0.94826">
        <ele>1091.71</ele>
        <time>2022-09-04T08:05:08Z</time>
      </trkpt>
      <trkpt lat="42.84419" lon="0.94833">
        <ele>1094.6</ele>
        <time>2022-09-04T08:05:27Z</time>
      </trkpt>
      <trkpt lat="42.84415" lon="0.94832">
        <ele>1096.52</ele>
        <time>2022-09-04T08:05:47Z</time>
      </trkpt>
      <trkpt lat="42.84411" lon="0.94837">
        <ele>1097.96</ele>
        <time>2022-09-04T08:06:04Z</time>
      </trkpt>
      <trkpt lat="42.84408" lon="0.94842">
        <ele>1100.37</ele>
        <time>2022-09-04T08:06:18Z</time>
      </trkpt>
      <trkpt lat="42.84409" lon="0.94838">
        <ele>1102.77</ele>
        <time>2022-09-04T08:06:35Z</time>
      </trkpt>
      <trkpt lat="42.84409" lon="0.94835">
        <ele>1103.25</ele>
        <time>2022-09-04T08:06:55Z</time>
      </trkpt>
      <trkpt lat="42.84405" lon="0.94838">
        <ele>1102.29</ele>
        <time>2022-09-04T08:07:18Z</time>
      </trkpt>
      <trkpt lat="42.84409" lon="0.9484">
        <ele>1103.25</ele>
        <time>2022-09-04T08:07:33Z</time>
      </trkpt>
      <trkpt lat="42.8441" lon="0.94848">
        <ele>1103.73</ele>
        <time>2022-09-04T08:08:02Z</time>
      </trkpt>
      <trkpt lat="42.84407" lon="0.94849">
        <ele>1103.73</ele>
        <time>2022-09-04T08:08:12Z</time>
      </trkpt>
      <trkpt lat="42.84401" lon="0.9485">
        <ele>1106.13</ele>
        <time>2022-09-04T08:08:28Z</time>
      </trkpt>
      <trkpt lat="42.84397" lon="0.94849">
        <ele>1108.54</ele>
        <time>2022-09-04T08:08:45Z</time>
      </trkpt>
      <trkpt lat="42.84394" lon="0.94849">
        <ele>1109.98</ele>
        <time>2022-09-04T08:08:58Z</time>
      </trkpt>
      <trkpt lat="42.84387" lon="0.94849">
        <ele>1112.38</ele>
        <time>2022-09-04T08:09:14Z</time>
      </trkpt>
      <trkpt lat="42.84383" lon="0.94849">
        <ele>1114.79</ele>
        <time>2022-09-04T08:09:29Z</time>
      </trkpt>
      <trkpt lat="42.84378" lon="0.94848">
        <ele>1116.23</ele>
        <time>2022-09-04T08:09:46Z</time>
      </trkpt>
      <trkpt lat="42.84372" lon="0.94853">
        <ele>1118.15</ele>
        <time>2022-09-04T08:10:06Z</time>
      </trkpt>
      <trkpt lat="42.84377" lon="0.94855">
        <ele>1119.11</ele>
        <time>2022-09-04T08:10:24Z</time>
      </trkpt>
      <trkpt lat="42.84374" lon="0.94854">
        <ele>1120.07</ele>
        <time>2022-09-04T08:10:41Z</time>
      </trkpt>
      <trkpt lat="42.84368" lon="0.9485">
        <ele>1121.52</ele>
        <time>2022-09-04T08:10:59Z</time>
      </trkpt>
      <trkpt lat="42.84364" lon="0.94846">
        <ele>1124.4</ele>
        <time>2022-09-04T08:11:12Z</time>
      </trkpt>
      <trkpt lat="42.84362" lon="0.94847">
        <ele>1125.36</ele>
        <time>2022-09-04T08:11:28Z</time>
      </trkpt>
      <trkpt lat="42.84358" lon="0.94841">
        <ele>1126.8</ele>
        <time>2022-09-04T08:11:44Z</time>
      </trkpt>
      <trkpt lat="42.84354" lon="0.94841">
        <ele>1128.73</ele>
        <time>2022-09-04T08:12:00Z</time>
      </trkpt>
      <trkpt lat="42.84354" lon="0.94842">
        <ele>1127.28</ele>
        <time>2022-09-04T08:12:21Z</time>
      </trkpt>
      <trkpt lat="42.84356" lon="0.94844">
        <ele>1129.21</ele>
        <time>2022-09-04T08:12:28Z</time>
      </trkpt>
      <trkpt lat="42.84356" lon="0.94845">
        <ele>1127.76</ele>
        <time>2022-09-04T08:12:30Z</time>
      </trkpt>
      <trkpt lat="42.84351" lon="0.94842">
        <ele>1128.24</ele>
        <time>2022-09-04T08:12:57Z</time>
      </trkpt>
      <trkpt lat="42.84348" lon="0.9484">
        <ele>1129.69</ele>
        <time>2022-09-04T08:13:03Z</time>
      </trkpt>
      <trkpt lat="42.84338" lon="0.94837">
        <ele>1132.09</ele>
        <time>2022-09-04T08:13:20Z</time>
      </trkpt>
      <trkpt lat="42.8433" lon="0.94834">
        <ele>1134.49</ele>
        <time>2022-09-04T08:13:36Z</time>
      </trkpt>
      <trkpt lat="42.84324" lon="0.94831">
        <ele>1136.42</ele>
        <time>2022-09-04T08:13:51Z</time>
      </trkpt>
      <trkpt lat="42.84319" lon="0.94829">
        <ele>1137.86</ele>
        <time>2022-09-04T08:14:03Z</time>
      </trkpt>
      <trkpt lat="42.84315" lon="0.94829">
        <ele>1138.82</ele>
        <time>2022-09-04T08:14:16Z</time>
      </trkpt>
      <trkpt lat="42.84308" lon="0.94825">
        <ele>1140.26</ele>
        <time>2022-09-04T08:14:34Z</time>
      </trkpt>
      <trkpt lat="42.84302" lon="0.94822">
        <ele>1142.66</ele>
        <time>2022-09-04T08:14:48Z</time>
      </trkpt>
      <trkpt lat="42.84295" lon="0.94815">
        <ele>1144.59</ele>
        <time>2022-09-04T08:15:03Z</time>
      </trkpt>
      <trkpt lat="42.8429" lon="0.94809">
        <ele>1146.03</ele>
        <time>2022-09-04T08:15:18Z</time>
      </trkpt>
      <trkpt lat="42.84288" lon="0.94804">
        <ele>1146.51</ele>
        <time>2022-09-04T08:15:30Z</time>
      </trkpt>
      <trkpt lat="42.8429" lon="0.94808">
        <ele>1146.51</ele>
        <time>2022-09-04T08:15:50Z</time>
      </trkpt>
      <trkpt lat="42.84291" lon="0.94808">
        <ele>1146.99</ele>
        <time>2022-09-04T08:15:54Z</time>
      </trkpt>
      <trkpt lat="42.84289" lon="0.94806">
        <ele>1146.99</ele>
        <time>2022-09-04T08:16:11Z</time>
      </trkpt>
      <trkpt lat="42.84287" lon="0.94808">
        <ele>1148.43</ele>
        <time>2022-09-04T08:16:17Z</time>
      </trkpt>
      <trkpt lat="42.84289" lon="0.94807">
        <ele>1146.99</ele>
        <time>2022-09-04T08:16:32Z</time>
      </trkpt>
      <trkpt lat="42.84287" lon="0.94807">
        <ele>1146.99</ele>
        <time>2022-09-04T08:17:03Z</time>
      </trkpt>
      <trkpt lat="42.8429" lon="0.94807">
        <ele>1147.47</ele>
        <time>2022-09-04T08:17:28Z</time>
      </trkpt>
      <trkpt lat="42.84285" lon="0.94809">
        <ele>1147.47</ele>
        <time>2022-09-04T08:17:55Z</time>
      </trkpt>
      <trkpt lat="42.84284" lon="0.94807">
        <ele>1148.43</ele>
        <time>2022-09-04T08:18:14Z</time>
      </trkpt>
      <trkpt lat="42.84287" lon="0.94808">
        <ele>1148.91</ele>
        <time>2022-09-04T08:18:30Z</time>
      </trkpt>
      <trkpt lat="42.84287" lon="0.94807">
        <ele>1148.91</ele>
        <time>2022-09-04T08:18:46Z</time>
      </trkpt>
      <trkpt lat="42.84287" lon="0.94804">
        <ele>1148.91</ele>
        <time>2022-09-04T08:19:14Z</time>
      </trkpt>
      <trkpt lat="42.84287" lon="0.94803">
        <ele>1148.91</ele>
        <time>2022-09-04T08:19:45Z</time>
      </trkpt>
      <trkpt lat="42.84282" lon="0.94798">
        <ele>1150.35</ele>
        <time>2022-09-04T08:20:01Z</time>
      </trkpt>
      <trkpt lat="42.84274" lon="0.94797">
        <ele>1152.28</ele>
        <time>2022-09-04T08:20:18Z</time>
      </trkpt>
      <trkpt lat="42.84269" lon="0.94793">
        <ele>1153.24</ele>
        <time>2022-09-04T08:20:31Z</time>
      </trkpt>
      <trkpt lat="42.84261" lon="0.9479">
        <ele>1155.16</ele>
        <time>2022-09-04T08:20:49Z</time>
      </trkpt>
      <trkpt lat="42.84256" lon="0.94787">
        <ele>1157.08</ele>
        <time>2022-09-04T08:21:05Z</time>
      </trkpt>
      <trkpt lat="42.84249" lon="0.94783">
        <ele>1158.05</ele>
        <time>2022-09-04T08:21:23Z</time>
      </trkpt>
      <trkpt lat="42.84244" lon="0.9478">
        <ele>1159.01</ele>
        <time>2022-09-04T08:21:38Z</time>
      </trkpt>
      <trkpt lat="42.84236" lon="0.94775">
        <ele>1160.45</ele>
        <time>2022-09-04T08:21:54Z</time>
      </trkpt>
      <trkpt lat="42.84232" lon="0.94772">
        <ele>1161.41</ele>
        <time>2022-09-04T08:22:07Z</time>
      </trkpt>
      <trkpt lat="42.84233" lon="0.94769">
        <ele>1161.41</ele>
        <time>2022-09-04T08:22:29Z</time>
      </trkpt>
      <trkpt lat="42.84234" lon="0.9477">
        <ele>1161.89</ele>
        <time>2022-09-04T08:22:53Z</time>
      </trkpt>
      <trkpt lat="42.84233" lon="0.94768">
        <ele>1161.89</ele>
        <time>2022-09-04T08:23:18Z</time>
      </trkpt>
      <trkpt lat="42.84228" lon="0.94766">
        <ele>1163.33</ele>
        <time>2022-09-04T08:23:31Z</time>
      </trkpt>
      <trkpt lat="42.84221" lon="0.94762">
        <ele>1163.81</ele>
        <time>2022-09-04T08:23:47Z</time>
      </trkpt>
      <trkpt lat="42.84218" lon="0.94761">
        <ele>1164.77</ele>
        <time>2022-09-04T08:23:52Z</time>
      </trkpt>
      <trkpt lat="42.84218" lon="0.94758">
        <ele>1164.77</ele>
        <time>2022-09-04T08:24:02Z</time>
      </trkpt>
      <trkpt lat="42.84209" lon="0.94755">
        <ele>1166.7</ele>
        <time>2022-09-04T08:24:21Z</time>
      </trkpt>
      <trkpt lat="42.84202" lon="0.94748">
        <ele>1167.18</ele>
        <time>2022-09-04T08:24:37Z</time>
      </trkpt>
      <trkpt lat="42.84202" lon="0.94742">
        <ele>1170.54</ele>
        <time>2022-09-04T08:24:46Z</time>
      </trkpt>
      <trkpt lat="42.84201" lon="0.94743">
        <ele>1167.66</ele>
        <time>2022-09-04T08:24:49Z</time>
      </trkpt>
      <trkpt lat="42.84199" lon="0.94742">
        <ele>1170.06</ele>
        <time>2022-09-04T08:24:51Z</time>
      </trkpt>
      <trkpt lat="42.84192" lon="0.94736">
        <ele>1170.06</ele>
        <time>2022-09-04T08:25:06Z</time>
      </trkpt>
      <trkpt lat="42.84188" lon="0.94744">
        <ele>1172.47</ele>
        <time>2022-09-04T08:25:24Z</time>
      </trkpt>
      <trkpt lat="42.8419" lon="0.94759">
        <ele>1173.91</ele>
        <time>2022-09-04T08:25:40Z</time>
      </trkpt>
      <trkpt lat="42.84189" lon="0.94774">
        <ele>1175.83</ele>
        <time>2022-09-04T08:25:58Z</time>
      </trkpt>
      <trkpt lat="42.84195" lon="0.94791">
        <ele>1178.71</ele>
        <time>2022-09-04T08:26:17Z</time>
      </trkpt>
      <trkpt lat="42.84197" lon="0.94802">
        <ele>1181.6</ele>
        <time>2022-09-04T08:26:37Z</time>
      </trkpt>
      <trkpt lat="42.84203" lon="0.94812">
        <ele>1183.52</ele>
        <time>2022-09-04T08:26:53Z</time>
      </trkpt>
      <trkpt lat="42.84206" lon="0.9482">
        <ele>1186.4</ele>
        <time>2022-09-04T08:27:10Z</time>
      </trkpt>
      <trkpt lat="42.84205" lon="0.94821">
        <ele>1186.88</ele>
        <time>2022-09-04T08:27:34Z</time>
      </trkpt>
      <trkpt lat="42.84208" lon="0.94822">
        <ele>1188.33</ele>
        <time>2022-09-04T08:27:55Z</time>
      </trkpt>
      <trkpt lat="42.84209" lon="0.94823">
        <ele>1189.77</ele>
        <time>2022-09-04T08:27:58Z</time>
      </trkpt>
      <trkpt lat="42.8421" lon="0.94826">
        <ele>1187.37</ele>
        <time>2022-09-04T08:28:01Z</time>
      </trkpt>
      <trkpt lat="42.84211" lon="0.94826">
        <ele>1192.17</ele>
        <time>2022-09-04T08:28:02Z</time>
      </trkpt>
      <trkpt lat="42.8421" lon="0.94827">
        <ele>1189.29</ele>
        <time>2022-09-04T08:28:03Z</time>
      </trkpt>
      <trkpt lat="42.84213" lon="0.9484">
        <ele>1191.21</ele>
        <time>2022-09-04T08:28:13Z</time>
      </trkpt>
      <trkpt lat="42.84218" lon="0.94854">
        <ele>1193.13</ele>
        <time>2022-09-04T08:28:29Z</time>
      </trkpt>
      <trkpt lat="42.84219" lon="0.9486">
        <ele>1195.06</ele>
        <time>2022-09-04T08:28:42Z</time>
      </trkpt>
      <trkpt lat="42.8422" lon="0.94871">
        <ele>1196.98</ele>
        <time>2022-09-04T08:28:56Z</time>
      </trkpt>
      <trkpt lat="42.84224" lon="0.94874">
        <ele>1198.42</ele>
        <time>2022-09-04T08:29:12Z</time>
      </trkpt>
      <trkpt lat="42.84223" lon="0.94885">
        <ele>1201.3</ele>
        <time>2022-09-04T08:29:27Z</time>
      </trkpt>
      <trkpt lat="42.84223" lon="0.94898">
        <ele>1203.23</ele>
        <time>2022-09-04T08:29:44Z</time>
      </trkpt>
      <trkpt lat="42.84222" lon="0.9491">
        <ele>1205.15</ele>
        <time>2022-09-04T08:30:00Z</time>
      </trkpt>
      <trkpt lat="42.84224" lon="0.9492">
        <ele>1206.59</ele>
        <time>2022-09-04T08:30:13Z</time>
      </trkpt>
      <trkpt lat="42.84229" lon="0.94921">
        <ele>1209</ele>
        <time>2022-09-04T08:30:27Z</time>
      </trkpt>
      <trkpt lat="42.84232" lon="0.94924">
        <ele>1209.96</ele>
        <time>2022-09-04T08:30:44Z</time>
      </trkpt>
      <trkpt lat="42.84233" lon="0.94934">
        <ele>1211.4</ele>
        <time>2022-09-04T08:31:00Z</time>
      </trkpt>
      <trkpt lat="42.84237" lon="0.94947">
        <ele>1214.28</ele>
        <time>2022-09-04T08:31:17Z</time>
      </trkpt>
      <trkpt lat="42.84238" lon="0.94959">
        <ele>1216.69</ele>
        <time>2022-09-04T08:31:30Z</time>
      </trkpt>
      <trkpt lat="42.84241" lon="0.94967">
        <ele>1219.09</ele>
        <time>2022-09-04T08:31:44Z</time>
      </trkpt>
      <trkpt lat="42.84242" lon="0.94969">
        <ele>1219.09</ele>
        <time>2022-09-04T08:31:59Z</time>
      </trkpt>
      <trkpt lat="42.84244" lon="0.94982">
        <ele>1220.53</ele>
        <time>2022-09-04T08:32:15Z</time>
      </trkpt>
      <trkpt lat="42.84246" lon="0.94991">
        <ele>1222.45</ele>
        <time>2022-09-04T08:32:29Z</time>
      </trkpt>
      <trkpt lat="42.84246" lon="0.94998">
        <ele>1224.86</ele>
        <time>2022-09-04T08:32:43Z</time>
      </trkpt>
      <trkpt lat="42.84246" lon="0.95015">
        <ele>1228.22</ele>
        <time>2022-09-04T08:33:01Z</time>
      </trkpt>
      <trkpt lat="42.84246" lon="0.95026">
        <ele>1229.66</ele>
        <time>2022-09-04T08:33:16Z</time>
      </trkpt>
      <trkpt lat="42.84246" lon="0.95032">
        <ele>1231.11</ele>
        <time>2022-09-04T08:33:31Z</time>
      </trkpt>
      <trkpt lat="42.84247" lon="0.95036">
        <ele>1232.55</ele>
        <time>2022-09-04T08:33:54Z</time>
      </trkpt>
      <trkpt lat="42.84244" lon="0.95039">
        <ele>1233.03</ele>
        <time>2022-09-04T08:34:12Z</time>
      </trkpt>
      <trkpt lat="42.84242" lon="0.9505">
        <ele>1235.91</ele>
        <time>2022-09-04T08:34:27Z</time>
      </trkpt>
      <trkpt lat="42.84241" lon="0.95059">
        <ele>1237.35</ele>
        <time>2022-09-04T08:34:39Z</time>
      </trkpt>
      <trkpt lat="42.84238" lon="0.95067">
        <ele>1238.8</ele>
        <time>2022-09-04T08:34:53Z</time>
      </trkpt>
      <trkpt lat="42.84239" lon="0.95077">
        <ele>1241.68</ele>
        <time>2022-09-04T08:35:11Z</time>
      </trkpt>
      <trkpt lat="42.84243" lon="0.95086">
        <ele>1243.12</ele>
        <time>2022-09-04T08:35:27Z</time>
      </trkpt>
      <trkpt lat="42.84242" lon="0.95095">
        <ele>1245.04</ele>
        <time>2022-09-04T08:35:44Z</time>
      </trkpt>
      <trkpt lat="42.84243" lon="0.95102">
        <ele>1246.97</ele>
        <time>2022-09-04T08:35:59Z</time>
      </trkpt>
      <trkpt lat="42.84244" lon="0.95106">
        <ele>1247.45</ele>
        <time>2022-09-04T08:36:33Z</time>
      </trkpt>
      <trkpt lat="42.84253" lon="0.95115">
        <ele>1250.33</ele>
        <time>2022-09-04T08:36:52Z</time>
      </trkpt>
      <trkpt lat="42.84256" lon="0.95123">
        <ele>1252.25</ele>
        <time>2022-09-04T08:37:10Z</time>
      </trkpt>
      <trkpt lat="42.84256" lon="0.9513">
        <ele>1253.7</ele>
        <time>2022-09-04T08:37:24Z</time>
      </trkpt>
      <trkpt lat="42.84258" lon="0.95137">
        <ele>1255.62</ele>
        <time>2022-09-04T08:37:37Z</time>
      </trkpt>
      <trkpt lat="42.8426" lon="0.95143">
        <ele>1256.58</ele>
        <time>2022-09-04T08:37:51Z</time>
      </trkpt>
      <trkpt lat="42.84262" lon="0.95152">
        <ele>1258.98</ele>
        <time>2022-09-04T08:38:06Z</time>
      </trkpt>
      <trkpt lat="42.84264" lon="0.95164">
        <ele>1261.39</ele>
        <time>2022-09-04T08:38:22Z</time>
      </trkpt>
      <trkpt lat="42.84267" lon="0.95174">
        <ele>1262.83</ele>
        <time>2022-09-04T08:38:36Z</time>
      </trkpt>
      <trkpt lat="42.84269" lon="0.95183">
        <ele>1264.75</ele>
        <time>2022-09-04T08:38:52Z</time>
      </trkpt>
      <trkpt lat="42.84271" lon="0.95192">
        <ele>1267.16</ele>
        <time>2022-09-04T08:39:06Z</time>
      </trkpt>
      <trkpt lat="42.84272" lon="0.95199">
        <ele>1268.6</ele>
        <time>2022-09-04T08:39:20Z</time>
      </trkpt>
      <trkpt lat="42.84271" lon="0.95209">
        <ele>1270.52</ele>
        <time>2022-09-04T08:39:34Z</time>
      </trkpt>
      <trkpt lat="42.84272" lon="0.95219">
        <ele>1272.92</ele>
        <time>2022-09-04T08:39:50Z</time>
      </trkpt>
      <trkpt lat="42.84273" lon="0.95228">
        <ele>1274.85</ele>
        <time>2022-09-04T08:40:05Z</time>
      </trkpt>
      <trkpt lat="42.84274" lon="0.95237">
        <ele>1277.25</ele>
        <time>2022-09-04T08:40:20Z</time>
      </trkpt>
      <trkpt lat="42.84275" lon="0.95246">
        <ele>1279.17</ele>
        <time>2022-09-04T08:40:36Z</time>
      </trkpt>
      <trkpt lat="42.84276" lon="0.95253">
        <ele>1281.09</ele>
        <time>2022-09-04T08:40:50Z</time>
      </trkpt>
      <trkpt lat="42.84277" lon="0.95259">
        <ele>1283.02</ele>
        <time>2022-09-04T08:41:03Z</time>
      </trkpt>
      <trkpt lat="42.84276" lon="0.95266">
        <ele>1284.94</ele>
        <time>2022-09-04T08:41:17Z</time>
      </trkpt>
      <trkpt lat="42.84273" lon="0.95265">
        <ele>1285.9</ele>
        <time>2022-09-04T08:41:34Z</time>
      </trkpt>
      <trkpt lat="42.84273" lon="0.95266">
        <ele>1285.9</ele>
        <time>2022-09-04T08:42:01Z</time>
      </trkpt>
      <trkpt lat="42.84276" lon="0.95265">
        <ele>1286.38</ele>
        <time>2022-09-04T08:42:28Z</time>
      </trkpt>
      <trkpt lat="42.84279" lon="0.95264">
        <ele>1286.38</ele>
        <time>2022-09-04T08:42:43Z</time>
      </trkpt>
      <trkpt lat="42.84279" lon="0.95261">
        <ele>1284.94</ele>
        <time>2022-09-04T08:42:45Z</time>
      </trkpt>
      <trkpt lat="42.84279" lon="0.95262">
        <ele>1287.82</ele>
        <time>2022-09-04T08:42:46Z</time>
      </trkpt>
      <trkpt lat="42.84279" lon="0.95263">
        <ele>1286.38</ele>
        <time>2022-09-04T08:42:47Z</time>
      </trkpt>
      <trkpt lat="42.84272" lon="0.95269">
        <ele>1286.38</ele>
        <time>2022-09-04T08:43:05Z</time>
      </trkpt>
      <trkpt lat="42.84272" lon="0.95276">
        <ele>1288.3</ele>
        <time>2022-09-04T08:43:19Z</time>
      </trkpt>
      <trkpt lat="42.84271" lon="0.95273">
        <ele>1288.78</ele>
        <time>2022-09-04T08:43:37Z</time>
      </trkpt>
      <trkpt lat="42.8427" lon="0.95275">
        <ele>1289.75</ele>
        <time>2022-09-04T08:43:53Z</time>
      </trkpt>
      <trkpt lat="42.8427" lon="0.9528">
        <ele>1289.75</ele>
        <time>2022-09-04T08:44:15Z</time>
      </trkpt>
      <trkpt lat="42.84273" lon="0.95287">
        <ele>1291.19</ele>
        <time>2022-09-04T08:44:29Z</time>
      </trkpt>
      <trkpt lat="42.84272" lon="0.95293">
        <ele>1293.11</ele>
        <time>2022-09-04T08:44:46Z</time>
      </trkpt>
      <trkpt lat="42.8427" lon="0.953">
        <ele>1295.03</ele>
        <time>2022-09-04T08:45:03Z</time>
      </trkpt>
      <trkpt lat="42.8427" lon="0.9531">
        <ele>1297.44</ele>
        <time>2022-09-04T08:45:18Z</time>
      </trkpt>
      <trkpt lat="42.84271" lon="0.95319">
        <ele>1300.32</ele>
        <time>2022-09-04T08:45:37Z</time>
      </trkpt>
      <trkpt lat="42.84271" lon="0.95326">
        <ele>1302.72</ele>
        <time>2022-09-04T08:45:56Z</time>
      </trkpt>
      <trkpt lat="42.84266" lon="0.95336">
        <ele>1305.13</ele>
        <time>2022-09-04T08:46:17Z</time>
      </trkpt>
      <trkpt lat="42.84264" lon="0.95346">
        <ele>1308.01</ele>
        <time>2022-09-04T08:46:38Z</time>
      </trkpt>
      <trkpt lat="42.84259" lon="0.95354">
        <ele>1309.93</ele>
        <time>2022-09-04T08:46:57Z</time>
      </trkpt>
      <trkpt lat="42.84258" lon="0.95361">
        <ele>1311.86</ele>
        <time>2022-09-04T08:47:16Z</time>
      </trkpt>
      <trkpt lat="42.84256" lon="0.95367">
        <ele>1313.78</ele>
        <time>2022-09-04T08:47:30Z</time>
      </trkpt>
      <trkpt lat="42.84255" lon="0.95373">
        <ele>1315.7</ele>
        <time>2022-09-04T08:47:44Z</time>
      </trkpt>
      <trkpt lat="42.84256" lon="0.95383">
        <ele>1318.59</ele>
        <time>2022-09-04T08:48:01Z</time>
      </trkpt>
      <trkpt lat="42.8426" lon="0.95392">
        <ele>1320.03</ele>
        <time>2022-09-04T08:48:15Z</time>
      </trkpt>
      <trkpt lat="42.8426" lon="0.95397">
        <ele>1322.91</ele>
        <time>2022-09-04T08:48:31Z</time>
      </trkpt>
      <trkpt lat="42.84255" lon="0.95404">
        <ele>1325.31</ele>
        <time>2022-09-04T08:48:49Z</time>
      </trkpt>
      <trkpt lat="42.84251" lon="0.95403">
        <ele>1325.31</ele>
        <time>2022-09-04T08:49:10Z</time>
      </trkpt>
      <trkpt lat="42.84252" lon="0.95407">
        <ele>1325.8</ele>
        <time>2022-09-04T08:49:26Z</time>
      </trkpt>
      <trkpt lat="42.84256" lon="0.95408">
        <ele>1325.8</ele>
        <time>2022-09-04T08:49:52Z</time>
      </trkpt>
      <trkpt lat="42.84254" lon="0.95409">
        <ele>1325.8</ele>
        <time>2022-09-04T08:50:22Z</time>
      </trkpt>
      <trkpt lat="42.84251" lon="0.9541">
        <ele>1326.28</ele>
        <time>2022-09-04T08:50:54Z</time>
      </trkpt>
      <trkpt lat="42.84251" lon="0.95409">
        <ele>1327.72</ele>
        <time>2022-09-04T08:51:07Z</time>
      </trkpt>
      <trkpt lat="42.84253" lon="0.95408">
        <ele>1329.64</ele>
        <time>2022-09-04T08:51:25Z</time>
      </trkpt>
      <trkpt lat="42.8426" lon="0.9541">
        <ele>1329.64</ele>
        <time>2022-09-04T08:51:57Z</time>
      </trkpt>
      <trkpt lat="42.84261" lon="0.95402">
        <ele>1330.12</ele>
        <time>2022-09-04T08:52:27Z</time>
      </trkpt>
      <trkpt lat="42.84249" lon="0.95409">
        <ele>1330.12</ele>
        <time>2022-09-04T08:52:58Z</time>
      </trkpt>
      <trkpt lat="42.84245" lon="0.95412">
        <ele>1330.12</ele>
        <time>2022-09-04T08:53:41Z</time>
      </trkpt>
      <trkpt lat="42.84249" lon="0.95419">
        <ele>1331.08</ele>
        <time>2022-09-04T08:54:00Z</time>
      </trkpt>
      <trkpt lat="42.84252" lon="0.95425">
        <ele>1333.97</ele>
        <time>2022-09-04T08:54:16Z</time>
      </trkpt>
      <trkpt lat="42.84251" lon="0.95434">
        <ele>1336.37</ele>
        <time>2022-09-04T08:54:32Z</time>
      </trkpt>
      <trkpt lat="42.84251" lon="0.95441">
        <ele>1338.77</ele>
        <time>2022-09-04T08:54:46Z</time>
      </trkpt>
      <trkpt lat="42.84252" lon="0.95452">
        <ele>1340.7</ele>
        <time>2022-09-04T08:55:05Z</time>
      </trkpt>
      <trkpt lat="42.84252" lon="0.95461">
        <ele>1342.62</ele>
        <time>2022-09-04T08:55:25Z</time>
      </trkpt>
      <trkpt lat="42.8425" lon="0.95469">
        <ele>1344.54</ele>
        <time>2022-09-04T08:55:39Z</time>
      </trkpt>
      <trkpt lat="42.84252" lon="0.95476">
        <ele>1345.98</ele>
        <time>2022-09-04T08:55:51Z</time>
      </trkpt>
      <trkpt lat="42.84252" lon="0.95471">
        <ele>1346.46</ele>
        <time>2022-09-04T08:56:08Z</time>
      </trkpt>
      <trkpt lat="42.84251" lon="0.95473">
        <ele>1346.46</ele>
        <time>2022-09-04T08:56:23Z</time>
      </trkpt>
      <trkpt lat="42.84251" lon="0.95481">
        <ele>1348.39</ele>
        <time>2022-09-04T08:56:36Z</time>
      </trkpt>
      <trkpt lat="42.84251" lon="0.95489">
        <ele>1349.35</ele>
        <time>2022-09-04T08:56:48Z</time>
      </trkpt>
      <trkpt lat="42.84252" lon="0.95494">
        <ele>1350.31</ele>
        <time>2022-09-04T08:57:03Z</time>
      </trkpt>
      <trkpt lat="42.84253" lon="0.95496">
        <ele>1350.31</ele>
        <time>2022-09-04T08:57:17Z</time>
      </trkpt>
      <trkpt lat="42.84254" lon="0.95498">
        <ele>1350.79</ele>
        <time>2022-09-04T08:57:34Z</time>
      </trkpt>
      <trkpt lat="42.84255" lon="0.95504">
        <ele>1352.23</ele>
        <time>2022-09-04T08:57:45Z</time>
      </trkpt>
      <trkpt lat="42.84255" lon="0.95511">
        <ele>1354.15</ele>
        <time>2022-09-04T08:58:02Z</time>
      </trkpt>
      <trkpt lat="42.84256" lon="0.95519">
        <ele>1355.6</ele>
        <time>2022-09-04T08:58:16Z</time>
      </trkpt>
      <trkpt lat="42.84257" lon="0.95524">
        <ele>1358</ele>
        <time>2022-09-04T08:58:33Z</time>
      </trkpt>
      <trkpt lat="42.84257" lon="0.9553">
        <ele>1359.44</ele>
        <time>2022-09-04T08:58:46Z</time>
      </trkpt>
      <trkpt lat="42.84258" lon="0.95539">
        <ele>1361.36</ele>
        <time>2022-09-04T08:59:03Z</time>
      </trkpt>
      <trkpt lat="42.84257" lon="0.95543">
        <ele>1362.81</ele>
        <time>2022-09-04T08:59:20Z</time>
      </trkpt>
      <trkpt lat="42.84256" lon="0.95545">
        <ele>1363.77</ele>
        <time>2022-09-04T08:59:36Z</time>
      </trkpt>
      <trkpt lat="42.84256" lon="0.95548">
        <ele>1364.73</ele>
        <time>2022-09-04T08:59:49Z</time>
      </trkpt>
      <trkpt lat="42.84258" lon="0.95554">
        <ele>1365.69</ele>
        <time>2022-09-04T09:00:10Z</time>
      </trkpt>
      <trkpt lat="42.84257" lon="0.95565">
        <ele>1367.61</ele>
        <time>2022-09-04T09:00:27Z</time>
      </trkpt>
      <trkpt lat="42.84258" lon="0.95574">
        <ele>1369.05</ele>
        <time>2022-09-04T09:00:41Z</time>
      </trkpt>
      <trkpt lat="42.84259" lon="0.95581">
        <ele>1371.46</ele>
        <time>2022-09-04T09:00:54Z</time>
      </trkpt>
      <trkpt lat="42.84258" lon="0.95585">
        <ele>1371.94</ele>
        <time>2022-09-04T09:01:05Z</time>
      </trkpt>
      <trkpt lat="42.84258" lon="0.95594">
        <ele>1373.86</ele>
        <time>2022-09-04T09:01:20Z</time>
      </trkpt>
      <trkpt lat="42.84259" lon="0.95605">
        <ele>1375.78</ele>
        <time>2022-09-04T09:01:36Z</time>
      </trkpt>
      <trkpt lat="42.84262" lon="0.95609">
        <ele>1377.23</ele>
        <time>2022-09-04T09:01:51Z</time>
      </trkpt>
      <trkpt lat="42.84261" lon="0.95613">
        <ele>1378.19</ele>
        <time>2022-09-04T09:02:13Z</time>
      </trkpt>
      <trkpt lat="42.84264" lon="0.95619">
        <ele>1380.11</ele>
        <time>2022-09-04T09:02:25Z</time>
      </trkpt>
      <trkpt lat="42.84265" lon="0.95623">
        <ele>1381.55</ele>
        <time>2022-09-04T09:02:38Z</time>
      </trkpt>
      <trkpt lat="42.84266" lon="0.95626">
        <ele>1382.03</ele>
        <time>2022-09-04T09:02:57Z</time>
      </trkpt>
      <trkpt lat="42.84263" lon="0.9563">
        <ele>1383.47</ele>
        <time>2022-09-04T09:03:10Z</time>
      </trkpt>
      <trkpt lat="42.84265" lon="0.95627">
        <ele>1383.47</ele>
        <time>2022-09-04T09:03:26Z</time>
      </trkpt>
      <trkpt lat="42.84265" lon="0.95624">
        <ele>1383.96</ele>
        <time>2022-09-04T09:03:41Z</time>
      </trkpt>
      <trkpt lat="42.84263" lon="0.95631">
        <ele>1384.44</ele>
        <time>2022-09-04T09:03:59Z</time>
      </trkpt>
      <trkpt lat="42.84264" lon="0.95628">
        <ele>1384.44</ele>
        <time>2022-09-04T09:04:20Z</time>
      </trkpt>
      <trkpt lat="42.84265" lon="0.95629">
        <ele>1384.44</ele>
        <time>2022-09-04T09:04:37Z</time>
      </trkpt>
      <trkpt lat="42.84264" lon="0.95631">
        <ele>1384.44</ele>
        <time>2022-09-04T09:04:54Z</time>
      </trkpt>
      <trkpt lat="42.84264" lon="0.9563">
        <ele>1384.92</ele>
        <time>2022-09-04T09:05:12Z</time>
      </trkpt>
      <trkpt lat="42.84267" lon="0.95625">
        <ele>1384.92</ele>
        <time>2022-09-04T09:05:53Z</time>
      </trkpt>
      <trkpt lat="42.84267" lon="0.95624">
        <ele>1384.92</ele>
        <time>2022-09-04T09:06:10Z</time>
      </trkpt>
      <trkpt lat="42.84264" lon="0.95623">
        <ele>1384.92</ele>
        <time>2022-09-04T09:06:31Z</time>
      </trkpt>
      <trkpt lat="42.84265" lon="0.95624">
        <ele>1386.84</ele>
        <time>2022-09-04T09:06:52Z</time>
      </trkpt>
      <trkpt lat="42.84264" lon="0.95635">
        <ele>1386.84</ele>
        <time>2022-09-04T09:07:10Z</time>
      </trkpt>
      <trkpt lat="42.84264" lon="0.95646">
        <ele>1388.76</ele>
        <time>2022-09-04T09:07:25Z</time>
      </trkpt>
      <trkpt lat="42.84266" lon="0.95656">
        <ele>1390.2</ele>
        <time>2022-09-04T09:07:42Z</time>
      </trkpt>
      <trkpt lat="42.84268" lon="0.95669">
        <ele>1391.65</ele>
        <time>2022-09-04T09:07:56Z</time>
      </trkpt>
      <trkpt lat="42.84269" lon="0.9567">
        <ele>1392.61</ele>
        <time>2022-09-04T09:08:10Z</time>
      </trkpt>
      <trkpt lat="42.84269" lon="0.9568">
        <ele>1394.53</ele>
        <time>2022-09-04T09:08:25Z</time>
      </trkpt>
      <trkpt lat="42.84272" lon="0.95688">
        <ele>1395.97</ele>
        <time>2022-09-04T09:08:39Z</time>
      </trkpt>
      <trkpt lat="42.84273" lon="0.95693">
        <ele>1397.89</ele>
        <time>2022-09-04T09:08:56Z</time>
      </trkpt>
      <trkpt lat="42.84274" lon="0.95697">
        <ele>1398.37</ele>
        <time>2022-09-04T09:09:10Z</time>
      </trkpt>
      <trkpt lat="42.84276" lon="0.95706">
        <ele>1400.3</ele>
        <time>2022-09-04T09:09:24Z</time>
      </trkpt>
      <trkpt lat="42.84277" lon="0.95714">
        <ele>1401.74</ele>
        <time>2022-09-04T09:09:37Z</time>
      </trkpt>
      <trkpt lat="42.84278" lon="0.95721">
        <ele>1403.18</ele>
        <time>2022-09-04T09:09:53Z</time>
      </trkpt>
      <trkpt lat="42.8428" lon="0.95724">
        <ele>1404.14</ele>
        <time>2022-09-04T09:10:07Z</time>
      </trkpt>
      <trkpt lat="42.8428" lon="0.95725">
        <ele>1405.1</ele>
        <time>2022-09-04T09:10:27Z</time>
      </trkpt>
      <trkpt lat="42.84281" lon="0.95726">
        <ele>1405.58</ele>
        <time>2022-09-04T09:10:49Z</time>
      </trkpt>
      <trkpt lat="42.84283" lon="0.95732">
        <ele>1406.07</ele>
        <time>2022-09-04T09:11:07Z</time>
      </trkpt>
      <trkpt lat="42.84282" lon="0.95738">
        <ele>1407.99</ele>
        <time>2022-09-04T09:11:18Z</time>
      </trkpt>
      <trkpt lat="42.84283" lon="0.95745">
        <ele>1408.95</ele>
        <time>2022-09-04T09:11:32Z</time>
      </trkpt>
      <trkpt lat="42.84285" lon="0.95748">
        <ele>1409.91</ele>
        <time>2022-09-04T09:11:43Z</time>
      </trkpt>
      <trkpt lat="42.84286" lon="0.95756">
        <ele>1411.35</ele>
        <time>2022-09-04T09:11:58Z</time>
      </trkpt>
      <trkpt lat="42.84286" lon="0.95761">
        <ele>1412.79</ele>
        <time>2022-09-04T09:12:16Z</time>
      </trkpt>
      <trkpt lat="42.84287" lon="0.95766">
        <ele>1414.24</ele>
        <time>2022-09-04T09:12:30Z</time>
      </trkpt>
      <trkpt lat="42.84287" lon="0.95771">
        <ele>1415.2</ele>
        <time>2022-09-04T09:12:46Z</time>
      </trkpt>
      <trkpt lat="42.84289" lon="0.95775">
        <ele>1416.16</ele>
        <time>2022-09-04T09:13:01Z</time>
      </trkpt>
      <trkpt lat="42.84289" lon="0.95785">
        <ele>1417.6</ele>
        <time>2022-09-04T09:13:19Z</time>
      </trkpt>
      <trkpt lat="42.84293" lon="0.9579">
        <ele>1418.56</ele>
        <time>2022-09-04T09:13:31Z</time>
      </trkpt>
      <trkpt lat="42.84294" lon="0.95797">
        <ele>1420.97</ele>
        <time>2022-09-04T09:13:45Z</time>
      </trkpt>
      <trkpt lat="42.84294" lon="0.95806">
        <ele>1423.37</ele>
        <time>2022-09-04T09:14:00Z</time>
      </trkpt>
      <trkpt lat="42.84296" lon="0.95814">
        <ele>1424.81</ele>
        <time>2022-09-04T09:14:14Z</time>
      </trkpt>
      <trkpt lat="42.84296" lon="0.95819">
        <ele>1425.77</ele>
        <time>2022-09-04T09:14:26Z</time>
      </trkpt>
      <trkpt lat="42.84297" lon="0.95825">
        <ele>1426.73</ele>
        <time>2022-09-04T09:14:37Z</time>
      </trkpt>
      <trkpt lat="42.84298" lon="0.95833">
        <ele>1428.66</ele>
        <time>2022-09-04T09:14:52Z</time>
      </trkpt>
      <trkpt lat="42.84301" lon="0.95842">
        <ele>1430.58</ele>
        <time>2022-09-04T09:15:06Z</time>
      </trkpt>
      <trkpt lat="42.84298" lon="0.95849">
        <ele>1432.5</ele>
        <time>2022-09-04T09:15:21Z</time>
      </trkpt>
      <trkpt lat="42.843" lon="0.9585">
        <ele>1433.46</ele>
        <time>2022-09-04T09:15:35Z</time>
      </trkpt>
      <trkpt lat="42.84302" lon="0.95853">
        <ele>1433.94</ele>
        <time>2022-09-04T09:15:46Z</time>
      </trkpt>
      <trkpt lat="42.84301" lon="0.95859">
        <ele>1435.39</ele>
        <time>2022-09-04T09:15:59Z</time>
      </trkpt>
      <trkpt lat="42.84304" lon="0.95857">
        <ele>1436.35</ele>
        <time>2022-09-04T09:16:12Z</time>
      </trkpt>
      <trkpt lat="42.84305" lon="0.95856">
        <ele>1436.35</ele>
        <time>2022-09-04T09:16:42Z</time>
      </trkpt>
      <trkpt lat="42.84305" lon="0.95857">
        <ele>1436.35</ele>
        <time>2022-09-04T09:17:22Z</time>
      </trkpt>
      <trkpt lat="42.84304" lon="0.95856">
        <ele>1436.35</ele>
        <time>2022-09-04T09:17:48Z</time>
      </trkpt>
      <trkpt lat="42.84302" lon="0.95856">
        <ele>1436.35</ele>
        <time>2022-09-04T09:18:11Z</time>
      </trkpt>
      <trkpt lat="42.84304" lon="0.95856">
        <ele>1436.35</ele>
        <time>2022-09-04T09:18:40Z</time>
      </trkpt>
      <trkpt lat="42.84306" lon="0.95859">
        <ele>1436.35</ele>
        <time>2022-09-04T09:19:15Z</time>
      </trkpt>
      <trkpt lat="42.84305" lon="0.95859">
        <ele>1436.83</ele>
        <time>2022-09-04T09:19:48Z</time>
      </trkpt>
      <trkpt lat="42.84303" lon="0.95857">
        <ele>1436.83</ele>
        <time>2022-09-04T09:20:20Z</time>
      </trkpt>
      <trkpt lat="42.84304" lon="0.95859">
        <ele>1436.83</ele>
        <time>2022-09-04T09:20:39Z</time>
      </trkpt>
      <trkpt lat="42.84304" lon="0.9586">
        <ele>1436.83</ele>
        <time>2022-09-04T09:21:05Z</time>
      </trkpt>
      <trkpt lat="42.84303" lon="0.95858">
        <ele>1435.39</ele>
        <time>2022-09-04T09:21:26Z</time>
      </trkpt>
      <trkpt lat="42.84302" lon="0.95859">
        <ele>1435.87</ele>
        <time>2022-09-04T09:21:40Z</time>
      </trkpt>
      <trkpt lat="42.84303" lon="0.95869">
        <ele>1436.83</ele>
        <time>2022-09-04T09:21:52Z</time>
      </trkpt>
      <trkpt lat="42.84303" lon="0.9587">
        <ele>1436.83</ele>
        <time>2022-09-04T09:21:53Z</time>
      </trkpt>
      <trkpt lat="42.84304" lon="0.95877">
        <ele>1438.27</ele>
        <time>2022-09-04T09:22:06Z</time>
      </trkpt>
      <trkpt lat="42.84305" lon="0.95881">
        <ele>1440.19</ele>
        <time>2022-09-04T09:22:19Z</time>
      </trkpt>
      <trkpt lat="42.84306" lon="0.9589">
        <ele>1442.11</ele>
        <time>2022-09-04T09:22:32Z</time>
      </trkpt>
      <trkpt lat="42.84307" lon="0.95893">
        <ele>1443.08</ele>
        <time>2022-09-04T09:22:46Z</time>
      </trkpt>
      <trkpt lat="42.84306" lon="0.95893">
        <ele>1444.04</ele>
        <time>2022-09-04T09:23:03Z</time>
      </trkpt>
      <trkpt lat="42.84305" lon="0.95898">
        <ele>1445.48</ele>
        <time>2022-09-04T09:23:17Z</time>
      </trkpt>
      <trkpt lat="42.84305" lon="0.95901">
        <ele>1446.92</ele>
        <time>2022-09-04T09:23:28Z</time>
      </trkpt>
      <trkpt lat="42.84305" lon="0.95907">
        <ele>1448.36</ele>
        <time>2022-09-04T09:23:44Z</time>
      </trkpt>
      <trkpt lat="42.84303" lon="0.95911">
        <ele>1449.81</ele>
        <time>2022-09-04T09:23:59Z</time>
      </trkpt>
      <trkpt lat="42.84303" lon="0.95913">
        <ele>1450.29</ele>
        <time>2022-09-04T09:24:12Z</time>
      </trkpt>
      <trkpt lat="42.84306" lon="0.95916">
        <ele>1450.77</ele>
        <time>2022-09-04T09:24:24Z</time>
      </trkpt>
      <trkpt lat="42.84311" lon="0.95918">
        <ele>1451.25</ele>
        <time>2022-09-04T09:24:37Z</time>
      </trkpt>
      <trkpt lat="42.84318" lon="0.9592">
        <ele>1452.21</ele>
        <time>2022-09-04T09:24:49Z</time>
      </trkpt>
      <trkpt lat="42.84322" lon="0.95924">
        <ele>1453.17</ele>
        <time>2022-09-04T09:25:00Z</time>
      </trkpt>
      <trkpt lat="42.84323" lon="0.9593">
        <ele>1454.61</ele>
        <time>2022-09-04T09:25:12Z</time>
      </trkpt>
      <trkpt lat="42.84327" lon="0.95936">
        <ele>1456.05</ele>
        <time>2022-09-04T09:25:27Z</time>
      </trkpt>
      <trkpt lat="42.84325" lon="0.95937">
        <ele>1456.53</ele>
        <time>2022-09-04T09:25:42Z</time>
      </trkpt>
      <trkpt lat="42.84328" lon="0.95942">
        <ele>1457.5</ele>
        <time>2022-09-04T09:25:53Z</time>
      </trkpt>
      <trkpt lat="42.84329" lon="0.95948">
        <ele>1459.42</ele>
        <time>2022-09-04T09:26:06Z</time>
      </trkpt>
      <trkpt lat="42.84329" lon="0.95952">
        <ele>1461.34</ele>
        <time>2022-09-04T09:26:21Z</time>
      </trkpt>
      <trkpt lat="42.84329" lon="0.95956">
        <ele>1461.82</ele>
        <time>2022-09-04T09:26:41Z</time>
      </trkpt>
      <trkpt lat="42.84333" lon="0.95966">
        <ele>1463.74</ele>
        <time>2022-09-04T09:26:55Z</time>
      </trkpt>
      <trkpt lat="42.84335" lon="0.95972">
        <ele>1464.23</ele>
        <time>2022-09-04T09:27:11Z</time>
      </trkpt>
      <trkpt lat="42.84335" lon="0.95971">
        <ele>1465.19</ele>
        <time>2022-09-04T09:27:28Z</time>
      </trkpt>
      <trkpt lat="42.84338" lon="0.95975">
        <ele>1466.15</ele>
        <time>2022-09-04T09:27:40Z</time>
      </trkpt>
      <trkpt lat="42.84339" lon="0.95981">
        <ele>1467.11</ele>
        <time>2022-09-04T09:27:56Z</time>
      </trkpt>
      <trkpt lat="42.84341" lon="0.95993">
        <ele>1469.03</ele>
        <time>2022-09-04T09:28:12Z</time>
      </trkpt>
      <trkpt lat="42.84342" lon="0.96001">
        <ele>1470.95</ele>
        <time>2022-09-04T09:28:25Z</time>
      </trkpt>
      <trkpt lat="42.84345" lon="0.96009">
        <ele>1472.4</ele>
        <time>2022-09-04T09:28:39Z</time>
      </trkpt>
      <trkpt lat="42.84349" lon="0.96019">
        <ele>1474.8</ele>
        <time>2022-09-04T09:28:54Z</time>
      </trkpt>
      <trkpt lat="42.84352" lon="0.96028">
        <ele>1476.72</ele>
        <time>2022-09-04T09:29:07Z</time>
      </trkpt>
      <trkpt lat="42.84354" lon="0.96037">
        <ele>1477.68</ele>
        <time>2022-09-04T09:29:19Z</time>
      </trkpt>
      <trkpt lat="42.84357" lon="0.96047">
        <ele>1479.61</ele>
        <time>2022-09-04T09:29:33Z</time>
      </trkpt>
      <trkpt lat="42.84357" lon="0.96048">
        <ele>1479.61</ele>
        <time>2022-09-04T09:29:34Z</time>
      </trkpt>
      <trkpt lat="42.8436" lon="0.96064">
        <ele>1482.01</ele>
        <time>2022-09-04T09:29:48Z</time>
      </trkpt>
      <trkpt lat="42.84361" lon="0.96071">
        <ele>1482.97</ele>
        <time>2022-09-04T09:29:54Z</time>
      </trkpt>
      <trkpt lat="42.84363" lon="0.96082">
        <ele>1484.89</ele>
        <time>2022-09-04T09:30:08Z</time>
      </trkpt>
      <trkpt lat="42.84363" lon="0.96092">
        <ele>1485.85</ele>
        <time>2022-09-04T09:30:19Z</time>
      </trkpt>
      <trkpt lat="42.84365" lon="0.96098">
        <ele>1486.82</ele>
        <time>2022-09-04T09:30:33Z</time>
      </trkpt>
      <trkpt lat="42.84365" lon="0.96101">
        <ele>1487.78</ele>
        <time>2022-09-04T09:30:43Z</time>
      </trkpt>
      <trkpt lat="42.84365" lon="0.96099">
        <ele>1487.78</ele>
        <time>2022-09-04T09:31:16Z</time>
      </trkpt>
      <trkpt lat="42.84365" lon="0.961">
        <ele>1487.78</ele>
        <time>2022-09-04T09:31:38Z</time>
      </trkpt>
      <trkpt lat="42.84367" lon="0.9611">
        <ele>1488.26</ele>
        <time>2022-09-04T09:31:52Z</time>
      </trkpt>
      <trkpt lat="42.8437" lon="0.96105">
        <ele>1488.74</ele>
        <time>2022-09-04T09:32:08Z</time>
      </trkpt>
      <trkpt lat="42.8437" lon="0.96101">
        <ele>1488.74</ele>
        <time>2022-09-04T09:32:27Z</time>
      </trkpt>
      <trkpt lat="42.84373" lon="0.96104">
        <ele>1487.78</ele>
        <time>2022-09-04T09:33:05Z</time>
      </trkpt>
      <trkpt lat="42.84373" lon="0.96098">
        <ele>1487.78</ele>
        <time>2022-09-04T09:33:21Z</time>
      </trkpt>
      <trkpt lat="42.84375" lon="0.96092">
        <ele>1487.78</ele>
        <time>2022-09-04T09:33:28Z</time>
      </trkpt>
      <trkpt lat="42.84387" lon="0.96078">
        <ele>1486.34</ele>
        <time>2022-09-04T09:33:46Z</time>
      </trkpt>
      <trkpt lat="42.84395" lon="0.96069">
        <ele>1485.85</ele>
        <time>2022-09-04T09:34:01Z</time>
      </trkpt>
      <trkpt lat="42.84398" lon="0.96064">
        <ele>1484.89</ele>
        <time>2022-09-04T09:34:16Z</time>
      </trkpt>
      <trkpt lat="42.84402" lon="0.96059">
        <ele>1484.89</ele>
        <time>2022-09-04T09:34:31Z</time>
      </trkpt>
      <trkpt lat="42.84411" lon="0.9606">
        <ele>1485.37</ele>
        <time>2022-09-04T09:34:46Z</time>
      </trkpt>
      <trkpt lat="42.84422" lon="0.96067">
        <ele>1484.89</ele>
        <time>2022-09-04T09:35:02Z</time>
      </trkpt>
      <trkpt lat="42.84435" lon="0.9606">
        <ele>1484.89</ele>
        <time>2022-09-04T09:35:18Z</time>
      </trkpt>
      <trkpt lat="42.84446" lon="0.96047">
        <ele>1484.89</ele>
        <time>2022-09-04T09:35:35Z</time>
      </trkpt>
      <trkpt lat="42.84447" lon="0.96046">
        <ele>1484.89</ele>
        <time>2022-09-04T09:35:37Z</time>
      </trkpt>
      <trkpt lat="42.84459" lon="0.96034">
        <ele>1484.89</ele>
        <time>2022-09-04T09:35:55Z</time>
      </trkpt>
      <trkpt lat="42.84469" lon="0.96028">
        <ele>1486.34</ele>
        <time>2022-09-04T09:36:10Z</time>
      </trkpt>
      <trkpt lat="42.84474" lon="0.96025">
        <ele>1486.34</ele>
        <time>2022-09-04T09:36:18Z</time>
      </trkpt>
      <trkpt lat="42.84475" lon="0.96024">
        <ele>1486.82</ele>
        <time>2022-09-04T09:36:20Z</time>
      </trkpt>
      <trkpt lat="42.84487" lon="0.96015">
        <ele>1487.3</ele>
        <time>2022-09-04T09:36:36Z</time>
      </trkpt>
      <trkpt lat="42.84497" lon="0.96008">
        <ele>1487.3</ele>
        <time>2022-09-04T09:36:51Z</time>
      </trkpt>
      <trkpt lat="42.84506" lon="0.96006">
        <ele>1488.74</ele>
        <time>2022-09-04T09:37:05Z</time>
      </trkpt>
      <trkpt lat="42.84515" lon="0.95999">
        <ele>1489.7</ele>
        <time>2022-09-04T09:37:20Z</time>
      </trkpt>
      <trkpt lat="42.84525" lon="0.95998">
        <ele>1490.66</ele>
        <time>2022-09-04T09:37:33Z</time>
      </trkpt>
      <trkpt lat="42.84534" lon="0.95991">
        <ele>1491.14</ele>
        <time>2022-09-04T09:37:48Z</time>
      </trkpt>
      <trkpt lat="42.84541" lon="0.95977">
        <ele>1493.06</ele>
        <time>2022-09-04T09:38:05Z</time>
      </trkpt>
      <trkpt lat="42.8455" lon="0.95971">
        <ele>1493.55</ele>
        <time>2022-09-04T09:38:18Z</time>
      </trkpt>
      <trkpt lat="42.8456" lon="0.95968">
        <ele>1494.99</ele>
        <time>2022-09-04T09:38:32Z</time>
      </trkpt>
      <trkpt lat="42.8457" lon="0.95962">
        <ele>1495.47</ele>
        <time>2022-09-04T09:38:48Z</time>
      </trkpt>
      <trkpt lat="42.84582" lon="0.95961">
        <ele>1495.47</ele>
        <time>2022-09-04T09:39:00Z</time>
      </trkpt>
      <trkpt lat="42.84589" lon="0.95972">
        <ele>1495.95</ele>
        <time>2022-09-04T09:39:14Z</time>
      </trkpt>
      <trkpt lat="42.846" lon="0.95973">
        <ele>1495.95</ele>
        <time>2022-09-04T09:39:27Z</time>
      </trkpt>
      <trkpt lat="42.84612" lon="0.95975">
        <ele>1495.95</ele>
        <time>2022-09-04T09:39:41Z</time>
      </trkpt>
      <trkpt lat="42.84621" lon="0.95967">
        <ele>1495.95</ele>
        <time>2022-09-04T09:39:55Z</time>
      </trkpt>
      <trkpt lat="42.84625" lon="0.95964">
        <ele>1495.95</ele>
        <time>2022-09-04T09:40:09Z</time>
      </trkpt>
      <trkpt lat="42.84631" lon="0.9596">
        <ele>1495.95</ele>
        <time>2022-09-04T09:40:21Z</time>
      </trkpt>
      <trkpt lat="42.84636" lon="0.95958">
        <ele>1496.43</ele>
        <time>2022-09-04T09:40:33Z</time>
      </trkpt>
      <trkpt lat="42.84638" lon="0.95956">
        <ele>1496.43</ele>
        <time>2022-09-04T09:40:51Z</time>
      </trkpt>
      <trkpt lat="42.84642" lon="0.95953">
        <ele>1497.39</ele>
        <time>2022-09-04T09:41:07Z</time>
      </trkpt>
      <trkpt lat="42.84643" lon="0.95951">
        <ele>1497.39</ele>
        <time>2022-09-04T09:41:09Z</time>
      </trkpt>
      <trkpt lat="42.84647" lon="0.95943">
        <ele>1497.87</ele>
        <time>2022-09-04T09:41:24Z</time>
      </trkpt>
      <trkpt lat="42.84656" lon="0.95941">
        <ele>1496.43</ele>
        <time>2022-09-04T09:41:38Z</time>
      </trkpt>
      <trkpt lat="42.84669" lon="0.95949">
        <ele>1495.95</ele>
        <time>2022-09-04T09:41:54Z</time>
      </trkpt>
      <trkpt lat="42.8467" lon="0.9595">
        <ele>1495.95</ele>
        <time>2022-09-04T09:41:58Z</time>
      </trkpt>
      <trkpt lat="42.8467" lon="0.95954">
        <ele>1495.95</ele>
        <time>2022-09-04T09:42:13Z</time>
      </trkpt>
      <trkpt lat="42.84674" lon="0.95959">
        <ele>1495.47</ele>
        <time>2022-09-04T09:42:22Z</time>
      </trkpt>
      <trkpt lat="42.84686" lon="0.95966">
        <ele>1495.47</ele>
        <time>2022-09-04T09:42:35Z</time>
      </trkpt>
      <trkpt lat="42.84689" lon="0.95966">
        <ele>1495.47</ele>
        <time>2022-09-04T09:42:37Z</time>
      </trkpt>
      <trkpt lat="42.84699" lon="0.95954">
        <ele>1493.55</ele>
        <time>2022-09-04T09:42:52Z</time>
      </trkpt>
      <trkpt lat="42.847" lon="0.9594">
        <ele>1492.1</ele>
        <time>2022-09-04T09:43:07Z</time>
      </trkpt>
      <trkpt lat="42.84701" lon="0.95938">
        <ele>1492.1</ele>
        <time>2022-09-04T09:43:14Z</time>
      </trkpt>
      <trkpt lat="42.84705" lon="0.95937">
        <ele>1492.1</ele>
        <time>2022-09-04T09:43:18Z</time>
      </trkpt>
      <trkpt lat="42.84711" lon="0.95938">
        <ele>1491.62</ele>
        <time>2022-09-04T09:43:23Z</time>
      </trkpt>
      <trkpt lat="42.84726" lon="0.95926">
        <ele>1490.18</ele>
        <time>2022-09-04T09:43:42Z</time>
      </trkpt>
      <trkpt lat="42.84729" lon="0.95921">
        <ele>1489.7</ele>
        <time>2022-09-04T09:43:46Z</time>
      </trkpt>
      <trkpt lat="42.84742" lon="0.95908">
        <ele>1488.74</ele>
        <time>2022-09-04T09:44:04Z</time>
      </trkpt>
      <trkpt lat="42.84746" lon="0.9591">
        <ele>1488.74</ele>
        <time>2022-09-04T09:44:14Z</time>
      </trkpt>
      <trkpt lat="42.84747" lon="0.9591">
        <ele>1488.26</ele>
        <time>2022-09-04T09:44:29Z</time>
      </trkpt>
      <trkpt lat="42.84746" lon="0.95907">
        <ele>1488.26</ele>
        <time>2022-09-04T09:45:00Z</time>
      </trkpt>
      <trkpt lat="42.84743" lon="0.95907">
        <ele>1489.22</ele>
        <time>2022-09-04T09:45:11Z</time>
      </trkpt>
      <trkpt lat="42.84732" lon="0.95919">
        <ele>1489.22</ele>
        <time>2022-09-04T09:45:27Z</time>
      </trkpt>
      <trkpt lat="42.84723" lon="0.95932">
        <ele>1491.14</ele>
        <time>2022-09-04T09:45:41Z</time>
      </trkpt>
      <trkpt lat="42.8471" lon="0.95939">
        <ele>1492.1</ele>
        <time>2022-09-04T09:45:59Z</time>
      </trkpt>
      <trkpt lat="42.847" lon="0.95942">
        <ele>1492.58</ele>
        <time>2022-09-04T09:46:14Z</time>
      </trkpt>
      <trkpt lat="42.84698" lon="0.95952">
        <ele>1494.03</ele>
        <time>2022-09-04T09:46:28Z</time>
      </trkpt>
      <trkpt lat="42.84692" lon="0.9596">
        <ele>1495.47</ele>
        <time>2022-09-04T09:46:41Z</time>
      </trkpt>
      <trkpt lat="42.84693" lon="0.95964">
        <ele>1494.99</ele>
        <time>2022-09-04T09:47:03Z</time>
      </trkpt>
      <trkpt lat="42.84686" lon="0.95966">
        <ele>1495.95</ele>
        <time>2022-09-04T09:47:19Z</time>
      </trkpt>
      <trkpt lat="42.8468" lon="0.95961">
        <ele>1496.43</ele>
        <time>2022-09-04T09:47:26Z</time>
      </trkpt>
      <trkpt lat="42.84672" lon="0.9595">
        <ele>1495.95</ele>
        <time>2022-09-04T09:47:39Z</time>
      </trkpt>
      <trkpt lat="42.84665" lon="0.95941">
        <ele>1495.95</ele>
        <time>2022-09-04T09:47:53Z</time>
      </trkpt>
      <trkpt lat="42.84651" lon="0.95939">
        <ele>1496.91</ele>
        <time>2022-09-04T09:48:11Z</time>
      </trkpt>
      <trkpt lat="42.84642" lon="0.95949">
        <ele>1498.35</ele>
        <time>2022-09-04T09:48:28Z</time>
      </trkpt>
      <trkpt lat="42.84638" lon="0.95958">
        <ele>1498.35</ele>
        <time>2022-09-04T09:48:41Z</time>
      </trkpt>
      <trkpt lat="42.84636" lon="0.9596">
        <ele>1496.91</ele>
        <time>2022-09-04T09:48:46Z</time>
      </trkpt>
      <trkpt lat="42.84629" lon="0.95965">
        <ele>1496.43</ele>
        <time>2022-09-04T09:49:00Z</time>
      </trkpt>
      <trkpt lat="42.84621" lon="0.95972">
        <ele>1496.43</ele>
        <time>2022-09-04T09:49:13Z</time>
      </trkpt>
      <trkpt lat="42.84615" lon="0.95977">
        <ele>1497.87</ele>
        <time>2022-09-04T09:49:25Z</time>
      </trkpt>
      <trkpt lat="42.84607" lon="0.95977">
        <ele>1497.87</ele>
        <time>2022-09-04T09:49:40Z</time>
      </trkpt>
      <trkpt lat="42.84596" lon="0.95972">
        <ele>1497.87</ele>
        <time>2022-09-04T09:49:55Z</time>
      </trkpt>
      <trkpt lat="42.84584" lon="0.9596">
        <ele>1497.87</ele>
        <time>2022-09-04T09:50:12Z</time>
      </trkpt>
      <trkpt lat="42.84574" lon="0.95962">
        <ele>1496.43</ele>
        <time>2022-09-04T09:50:27Z</time>
      </trkpt>
      <trkpt lat="42.84562" lon="0.95968">
        <ele>1496.43</ele>
        <time>2022-09-04T09:50:43Z</time>
      </trkpt>
      <trkpt lat="42.84554" lon="0.95973">
        <ele>1495.47</ele>
        <time>2022-09-04T09:50:57Z</time>
      </trkpt>
      <trkpt lat="42.84543" lon="0.9598">
        <ele>1494.99</ele>
        <time>2022-09-04T09:51:13Z</time>
      </trkpt>
      <trkpt lat="42.84534" lon="0.95995">
        <ele>1493.06</ele>
        <time>2022-09-04T09:51:30Z</time>
      </trkpt>
      <trkpt lat="42.84525" lon="0.96">
        <ele>1492.1</ele>
        <time>2022-09-04T09:51:45Z</time>
      </trkpt>
      <trkpt lat="42.8452" lon="0.95998">
        <ele>1492.1</ele>
        <time>2022-09-04T09:51:51Z</time>
      </trkpt>
      <trkpt lat="42.84506" lon="0.96008">
        <ele>1490.66</ele>
        <time>2022-09-04T09:52:09Z</time>
      </trkpt>
      <trkpt lat="42.845" lon="0.96008">
        <ele>1489.22</ele>
        <time>2022-09-04T09:52:23Z</time>
      </trkpt>
      <trkpt lat="42.845" lon="0.9601">
        <ele>1489.7</ele>
        <time>2022-09-04T09:52:28Z</time>
      </trkpt>
      <trkpt lat="42.84484" lon="0.9602">
        <ele>1488.26</ele>
        <time>2022-09-04T09:52:46Z</time>
      </trkpt>
      <trkpt lat="42.84474" lon="0.96026">
        <ele>1487.78</ele>
        <time>2022-09-04T09:53:02Z</time>
      </trkpt>
      <trkpt lat="42.84465" lon="0.96031">
        <ele>1487.3</ele>
        <time>2022-09-04T09:53:17Z</time>
      </trkpt>
      <trkpt lat="42.84456" lon="0.96037">
        <ele>1486.34</ele>
        <time>2022-09-04T09:53:31Z</time>
      </trkpt>
      <trkpt lat="42.84445" lon="0.96051">
        <ele>1486.34</ele>
        <time>2022-09-04T09:53:48Z</time>
      </trkpt>
      <trkpt lat="42.84436" lon="0.96061">
        <ele>1486.34</ele>
        <time>2022-09-04T09:54:00Z</time>
      </trkpt>
      <trkpt lat="42.84421" lon="0.96064">
        <ele>1486.34</ele>
        <time>2022-09-04T09:54:16Z</time>
      </trkpt>
      <trkpt lat="42.84407" lon="0.96056">
        <ele>1486.34</ele>
        <time>2022-09-04T09:54:34Z</time>
      </trkpt>
      <trkpt lat="42.84402" lon="0.96061">
        <ele>1486.34</ele>
        <time>2022-09-04T09:54:47Z</time>
      </trkpt>
      <trkpt lat="42.84398" lon="0.96066">
        <ele>1485.85</ele>
        <time>2022-09-04T09:55:00Z</time>
      </trkpt>
      <trkpt lat="42.84395" lon="0.96072">
        <ele>1487.3</ele>
        <time>2022-09-04T09:55:08Z</time>
      </trkpt>
      <trkpt lat="42.8439" lon="0.96078">
        <ele>1487.78</ele>
        <time>2022-09-04T09:55:20Z</time>
      </trkpt>
      <trkpt lat="42.84384" lon="0.96084">
        <ele>1487.78</ele>
        <time>2022-09-04T09:55:34Z</time>
      </trkpt>
      <trkpt lat="42.84374" lon="0.96097">
        <ele>1488.74</ele>
        <time>2022-09-04T09:55:50Z</time>
      </trkpt>
      <trkpt lat="42.84368" lon="0.9611">
        <ele>1490.18</ele>
        <time>2022-09-04T09:56:07Z</time>
      </trkpt>
      <trkpt lat="42.84374" lon="0.96117">
        <ele>1491.62</ele>
        <time>2022-09-04T09:56:21Z</time>
      </trkpt>
      <trkpt lat="42.84378" lon="0.96125">
        <ele>1493.55</ele>
        <time>2022-09-04T09:56:34Z</time>
      </trkpt>
      <trkpt lat="42.84379" lon="0.96124">
        <ele>1494.03</ele>
        <time>2022-09-04T09:56:45Z</time>
      </trkpt>
      <trkpt lat="42.84379" lon="0.96125">
        <ele>1495.47</ele>
        <time>2022-09-04T09:56:50Z</time>
      </trkpt>
      <trkpt lat="42.84383" lon="0.96125">
        <ele>1494.03</ele>
        <time>2022-09-04T09:57:04Z</time>
      </trkpt>
      <trkpt lat="42.84385" lon="0.96123">
        <ele>1495.47</ele>
        <time>2022-09-04T09:57:09Z</time>
      </trkpt>
      <trkpt lat="42.84387" lon="0.96122">
        <ele>1495.95</ele>
        <time>2022-09-04T09:57:57Z</time>
      </trkpt>
      <trkpt lat="42.84384" lon="0.96121">
        <ele>1495.95</ele>
        <time>2022-09-04T09:58:31Z</time>
      </trkpt>
      <trkpt lat="42.84384" lon="0.96123">
        <ele>1496.43</ele>
        <time>2022-09-04T09:58:49Z</time>
      </trkpt>
      <trkpt lat="42.84383" lon="0.96122">
        <ele>1496.43</ele>
        <time>2022-09-04T09:59:24Z</time>
      </trkpt>
      <trkpt lat="42.84385" lon="0.96127">
        <ele>1496.43</ele>
        <time>2022-09-04T10:00:00Z</time>
      </trkpt>
      <trkpt lat="42.84385" lon="0.96128">
        <ele>1496.91</ele>
        <time>2022-09-04T10:00:35Z</time>
      </trkpt>
      <trkpt lat="42.84385" lon="0.96125">
        <ele>1496.91</ele>
        <time>2022-09-04T10:01:05Z</time>
      </trkpt>
      <trkpt lat="42.84387" lon="0.96125">
        <ele>1497.39</ele>
        <time>2022-09-04T10:02:21Z</time>
      </trkpt>
      <trkpt lat="42.84388" lon="0.96126">
        <ele>1497.39</ele>
        <time>2022-09-04T10:02:56Z</time>
      </trkpt>
      <trkpt lat="42.84388" lon="0.96127">
        <ele>1496.43</ele>
        <time>2022-09-04T10:03:33Z</time>
      </trkpt>
      <trkpt lat="42.84385" lon="0.96121">
        <ele>1496.43</ele>
        <time>2022-09-04T10:04:15Z</time>
      </trkpt>
      <trkpt lat="42.84384" lon="0.96121">
        <ele>1496.43</ele>
        <time>2022-09-04T10:04:58Z</time>
      </trkpt>
      <trkpt lat="42.84384" lon="0.96126">
        <ele>1496.91</ele>
        <time>2022-09-04T10:05:34Z</time>
      </trkpt>
      <trkpt lat="42.84387" lon="0.96121">
        <ele>1496.43</ele>
        <time>2022-09-04T10:05:51Z</time>
      </trkpt>
      <trkpt lat="42.84391" lon="0.9612">
        <ele>1496.43</ele>
        <time>2022-09-04T10:06:14Z</time>
      </trkpt>
      <trkpt lat="42.84394" lon="0.96121">
        <ele>1497.87</ele>
        <time>2022-09-04T10:06:20Z</time>
      </trkpt>
      <trkpt lat="42.84401" lon="0.96116">
        <ele>1500.27</ele>
        <time>2022-09-04T10:06:34Z</time>
      </trkpt>
      <trkpt lat="42.84409" lon="0.96111">
        <ele>1501.72</ele>
        <time>2022-09-04T10:06:47Z</time>
      </trkpt>
      <trkpt lat="42.84417" lon="0.96112">
        <ele>1503.16</ele>
        <time>2022-09-04T10:07:02Z</time>
      </trkpt>
      <trkpt lat="42.84426" lon="0.96112">
        <ele>1505.08</ele>
        <time>2022-09-04T10:07:17Z</time>
      </trkpt>
      <trkpt lat="42.84437" lon="0.96107">
        <ele>1503.16</ele>
        <time>2022-09-04T10:07:33Z</time>
      </trkpt>
      <trkpt lat="42.84447" lon="0.96101">
        <ele>1503.16</ele>
        <time>2022-09-04T10:07:47Z</time>
      </trkpt>
      <trkpt lat="42.84448" lon="0.961">
        <ele>1504.6</ele>
        <time>2022-09-04T10:07:49Z</time>
      </trkpt>
      <trkpt lat="42.84452" lon="0.96102">
        <ele>1506.04</ele>
        <time>2022-09-04T10:08:02Z</time>
      </trkpt>
      <trkpt lat="42.84455" lon="0.961">
        <ele>1507.48</ele>
        <time>2022-09-04T10:08:15Z</time>
      </trkpt>
      <trkpt lat="42.84459" lon="0.961">
        <ele>1508.93</ele>
        <time>2022-09-04T10:08:27Z</time>
      </trkpt>
      <trkpt lat="42.84463" lon="0.96101">
        <ele>1510.37</ele>
        <time>2022-09-04T10:08:41Z</time>
      </trkpt>
      <trkpt lat="42.84467" lon="0.96098">
        <ele>1512.29</ele>
        <time>2022-09-04T10:08:58Z</time>
      </trkpt>
      <trkpt lat="42.8447" lon="0.96098">
        <ele>1513.25</ele>
        <time>2022-09-04T10:09:11Z</time>
      </trkpt>
      <trkpt lat="42.84474" lon="0.961">
        <ele>1514.69</ele>
        <time>2022-09-04T10:09:25Z</time>
      </trkpt>
      <trkpt lat="42.84477" lon="0.96099">
        <ele>1515.66</ele>
        <time>2022-09-04T10:09:39Z</time>
      </trkpt>
      <trkpt lat="42.84481" lon="0.96096">
        <ele>1518.06</ele>
        <time>2022-09-04T10:09:57Z</time>
      </trkpt>
      <trkpt lat="42.84484" lon="0.96095">
        <ele>1519.5</ele>
        <time>2022-09-04T10:10:11Z</time>
      </trkpt>
      <trkpt lat="42.84483" lon="0.96094">
        <ele>1520.94</ele>
        <time>2022-09-04T10:10:32Z</time>
      </trkpt>
      <trkpt lat="42.84483" lon="0.96095">
        <ele>1519.5</ele>
        <time>2022-09-04T10:10:34Z</time>
      </trkpt>
      <trkpt lat="42.84488" lon="0.96096">
        <ele>1521.42</ele>
        <time>2022-09-04T10:10:47Z</time>
      </trkpt>
      <trkpt lat="42.8449" lon="0.96098">
        <ele>1523.35</ele>
        <time>2022-09-04T10:11:02Z</time>
      </trkpt>
      <trkpt lat="42.84492" lon="0.96097">
        <ele>1524.79</ele>
        <time>2022-09-04T10:11:19Z</time>
      </trkpt>
      <trkpt lat="42.84495" lon="0.96093">
        <ele>1526.23</ele>
        <time>2022-09-04T10:11:32Z</time>
      </trkpt>
      <trkpt lat="42.84495" lon="0.96097">
        <ele>1527.19</ele>
        <time>2022-09-04T10:11:45Z</time>
      </trkpt>
      <trkpt lat="42.84495" lon="0.96102">
        <ele>1529.11</ele>
        <time>2022-09-04T10:11:58Z</time>
      </trkpt>
      <trkpt lat="42.84496" lon="0.96107">
        <ele>1530.56</ele>
        <time>2022-09-04T10:12:13Z</time>
      </trkpt>
      <trkpt lat="42.84497" lon="0.96111">
        <ele>1532</ele>
        <time>2022-09-04T10:12:26Z</time>
      </trkpt>
      <trkpt lat="42.84499" lon="0.96114">
        <ele>1533.44</ele>
        <time>2022-09-04T10:12:39Z</time>
      </trkpt>
      <trkpt lat="42.84502" lon="0.96111">
        <ele>1534.88</ele>
        <time>2022-09-04T10:12:53Z</time>
      </trkpt>
      <trkpt lat="42.84505" lon="0.96109">
        <ele>1536.32</ele>
        <time>2022-09-04T10:13:06Z</time>
      </trkpt>
      <trkpt lat="42.84507" lon="0.9611">
        <ele>1537.77</ele>
        <time>2022-09-04T10:13:24Z</time>
      </trkpt>
      <trkpt lat="42.84511" lon="0.96111">
        <ele>1539.21</ele>
        <time>2022-09-04T10:13:37Z</time>
      </trkpt>
      <trkpt lat="42.84515" lon="0.9611">
        <ele>1541.13</ele>
        <time>2022-09-04T10:13:50Z</time>
      </trkpt>
      <trkpt lat="42.84519" lon="0.96107">
        <ele>1542.09</ele>
        <time>2022-09-04T10:14:02Z</time>
      </trkpt>
      <trkpt lat="42.84524" lon="0.96106">
        <ele>1544.5</ele>
        <time>2022-09-04T10:14:16Z</time>
      </trkpt>
      <trkpt lat="42.84527" lon="0.96103">
        <ele>1545.46</ele>
        <time>2022-09-04T10:14:31Z</time>
      </trkpt>
      <trkpt lat="42.8453" lon="0.96104">
        <ele>1546.42</ele>
        <time>2022-09-04T10:14:45Z</time>
      </trkpt>
      <trkpt lat="42.84535" lon="0.96104">
        <ele>1547.38</ele>
        <time>2022-09-04T10:15:03Z</time>
      </trkpt>
      <trkpt lat="42.84538" lon="0.96105">
        <ele>1548.82</ele>
        <time>2022-09-04T10:15:19Z</time>
      </trkpt>
      <trkpt lat="42.84543" lon="0.96109">
        <ele>1550.74</ele>
        <time>2022-09-04T10:15:36Z</time>
      </trkpt>
      <trkpt lat="42.84545" lon="0.96112">
        <ele>1552.19</ele>
        <time>2022-09-04T10:15:48Z</time>
      </trkpt>
      <trkpt lat="42.8455" lon="0.96114">
        <ele>1554.11</ele>
        <time>2022-09-04T10:16:13Z</time>
      </trkpt>
      <trkpt lat="42.84554" lon="0.96115">
        <ele>1556.03</ele>
        <time>2022-09-04T10:16:28Z</time>
      </trkpt>
      <trkpt lat="42.84559" lon="0.96116">
        <ele>1558.43</ele>
        <time>2022-09-04T10:16:42Z</time>
      </trkpt>
      <trkpt lat="42.84562" lon="0.96114">
        <ele>1559.88</ele>
        <time>2022-09-04T10:16:56Z</time>
      </trkpt>
      <trkpt lat="42.84565" lon="0.96114">
        <ele>1561.32</ele>
        <time>2022-09-04T10:17:12Z</time>
      </trkpt>
      <trkpt lat="42.8457" lon="0.96112">
        <ele>1563.72</ele>
        <time>2022-09-04T10:17:28Z</time>
      </trkpt>
      <trkpt lat="42.84573" lon="0.96106">
        <ele>1565.64</ele>
        <time>2022-09-04T10:17:43Z</time>
      </trkpt>
      <trkpt lat="42.84573" lon="0.96108">
        <ele>1566.12</ele>
        <time>2022-09-04T10:18:04Z</time>
      </trkpt>
      <trkpt lat="42.84581" lon="0.96102">
        <ele>1566.12</ele>
        <time>2022-09-04T10:18:24Z</time>
      </trkpt>
      <trkpt lat="42.84588" lon="0.96099">
        <ele>1568.05</ele>
        <time>2022-09-04T10:18:38Z</time>
      </trkpt>
      <trkpt lat="42.84593" lon="0.96099">
        <ele>1568.53</ele>
        <time>2022-09-04T10:18:54Z</time>
      </trkpt>
      <trkpt lat="42.84601" lon="0.96097">
        <ele>1570.45</ele>
        <time>2022-09-04T10:19:09Z</time>
      </trkpt>
      <trkpt lat="42.84608" lon="0.96094">
        <ele>1572.37</ele>
        <time>2022-09-04T10:19:25Z</time>
      </trkpt>
      <trkpt lat="42.84613" lon="0.96092">
        <ele>1574.78</ele>
        <time>2022-09-04T10:19:39Z</time>
      </trkpt>
      <trkpt lat="42.84619" lon="0.96088">
        <ele>1576.7</ele>
        <time>2022-09-04T10:19:52Z</time>
      </trkpt>
      <trkpt lat="42.8462" lon="0.96085">
        <ele>1575.26</ele>
        <time>2022-09-04T10:20:08Z</time>
      </trkpt>
      <trkpt lat="42.84622" lon="0.96082">
        <ele>1574.78</ele>
        <time>2022-09-04T10:20:24Z</time>
      </trkpt>
      <trkpt lat="42.84624" lon="0.96081">
        <ele>1574.3</ele>
        <time>2022-09-04T10:20:38Z</time>
      </trkpt>
      <trkpt lat="42.84625" lon="0.96082">
        <ele>1573.33</ele>
        <time>2022-09-04T10:20:53Z</time>
      </trkpt>
      <trkpt lat="42.84625" lon="0.9608">
        <ele>1573.33</ele>
        <time>2022-09-04T10:21:24Z</time>
      </trkpt>
      <trkpt lat="42.84626" lon="0.96079">
        <ele>1572.85</ele>
        <time>2022-09-04T10:21:41Z</time>
      </trkpt>
      <trkpt lat="42.84626" lon="0.96078">
        <ele>1572.85</ele>
        <time>2022-09-04T10:22:19Z</time>
      </trkpt>
      <trkpt lat="42.8463" lon="0.9608">
        <ele>1573.33</ele>
        <time>2022-09-04T10:22:51Z</time>
      </trkpt>
      <trkpt lat="42.8464" lon="0.9608">
        <ele>1573.33</ele>
        <time>2022-09-04T10:23:08Z</time>
      </trkpt>
      <trkpt lat="42.84646" lon="0.9608">
        <ele>1574.78</ele>
        <time>2022-09-04T10:23:21Z</time>
      </trkpt>
      <trkpt lat="42.84651" lon="0.96082">
        <ele>1574.78</ele>
        <time>2022-09-04T10:23:35Z</time>
      </trkpt>
      <trkpt lat="42.84655" lon="0.96083">
        <ele>1575.26</ele>
        <time>2022-09-04T10:23:49Z</time>
      </trkpt>
      <trkpt lat="42.84655" lon="0.96085">
        <ele>1575.26</ele>
        <time>2022-09-04T10:24:24Z</time>
      </trkpt>
      <trkpt lat="42.84654" lon="0.96085">
        <ele>1575.74</ele>
        <time>2022-09-04T10:24:47Z</time>
      </trkpt>
      <trkpt lat="42.84657" lon="0.96087">
        <ele>1575.74</ele>
        <time>2022-09-04T10:25:06Z</time>
      </trkpt>
      <trkpt lat="42.8466" lon="0.96088">
        <ele>1574.78</ele>
        <time>2022-09-04T10:25:23Z</time>
      </trkpt>
      <trkpt lat="42.84666" lon="0.96092">
        <ele>1574.3</ele>
        <time>2022-09-04T10:25:37Z</time>
      </trkpt>
      <trkpt lat="42.84672" lon="0.96095">
        <ele>1574.3</ele>
        <time>2022-09-04T10:25:53Z</time>
      </trkpt>
      <trkpt lat="42.84671" lon="0.96097">
        <ele>1574.78</ele>
        <time>2022-09-04T10:26:23Z</time>
      </trkpt>
      <trkpt lat="42.84672" lon="0.96097">
        <ele>1574.78</ele>
        <time>2022-09-04T10:26:59Z</time>
      </trkpt>
      <trkpt lat="42.84676" lon="0.96098">
        <ele>1574.3</ele>
        <time>2022-09-04T10:27:16Z</time>
      </trkpt>
      <trkpt lat="42.84679" lon="0.961">
        <ele>1574.3</ele>
        <time>2022-09-04T10:27:37Z</time>
      </trkpt>
      <trkpt lat="42.8469" lon="0.96102">
        <ele>1574.3</ele>
        <time>2022-09-04T10:27:53Z</time>
      </trkpt>
      <trkpt lat="42.84699" lon="0.961">
        <ele>1575.74</ele>
        <time>2022-09-04T10:28:06Z</time>
      </trkpt>
      <trkpt lat="42.84705" lon="0.96096">
        <ele>1576.7</ele>
        <time>2022-09-04T10:28:22Z</time>
      </trkpt>
      <trkpt lat="42.84708" lon="0.96096">
        <ele>1578.14</ele>
        <time>2022-09-04T10:28:37Z</time>
      </trkpt>
      <trkpt lat="42.84717" lon="0.96096">
        <ele>1580.54</ele>
        <time>2022-09-04T10:28:53Z</time>
      </trkpt>
      <trkpt lat="42.84725" lon="0.96097">
        <ele>1581.99</ele>
        <time>2022-09-04T10:29:08Z</time>
      </trkpt>
      <trkpt lat="42.8473" lon="0.96098">
        <ele>1583.43</ele>
        <time>2022-09-04T10:29:22Z</time>
      </trkpt>
      <trkpt lat="42.8473" lon="0.96097">
        <ele>1583.43</ele>
        <time>2022-09-04T10:29:40Z</time>
      </trkpt>
      <trkpt lat="42.84729" lon="0.96096">
        <ele>1583.43</ele>
        <time>2022-09-04T10:30:16Z</time>
      </trkpt>
      <trkpt lat="42.84731" lon="0.96097">
        <ele>1583.43</ele>
        <time>2022-09-04T10:30:34Z</time>
      </trkpt>
      <trkpt lat="42.84735" lon="0.96096">
        <ele>1584.39</ele>
        <time>2022-09-04T10:30:52Z</time>
      </trkpt>
      <trkpt lat="42.84735" lon="0.96095">
        <ele>1584.39</ele>
        <time>2022-09-04T10:31:13Z</time>
      </trkpt>
      <trkpt lat="42.84735" lon="0.96096">
        <ele>1584.87</ele>
        <time>2022-09-04T10:31:38Z</time>
      </trkpt>
      <trkpt lat="42.84736" lon="0.96096">
        <ele>1585.35</ele>
        <time>2022-09-04T10:31:58Z</time>
      </trkpt>
      <trkpt lat="42.8474" lon="0.96096">
        <ele>1586.79</ele>
        <time>2022-09-04T10:32:17Z</time>
      </trkpt>
      <trkpt lat="42.84741" lon="0.96094">
        <ele>1587.75</ele>
        <time>2022-09-04T10:32:34Z</time>
      </trkpt>
      <trkpt lat="42.84749" lon="0.96091">
        <ele>1588.72</ele>
        <time>2022-09-04T10:32:50Z</time>
      </trkpt>
      <trkpt lat="42.84757" lon="0.96086">
        <ele>1589.68</ele>
        <time>2022-09-04T10:33:07Z</time>
      </trkpt>
      <trkpt lat="42.8476" lon="0.96086">
        <ele>1590.16</ele>
        <time>2022-09-04T10:33:24Z</time>
      </trkpt>
      <trkpt lat="42.84764" lon="0.96084">
        <ele>1590.16</ele>
        <time>2022-09-04T10:33:39Z</time>
      </trkpt>
      <trkpt lat="42.84765" lon="0.96084">
        <ele>1590.16</ele>
        <time>2022-09-04T10:33:52Z</time>
      </trkpt>
      <trkpt lat="42.84766" lon="0.96084">
        <ele>1590.64</ele>
        <time>2022-09-04T10:34:12Z</time>
      </trkpt>
      <trkpt lat="42.84765" lon="0.96083">
        <ele>1589.68</ele>
        <time>2022-09-04T10:34:25Z</time>
      </trkpt>
      <trkpt lat="42.84767" lon="0.96084">
        <ele>1590.16</ele>
        <time>2022-09-04T10:34:42Z</time>
      </trkpt>
      <trkpt lat="42.84769" lon="0.96089">
        <ele>1589.2</ele>
        <time>2022-09-04T10:34:59Z</time>
      </trkpt>
      <trkpt lat="42.84772" lon="0.96092">
        <ele>1588.72</ele>
        <time>2022-09-04T10:35:22Z</time>
      </trkpt>
      <trkpt lat="42.84781" lon="0.96102">
        <ele>1588.24</ele>
        <time>2022-09-04T10:35:36Z</time>
      </trkpt>
      <trkpt lat="42.84792" lon="0.96112">
        <ele>1587.75</ele>
        <time>2022-09-04T10:35:52Z</time>
      </trkpt>
      <trkpt lat="42.848" lon="0.96118">
        <ele>1586.79</ele>
        <time>2022-09-04T10:36:08Z</time>
      </trkpt>
      <trkpt lat="42.84808" lon="0.96127">
        <ele>1586.31</ele>
        <time>2022-09-04T10:36:22Z</time>
      </trkpt>
      <trkpt lat="42.84819" lon="0.96137">
        <ele>1586.31</ele>
        <time>2022-09-04T10:36:38Z</time>
      </trkpt>
      <trkpt lat="42.84829" lon="0.96147">
        <ele>1586.31</ele>
        <time>2022-09-04T10:36:54Z</time>
      </trkpt>
      <trkpt lat="42.84838" lon="0.96156">
        <ele>1584.87</ele>
        <time>2022-09-04T10:37:10Z</time>
      </trkpt>
      <trkpt lat="42.84841" lon="0.96159">
        <ele>1584.39</ele>
        <time>2022-09-04T10:37:15Z</time>
      </trkpt>
      <trkpt lat="42.84851" lon="0.96172">
        <ele>1583.91</ele>
        <time>2022-09-04T10:37:32Z</time>
      </trkpt>
      <trkpt lat="42.84862" lon="0.96186">
        <ele>1583.43</ele>
        <time>2022-09-04T10:37:49Z</time>
      </trkpt>
      <trkpt lat="42.84871" lon="0.96199">
        <ele>1582.95</ele>
        <time>2022-09-04T10:38:07Z</time>
      </trkpt>
      <trkpt lat="42.84879" lon="0.96213">
        <ele>1582.95</ele>
        <time>2022-09-04T10:38:23Z</time>
      </trkpt>
      <trkpt lat="42.84882" lon="0.96222">
        <ele>1584.39</ele>
        <time>2022-09-04T10:38:34Z</time>
      </trkpt>
      <trkpt lat="42.84889" lon="0.96236">
        <ele>1586.31</ele>
        <time>2022-09-04T10:38:49Z</time>
      </trkpt>
      <trkpt lat="42.84891" lon="0.96235">
        <ele>1586.31</ele>
        <time>2022-09-04T10:39:06Z</time>
      </trkpt>
      <trkpt lat="42.84896" lon="0.96248">
        <ele>1586.79</ele>
        <time>2022-09-04T10:39:22Z</time>
      </trkpt>
      <trkpt lat="42.84904" lon="0.96262">
        <ele>1587.75</ele>
        <time>2022-09-04T10:39:38Z</time>
      </trkpt>
      <trkpt lat="42.84909" lon="0.96275">
        <ele>1589.2</ele>
        <time>2022-09-04T10:39:53Z</time>
      </trkpt>
      <trkpt lat="42.84916" lon="0.96287">
        <ele>1590.16</ele>
        <time>2022-09-04T10:40:06Z</time>
      </trkpt>
      <trkpt lat="42.84928" lon="0.96301">
        <ele>1590.64</ele>
        <time>2022-09-04T10:40:22Z</time>
      </trkpt>
      <trkpt lat="42.84937" lon="0.96314">
        <ele>1590.64</ele>
        <time>2022-09-04T10:40:38Z</time>
      </trkpt>
      <trkpt lat="42.84946" lon="0.96329">
        <ele>1590.64</ele>
        <time>2022-09-04T10:40:53Z</time>
      </trkpt>
      <trkpt lat="42.84948" lon="0.96332">
        <ele>1590.64</ele>
        <time>2022-09-04T10:41:07Z</time>
      </trkpt>
      <trkpt lat="42.84951" lon="0.96332">
        <ele>1590.64</ele>
        <time>2022-09-04T10:41:18Z</time>
      </trkpt>
      <trkpt lat="42.8495" lon="0.96334">
        <ele>1593.04</ele>
        <time>2022-09-04T10:41:33Z</time>
      </trkpt>
      <trkpt lat="42.84951" lon="0.96337">
        <ele>1590.64</ele>
        <time>2022-09-04T10:41:52Z</time>
      </trkpt>
      <trkpt lat="42.8495" lon="0.96349">
        <ele>1593.04</ele>
        <time>2022-09-04T10:42:03Z</time>
      </trkpt>
      <trkpt lat="42.8495" lon="0.96356">
        <ele>1594.48</ele>
        <time>2022-09-04T10:42:20Z</time>
      </trkpt>
      <trkpt lat="42.84948" lon="0.96363">
        <ele>1594.96</ele>
        <time>2022-09-04T10:42:33Z</time>
      </trkpt>
      <trkpt lat="42.84946" lon="0.96376">
        <ele>1596.41</ele>
        <time>2022-09-04T10:42:47Z</time>
      </trkpt>
      <trkpt lat="42.84941" lon="0.96393">
        <ele>1597.37</ele>
        <time>2022-09-04T10:43:03Z</time>
      </trkpt>
      <trkpt lat="42.84937" lon="0.96402">
        <ele>1598.33</ele>
        <time>2022-09-04T10:43:11Z</time>
      </trkpt>
      <trkpt lat="42.84933" lon="0.96407">
        <ele>1597.85</ele>
        <time>2022-09-04T10:43:26Z</time>
      </trkpt>
      <trkpt lat="42.84932" lon="0.96408">
        <ele>1597.85</ele>
        <time>2022-09-04T10:43:50Z</time>
      </trkpt>
      <trkpt lat="42.84936" lon="0.96405">
        <ele>1597.85</ele>
        <time>2022-09-04T10:44:09Z</time>
      </trkpt>
      <trkpt lat="42.84939" lon="0.96401">
        <ele>1597.85</ele>
        <time>2022-09-04T10:44:14Z</time>
      </trkpt>
      <trkpt lat="42.84948" lon="0.96393">
        <ele>1596.41</ele>
        <time>2022-09-04T10:44:29Z</time>
      </trkpt>
      <trkpt lat="42.84959" lon="0.96381">
        <ele>1594.96</ele>
        <time>2022-09-04T10:44:44Z</time>
      </trkpt>
      <trkpt lat="42.84971" lon="0.96374">
        <ele>1592.56</ele>
        <time>2022-09-04T10:45:00Z</time>
      </trkpt>
      <trkpt lat="42.84985" lon="0.96371">
        <ele>1591.12</ele>
        <time>2022-09-04T10:45:15Z</time>
      </trkpt>
      <trkpt lat="42.84998" lon="0.96368">
        <ele>1590.16</ele>
        <time>2022-09-04T10:45:29Z</time>
      </trkpt>
      <trkpt lat="42.85007" lon="0.96364">
        <ele>1590.16</ele>
        <time>2022-09-04T10:45:42Z</time>
      </trkpt>
      <trkpt lat="42.8502" lon="0.96353">
        <ele>1589.68</ele>
        <time>2022-09-04T10:46:01Z</time>
      </trkpt>
      <trkpt lat="42.85029" lon="0.96344">
        <ele>1589.68</ele>
        <time>2022-09-04T10:46:14Z</time>
      </trkpt>
      <trkpt lat="42.85034" lon="0.96337">
        <ele>1589.68</ele>
        <time>2022-09-04T10:46:22Z</time>
      </trkpt>
      <trkpt lat="42.85046" lon="0.96324">
        <ele>1589.68</ele>
        <time>2022-09-04T10:46:38Z</time>
      </trkpt>
      <trkpt lat="42.85054" lon="0.96314">
        <ele>1589.2</ele>
        <time>2022-09-04T10:46:52Z</time>
      </trkpt>
      <trkpt lat="42.85066" lon="0.96305">
        <ele>1591.6</ele>
        <time>2022-09-04T10:47:07Z</time>
      </trkpt>
      <trkpt lat="42.85076" lon="0.96299">
        <ele>1593.52</ele>
        <time>2022-09-04T10:47:22Z</time>
      </trkpt>
      <trkpt lat="42.85085" lon="0.96289">
        <ele>1594.48</ele>
        <time>2022-09-04T10:47:35Z</time>
      </trkpt>
      <trkpt lat="42.85088" lon="0.96281">
        <ele>1595.93</ele>
        <time>2022-09-04T10:47:48Z</time>
      </trkpt>
      <trkpt lat="42.8509" lon="0.96273">
        <ele>1595.93</ele>
        <time>2022-09-04T10:48:03Z</time>
      </trkpt>
      <trkpt lat="42.85098" lon="0.96265">
        <ele>1596.41</ele>
        <time>2022-09-04T10:48:15Z</time>
      </trkpt>
      <trkpt lat="42.85105" lon="0.96252">
        <ele>1598.33</ele>
        <time>2022-09-04T10:48:30Z</time>
      </trkpt>
      <trkpt lat="42.85109" lon="0.96245">
        <ele>1599.77</ele>
        <time>2022-09-04T10:48:46Z</time>
      </trkpt>
      <trkpt lat="42.85112" lon="0.96236">
        <ele>1599.77</ele>
        <time>2022-09-04T10:48:59Z</time>
      </trkpt>
      <trkpt lat="42.85117" lon="0.96228">
        <ele>1599.77</ele>
        <time>2022-09-04T10:49:14Z</time>
      </trkpt>
      <trkpt lat="42.85124" lon="0.96222">
        <ele>1600.25</ele>
        <time>2022-09-04T10:49:28Z</time>
      </trkpt>
      <trkpt lat="42.85125" lon="0.96208">
        <ele>1600.73</ele>
        <time>2022-09-04T10:49:44Z</time>
      </trkpt>
      <trkpt lat="42.85126" lon="0.96205">
        <ele>1599.29</ele>
        <time>2022-09-04T10:49:47Z</time>
      </trkpt>
      <trkpt lat="42.85128" lon="0.96201">
        <ele>1599.29</ele>
        <time>2022-09-04T10:49:52Z</time>
      </trkpt>
      <trkpt lat="42.8513" lon="0.96198">
        <ele>1599.29</ele>
        <time>2022-09-04T10:49:55Z</time>
      </trkpt>
      <trkpt lat="42.8514" lon="0.9619">
        <ele>1598.81</ele>
        <time>2022-09-04T10:50:09Z</time>
      </trkpt>
      <trkpt lat="42.85149" lon="0.9618">
        <ele>1598.81</ele>
        <time>2022-09-04T10:50:23Z</time>
      </trkpt>
      <trkpt lat="42.85157" lon="0.96177">
        <ele>1599.77</ele>
        <time>2022-09-04T10:50:34Z</time>
      </trkpt>
      <trkpt lat="42.85165" lon="0.96175">
        <ele>1602.66</ele>
        <time>2022-09-04T10:50:48Z</time>
      </trkpt>
      <trkpt lat="42.85173" lon="0.96169">
        <ele>1604.1</ele>
        <time>2022-09-04T10:51:01Z</time>
      </trkpt>
      <trkpt lat="42.85182" lon="0.96166">
        <ele>1606.02</ele>
        <time>2022-09-04T10:51:15Z</time>
      </trkpt>
      <trkpt lat="42.85188" lon="0.9616">
        <ele>1606.98</ele>
        <time>2022-09-04T10:51:28Z</time>
      </trkpt>
      <trkpt lat="42.85196" lon="0.96153">
        <ele>1607.94</ele>
        <time>2022-09-04T10:51:41Z</time>
      </trkpt>
      <trkpt lat="42.85198" lon="0.96149">
        <ele>1608.9</ele>
        <time>2022-09-04T10:51:58Z</time>
      </trkpt>
      <trkpt lat="42.852" lon="0.96148">
        <ele>1608.9</ele>
        <time>2022-09-04T10:52:21Z</time>
      </trkpt>
      <trkpt lat="42.852" lon="0.96147">
        <ele>1609.38</ele>
        <time>2022-09-04T10:52:45Z</time>
      </trkpt>
      <trkpt lat="42.852" lon="0.96145">
        <ele>1609.38</ele>
        <time>2022-09-04T10:53:05Z</time>
      </trkpt>
      <trkpt lat="42.85206" lon="0.96143">
        <ele>1609.86</ele>
        <time>2022-09-04T10:53:17Z</time>
      </trkpt>
      <trkpt lat="42.85216" lon="0.96135">
        <ele>1611.79</ele>
        <time>2022-09-04T10:53:33Z</time>
      </trkpt>
      <trkpt lat="42.85227" lon="0.96127">
        <ele>1613.23</ele>
        <time>2022-09-04T10:53:48Z</time>
      </trkpt>
      <trkpt lat="42.85236" lon="0.96119">
        <ele>1614.19</ele>
        <time>2022-09-04T10:54:01Z</time>
      </trkpt>
      <trkpt lat="42.85244" lon="0.96108">
        <ele>1616.11</ele>
        <time>2022-09-04T10:54:15Z</time>
      </trkpt>
      <trkpt lat="42.85249" lon="0.96096">
        <ele>1616.59</ele>
        <time>2022-09-04T10:54:29Z</time>
      </trkpt>
      <trkpt lat="42.85257" lon="0.96085">
        <ele>1618.04</ele>
        <time>2022-09-04T10:54:44Z</time>
      </trkpt>
      <trkpt lat="42.85261" lon="0.96078">
        <ele>1619.48</ele>
        <time>2022-09-04T10:55:01Z</time>
      </trkpt>
      <trkpt lat="42.85268" lon="0.96067">
        <ele>1621.4</ele>
        <time>2022-09-04T10:55:17Z</time>
      </trkpt>
      <trkpt lat="42.85273" lon="0.96061">
        <ele>1622.84</ele>
        <time>2022-09-04T10:55:33Z</time>
      </trkpt>
      <trkpt lat="42.85279" lon="0.96052">
        <ele>1625.25</ele>
        <time>2022-09-04T10:55:47Z</time>
      </trkpt>
      <trkpt lat="42.85284" lon="0.96042">
        <ele>1627.65</ele>
        <time>2022-09-04T10:56:03Z</time>
      </trkpt>
      <trkpt lat="42.85286" lon="0.96036">
        <ele>1629.57</ele>
        <time>2022-09-04T10:56:18Z</time>
      </trkpt>
      <trkpt lat="42.85284" lon="0.96038">
        <ele>1627.65</ele>
        <time>2022-09-04T10:56:31Z</time>
      </trkpt>
      <trkpt lat="42.8529" lon="0.96029">
        <ele>1630.53</ele>
        <time>2022-09-04T10:56:45Z</time>
      </trkpt>
      <trkpt lat="42.85294" lon="0.96018">
        <ele>1632.94</ele>
        <time>2022-09-04T10:56:58Z</time>
      </trkpt>
      <trkpt lat="42.85297" lon="0.96011">
        <ele>1634.38</ele>
        <time>2022-09-04T10:57:14Z</time>
      </trkpt>
      <trkpt lat="42.853" lon="0.96007">
        <ele>1635.34</ele>
        <time>2022-09-04T10:57:26Z</time>
      </trkpt>
      <trkpt lat="42.853" lon="0.96009">
        <ele>1636.3</ele>
        <time>2022-09-04T10:57:46Z</time>
      </trkpt>
      <trkpt lat="42.85301" lon="0.96013">
        <ele>1637.26</ele>
        <time>2022-09-04T10:58:20Z</time>
      </trkpt>
      <trkpt lat="42.85308" lon="0.96022">
        <ele>1638.7</ele>
        <time>2022-09-04T10:58:35Z</time>
      </trkpt>
      <trkpt lat="42.85312" lon="0.96034">
        <ele>1640.63</ele>
        <time>2022-09-04T10:58:49Z</time>
      </trkpt>
      <trkpt lat="42.85317" lon="0.96041">
        <ele>1642.07</ele>
        <time>2022-09-04T10:59:04Z</time>
      </trkpt>
      <trkpt lat="42.85322" lon="0.96042">
        <ele>1642.07</ele>
        <time>2022-09-04T10:59:26Z</time>
      </trkpt>
      <trkpt lat="42.85331" lon="0.96048">
        <ele>1644.47</ele>
        <time>2022-09-04T10:59:41Z</time>
      </trkpt>
      <trkpt lat="42.85337" lon="0.96056">
        <ele>1645.91</ele>
        <time>2022-09-04T10:59:54Z</time>
      </trkpt>
      <trkpt lat="42.85339" lon="0.96063">
        <ele>1646.88</ele>
        <time>2022-09-04T11:00:06Z</time>
      </trkpt>
      <trkpt lat="42.85342" lon="0.96073">
        <ele>1648.32</ele>
        <time>2022-09-04T11:00:20Z</time>
      </trkpt>
      <trkpt lat="42.85342" lon="0.9608">
        <ele>1650.24</ele>
        <time>2022-09-04T11:00:31Z</time>
      </trkpt>
      <trkpt lat="42.85343" lon="0.96079">
        <ele>1651.2</ele>
        <time>2022-09-04T11:00:46Z</time>
      </trkpt>
      <trkpt lat="42.85344" lon="0.96077">
        <ele>1652.64</ele>
        <time>2022-09-04T11:01:01Z</time>
      </trkpt>
      <trkpt lat="42.85348" lon="0.96083">
        <ele>1651.2</ele>
        <time>2022-09-04T11:01:14Z</time>
      </trkpt>
      <trkpt lat="42.8535" lon="0.96091">
        <ele>1651.2</ele>
        <time>2022-09-04T11:01:22Z</time>
      </trkpt>
      <trkpt lat="42.85357" lon="0.96094">
        <ele>1651.2</ele>
        <time>2022-09-04T11:01:30Z</time>
      </trkpt>
      <trkpt lat="42.8537" lon="0.96102">
        <ele>1651.2</ele>
        <time>2022-09-04T11:01:48Z</time>
      </trkpt>
      <trkpt lat="42.85377" lon="0.96115">
        <ele>1652.64</ele>
        <time>2022-09-04T11:02:04Z</time>
      </trkpt>
      <trkpt lat="42.85382" lon="0.96127">
        <ele>1654.57</ele>
        <time>2022-09-04T11:02:18Z</time>
      </trkpt>
      <trkpt lat="42.85386" lon="0.96139">
        <ele>1656.97</ele>
        <time>2022-09-04T11:02:33Z</time>
      </trkpt>
      <trkpt lat="42.85389" lon="0.9615">
        <ele>1658.89</ele>
        <time>2022-09-04T11:02:45Z</time>
      </trkpt>
      <trkpt lat="42.85392" lon="0.9616">
        <ele>1660.81</ele>
        <time>2022-09-04T11:02:58Z</time>
      </trkpt>
      <trkpt lat="42.85394" lon="0.9616">
        <ele>1661.3</ele>
        <time>2022-09-04T11:03:16Z</time>
      </trkpt>
      <trkpt lat="42.85397" lon="0.96168">
        <ele>1662.74</ele>
        <time>2022-09-04T11:03:42Z</time>
      </trkpt>
      <trkpt lat="42.854" lon="0.96174">
        <ele>1663.22</ele>
        <time>2022-09-04T11:03:57Z</time>
      </trkpt>
      <trkpt lat="42.85408" lon="0.96183">
        <ele>1664.66</ele>
        <time>2022-09-04T11:04:15Z</time>
      </trkpt>
      <trkpt lat="42.85417" lon="0.96194">
        <ele>1666.58</ele>
        <time>2022-09-04T11:04:29Z</time>
      </trkpt>
      <trkpt lat="42.85423" lon="0.96202">
        <ele>1668.02</ele>
        <time>2022-09-04T11:04:41Z</time>
      </trkpt>
      <trkpt lat="42.85432" lon="0.96212">
        <ele>1669.47</ele>
        <time>2022-09-04T11:04:55Z</time>
      </trkpt>
      <trkpt lat="42.85439" lon="0.96221">
        <ele>1670.91</ele>
        <time>2022-09-04T11:05:08Z</time>
      </trkpt>
      <trkpt lat="42.85444" lon="0.96231">
        <ele>1673.31</ele>
        <time>2022-09-04T11:05:20Z</time>
      </trkpt>
      <trkpt lat="42.85446" lon="0.9623">
        <ele>1673.31</ele>
        <time>2022-09-04T11:05:32Z</time>
      </trkpt>
      <trkpt lat="42.85446" lon="0.96232">
        <ele>1674.27</ele>
        <time>2022-09-04T11:05:47Z</time>
      </trkpt>
      <trkpt lat="42.85452" lon="0.96241">
        <ele>1674.75</ele>
        <time>2022-09-04T11:06:00Z</time>
      </trkpt>
      <trkpt lat="42.85453" lon="0.96242">
        <ele>1675.23</ele>
        <time>2022-09-04T11:06:01Z</time>
      </trkpt>
      <trkpt lat="42.85462" lon="0.96253">
        <ele>1677.64</ele>
        <time>2022-09-04T11:06:16Z</time>
      </trkpt>
      <trkpt lat="42.85469" lon="0.96263">
        <ele>1679.56</ele>
        <time>2022-09-04T11:06:30Z</time>
      </trkpt>
      <trkpt lat="42.85475" lon="0.96273">
        <ele>1682.44</ele>
        <time>2022-09-04T11:06:44Z</time>
      </trkpt>
      <trkpt lat="42.85478" lon="0.96279">
        <ele>1683.41</ele>
        <time>2022-09-04T11:06:58Z</time>
      </trkpt>
      <trkpt lat="42.85482" lon="0.96285">
        <ele>1685.33</ele>
        <time>2022-09-04T11:07:15Z</time>
      </trkpt>
      <trkpt lat="42.85492" lon="0.96294">
        <ele>1686.77</ele>
        <time>2022-09-04T11:07:29Z</time>
      </trkpt>
      <trkpt lat="42.855" lon="0.96302">
        <ele>1688.69</ele>
        <time>2022-09-04T11:07:44Z</time>
      </trkpt>
      <trkpt lat="42.85503" lon="0.96307">
        <ele>1690.14</ele>
        <time>2022-09-04T11:07:57Z</time>
      </trkpt>
      <trkpt lat="42.85496" lon="0.9631">
        <ele>1692.06</ele>
        <time>2022-09-04T11:08:10Z</time>
      </trkpt>
      <trkpt lat="42.85488" lon="0.96314">
        <ele>1693.5</ele>
        <time>2022-09-04T11:08:24Z</time>
      </trkpt>
      <trkpt lat="42.85483" lon="0.96319">
        <ele>1695.9</ele>
        <time>2022-09-04T11:08:40Z</time>
      </trkpt>
      <trkpt lat="42.85482" lon="0.96325">
        <ele>1697.83</ele>
        <time>2022-09-04T11:08:52Z</time>
      </trkpt>
      <trkpt lat="42.8548" lon="0.96328">
        <ele>1699.27</ele>
        <time>2022-09-04T11:09:08Z</time>
      </trkpt>
      <trkpt lat="42.85471" lon="0.96329">
        <ele>1700.71</ele>
        <time>2022-09-04T11:09:21Z</time>
      </trkpt>
      <trkpt lat="42.85466" lon="0.96331">
        <ele>1701.67</ele>
        <time>2022-09-04T11:09:35Z</time>
      </trkpt>
      <trkpt lat="42.85458" lon="0.96333">
        <ele>1703.59</ele>
        <time>2022-09-04T11:09:49Z</time>
      </trkpt>
      <trkpt lat="42.85453" lon="0.96334">
        <ele>1704.55</ele>
        <time>2022-09-04T11:10:01Z</time>
      </trkpt>
      <trkpt lat="42.85456" lon="0.96341">
        <ele>1706.48</ele>
        <time>2022-09-04T11:10:14Z</time>
      </trkpt>
      <trkpt lat="42.8546" lon="0.96345">
        <ele>1707.44</ele>
        <time>2022-09-04T11:10:32Z</time>
      </trkpt>
      <trkpt lat="42.85465" lon="0.96355">
        <ele>1708.88</ele>
        <time>2022-09-04T11:10:45Z</time>
      </trkpt>
      <trkpt lat="42.85463" lon="0.96361">
        <ele>1710.8</ele>
        <time>2022-09-04T11:10:59Z</time>
      </trkpt>
      <trkpt lat="42.85454" lon="0.96363">
        <ele>1712.25</ele>
        <time>2022-09-04T11:11:12Z</time>
      </trkpt>
      <trkpt lat="42.85445" lon="0.96363">
        <ele>1714.17</ele>
        <time>2022-09-04T11:11:25Z</time>
      </trkpt>
      <trkpt lat="42.85436" lon="0.96362">
        <ele>1715.61</ele>
        <time>2022-09-04T11:11:38Z</time>
      </trkpt>
      <trkpt lat="42.85427" lon="0.96358">
        <ele>1717.05</ele>
        <time>2022-09-04T11:11:52Z</time>
      </trkpt>
      <trkpt lat="42.85418" lon="0.96354">
        <ele>1718.49</ele>
        <time>2022-09-04T11:12:07Z</time>
      </trkpt>
      <trkpt lat="42.85411" lon="0.96352">
        <ele>1719.46</ele>
        <time>2022-09-04T11:12:20Z</time>
      </trkpt>
      <trkpt lat="42.85402" lon="0.96347">
        <ele>1719.46</ele>
        <time>2022-09-04T11:12:33Z</time>
      </trkpt>
      <trkpt lat="42.85398" lon="0.96346">
        <ele>1720.42</ele>
        <time>2022-09-04T11:12:48Z</time>
      </trkpt>
      <trkpt lat="42.854" lon="0.96352">
        <ele>1722.34</ele>
        <time>2022-09-04T11:13:01Z</time>
      </trkpt>
      <trkpt lat="42.85403" lon="0.9636">
        <ele>1724.26</ele>
        <time>2022-09-04T11:13:14Z</time>
      </trkpt>
      <trkpt lat="42.85406" lon="0.96368">
        <ele>1725.22</ele>
        <time>2022-09-04T11:13:28Z</time>
      </trkpt>
      <trkpt lat="42.85402" lon="0.9637">
        <ele>1727.15</ele>
        <time>2022-09-04T11:13:41Z</time>
      </trkpt>
      <trkpt lat="42.85396" lon="0.9637">
        <ele>1728.59</ele>
        <time>2022-09-04T11:13:52Z</time>
      </trkpt>
      <trkpt lat="42.8539" lon="0.96372">
        <ele>1730.51</ele>
        <time>2022-09-04T11:14:07Z</time>
      </trkpt>
      <trkpt lat="42.8539" lon="0.96377">
        <ele>1731.95</ele>
        <time>2022-09-04T11:14:15Z</time>
      </trkpt>
      <trkpt lat="42.85387" lon="0.9638">
        <ele>1733.39</ele>
        <time>2022-09-04T11:14:27Z</time>
      </trkpt>
      <trkpt lat="42.85391" lon="0.96384">
        <ele>1734.36</ele>
        <time>2022-09-04T11:14:50Z</time>
      </trkpt>
      <trkpt lat="42.85387" lon="0.96387">
        <ele>1735.8</ele>
        <time>2022-09-04T11:15:02Z</time>
      </trkpt>
      <trkpt lat="42.85381" lon="0.96391">
        <ele>1737.72</ele>
        <time>2022-09-04T11:15:15Z</time>
      </trkpt>
      <trkpt lat="42.85376" lon="0.96395">
        <ele>1739.64</ele>
        <time>2022-09-04T11:15:28Z</time>
      </trkpt>
      <trkpt lat="42.85376" lon="0.96402">
        <ele>1741.08</ele>
        <time>2022-09-04T11:15:40Z</time>
      </trkpt>
      <trkpt lat="42.85377" lon="0.96411">
        <ele>1742.53</ele>
        <time>2022-09-04T11:15:52Z</time>
      </trkpt>
      <trkpt lat="42.85375" lon="0.96416">
        <ele>1743.49</ele>
        <time>2022-09-04T11:16:08Z</time>
      </trkpt>
      <trkpt lat="42.85375" lon="0.96415">
        <ele>1743.97</ele>
        <time>2022-09-04T11:16:27Z</time>
      </trkpt>
      <trkpt lat="42.85369" lon="0.96411">
        <ele>1745.41</ele>
        <time>2022-09-04T11:16:42Z</time>
      </trkpt>
      <trkpt lat="42.85363" lon="0.96408">
        <ele>1745.89</ele>
        <time>2022-09-04T11:16:56Z</time>
      </trkpt>
      <trkpt lat="42.85359" lon="0.96405">
        <ele>1747.81</ele>
        <time>2022-09-04T11:17:08Z</time>
      </trkpt>
      <trkpt lat="42.85356" lon="0.96402">
        <ele>1749.74</ele>
        <time>2022-09-04T11:17:24Z</time>
      </trkpt>
      <trkpt lat="42.85355" lon="0.96403">
        <ele>1749.74</ele>
        <time>2022-09-04T11:17:43Z</time>
      </trkpt>
      <trkpt lat="42.8535" lon="0.96406">
        <ele>1749.74</ele>
        <time>2022-09-04T11:18:04Z</time>
      </trkpt>
      <trkpt lat="42.85351" lon="0.96405">
        <ele>1749.74</ele>
        <time>2022-09-04T11:18:20Z</time>
      </trkpt>
      <trkpt lat="42.85349" lon="0.96406">
        <ele>1749.74</ele>
        <time>2022-09-04T11:18:34Z</time>
      </trkpt>
      <trkpt lat="42.85349" lon="0.96407">
        <ele>1748.78</ele>
        <time>2022-09-04T11:19:00Z</time>
      </trkpt>
      <trkpt lat="42.85349" lon="0.96408">
        <ele>1748.78</ele>
        <time>2022-09-04T11:19:28Z</time>
      </trkpt>
      <trkpt lat="42.8535" lon="0.96406">
        <ele>1749.26</ele>
        <time>2022-09-04T11:20:29Z</time>
      </trkpt>
      <trkpt lat="42.85351" lon="0.96406">
        <ele>1749.26</ele>
        <time>2022-09-04T11:21:04Z</time>
      </trkpt>
      <trkpt lat="42.85349" lon="0.96407">
        <ele>1749.26</ele>
        <time>2022-09-04T11:21:30Z</time>
      </trkpt>
      <trkpt lat="42.85344" lon="0.96414">
        <ele>1748.78</ele>
        <time>2022-09-04T11:21:46Z</time>
      </trkpt>
      <trkpt lat="42.85345" lon="0.96416">
        <ele>1748.78</ele>
        <time>2022-09-04T11:22:03Z</time>
      </trkpt>
      <trkpt lat="42.85346" lon="0.96414">
        <ele>1748.78</ele>
        <time>2022-09-04T11:22:17Z</time>
      </trkpt>
      <trkpt lat="42.85345" lon="0.9641">
        <ele>1748.78</ele>
        <time>2022-09-04T11:22:37Z</time>
      </trkpt>
      <trkpt lat="42.85336" lon="0.96418">
        <ele>1748.29</ele>
        <time>2022-09-04T11:22:51Z</time>
      </trkpt>
      <trkpt lat="42.85329" lon="0.96427">
        <ele>1748.78</ele>
        <time>2022-09-04T11:23:03Z</time>
      </trkpt>
      <trkpt lat="42.85327" lon="0.96429">
        <ele>1748.78</ele>
        <time>2022-09-04T11:23:06Z</time>
      </trkpt>
      <trkpt lat="42.85323" lon="0.96433">
        <ele>1749.74</ele>
        <time>2022-09-04T11:23:13Z</time>
      </trkpt>
      <trkpt lat="42.85321" lon="0.96445">
        <ele>1752.14</ele>
        <time>2022-09-04T11:23:29Z</time>
      </trkpt>
      <trkpt lat="42.85323" lon="0.96443">
        <ele>1752.62</ele>
        <time>2022-09-04T11:23:44Z</time>
      </trkpt>
      <trkpt lat="42.85325" lon="0.96441">
        <ele>1753.1</ele>
        <time>2022-09-04T11:24:00Z</time>
      </trkpt>
      <trkpt lat="42.85325" lon="0.96439">
        <ele>1749.74</ele>
        <time>2022-09-04T11:24:02Z</time>
      </trkpt>
      <trkpt lat="42.85324" lon="0.96441">
        <ele>1752.14</ele>
        <time>2022-09-04T11:24:21Z</time>
      </trkpt>
      <trkpt lat="42.85324" lon="0.96439">
        <ele>1752.62</ele>
        <time>2022-09-04T11:24:54Z</time>
      </trkpt>
      <trkpt lat="42.85325" lon="0.96439">
        <ele>1752.62</ele>
        <time>2022-09-04T11:25:09Z</time>
      </trkpt>
      <trkpt lat="42.85325" lon="0.96438">
        <ele>1752.62</ele>
        <time>2022-09-04T11:25:37Z</time>
      </trkpt>
      <trkpt lat="42.85326" lon="0.96438">
        <ele>1752.62</ele>
        <time>2022-09-04T11:26:04Z</time>
      </trkpt>
      <trkpt lat="42.85327" lon="0.96439">
        <ele>1752.62</ele>
        <time>2022-09-04T11:26:29Z</time>
      </trkpt>
      <trkpt lat="42.85329" lon="0.96431">
        <ele>1751.66</ele>
        <time>2022-09-04T11:26:47Z</time>
      </trkpt>
      <trkpt lat="42.8533" lon="0.9642">
        <ele>1749.26</ele>
        <time>2022-09-04T11:27:03Z</time>
      </trkpt>
      <trkpt lat="42.85336" lon="0.96408">
        <ele>1747.81</ele>
        <time>2022-09-04T11:27:20Z</time>
      </trkpt>
      <trkpt lat="42.85336" lon="0.96405">
        <ele>1747.33</ele>
        <time>2022-09-04T11:27:38Z</time>
      </trkpt>
      <trkpt lat="42.85336" lon="0.96401">
        <ele>1747.33</ele>
        <time>2022-09-04T11:27:57Z</time>
      </trkpt>
      <trkpt lat="42.85333" lon="0.96396">
        <ele>1745.41</ele>
        <time>2022-09-04T11:28:14Z</time>
      </trkpt>
      <trkpt lat="42.85333" lon="0.96397">
        <ele>1744.93</ele>
        <time>2022-09-04T11:28:55Z</time>
      </trkpt>
      <trkpt lat="42.85332" lon="0.96398">
        <ele>1744.93</ele>
        <time>2022-09-04T11:29:38Z</time>
      </trkpt>
      <trkpt lat="42.85339" lon="0.96385">
        <ele>1744.93</ele>
        <time>2022-09-04T11:30:30Z</time>
      </trkpt>
      <trkpt lat="42.85346" lon="0.96375">
        <ele>1744.45</ele>
        <time>2022-09-04T11:30:47Z</time>
      </trkpt>
      <trkpt lat="42.85352" lon="0.9637">
        <ele>1744.45</ele>
        <time>2022-09-04T11:30:57Z</time>
      </trkpt>
      <trkpt lat="42.85359" lon="0.96366">
        <ele>1744.45</ele>
        <time>2022-09-04T11:31:09Z</time>
      </trkpt>
      <trkpt lat="42.85361" lon="0.96367">
        <ele>1744.45</ele>
        <time>2022-09-04T11:31:23Z</time>
      </trkpt>
      <trkpt lat="42.85362" lon="0.96368">
        <ele>1743.01</ele>
        <time>2022-09-04T11:31:37Z</time>
      </trkpt>
      <trkpt lat="42.85363" lon="0.9637">
        <ele>1742.05</ele>
        <time>2022-09-04T11:31:56Z</time>
      </trkpt>
      <trkpt lat="42.85364" lon="0.96375">
        <ele>1742.05</ele>
        <time>2022-09-04T11:32:11Z</time>
      </trkpt>
      <trkpt lat="42.85365" lon="0.96373">
        <ele>1742.05</ele>
        <time>2022-09-04T11:32:29Z</time>
      </trkpt>
      <trkpt lat="42.85366" lon="0.96373">
        <ele>1742.05</ele>
        <time>2022-09-04T11:32:50Z</time>
      </trkpt>
      <trkpt lat="42.85365" lon="0.96372">
        <ele>1742.05</ele>
        <time>2022-09-04T11:33:06Z</time>
      </trkpt>
      <trkpt lat="42.85368" lon="0.96372">
        <ele>1742.05</ele>
        <time>2022-09-04T11:33:41Z</time>
      </trkpt>
      <trkpt lat="42.85366" lon="0.96374">
        <ele>1742.05</ele>
        <time>2022-09-04T11:34:03Z</time>
      </trkpt>
      <trkpt lat="42.85365" lon="0.96372">
        <ele>1741.57</ele>
        <time>2022-09-04T11:34:27Z</time>
      </trkpt>
      <trkpt lat="42.85366" lon="0.96372">
        <ele>1742.05</ele>
        <time>2022-09-04T11:34:54Z</time>
      </trkpt>
      <trkpt lat="42.85366" lon="0.96374">
        <ele>1742.05</ele>
        <time>2022-09-04T11:35:18Z</time>
      </trkpt>
      <trkpt lat="42.85368" lon="0.96373">
        <ele>1742.05</ele>
        <time>2022-09-04T11:35:54Z</time>
      </trkpt>
      <trkpt lat="42.85367" lon="0.96372">
        <ele>1742.05</ele>
        <time>2022-09-04T11:36:28Z</time>
      </trkpt>
      <trkpt lat="42.85365" lon="0.96374">
        <ele>1742.05</ele>
        <time>2022-09-04T11:37:03Z</time>
      </trkpt>
      <trkpt lat="42.85365" lon="0.96373">
        <ele>1742.05</ele>
        <time>2022-09-04T11:37:39Z</time>
      </trkpt>
      <trkpt lat="42.85364" lon="0.96372">
        <ele>1742.05</ele>
        <time>2022-09-04T11:38:16Z</time>
      </trkpt>
      <trkpt lat="42.85367" lon="0.96373">
        <ele>1742.05</ele>
        <time>2022-09-04T11:38:52Z</time>
      </trkpt>
      <trkpt lat="42.85367" lon="0.96374">
        <ele>1742.53</ele>
        <time>2022-09-04T11:39:24Z</time>
      </trkpt>
      <trkpt lat="42.85371" lon="0.96372">
        <ele>1742.53</ele>
        <time>2022-09-04T11:39:58Z</time>
      </trkpt>
      <trkpt lat="42.8537" lon="0.96371">
        <ele>1742.53</ele>
        <time>2022-09-04T11:41:18Z</time>
      </trkpt>
      <trkpt lat="42.85369" lon="0.96373">
        <ele>1743.01</ele>
        <time>2022-09-04T11:42:02Z</time>
      </trkpt>
      <trkpt lat="42.85367" lon="0.96374">
        <ele>1743.01</ele>
        <time>2022-09-04T11:42:46Z</time>
      </trkpt>
      <trkpt lat="42.85368" lon="0.96373">
        <ele>1743.01</ele>
        <time>2022-09-04T11:43:17Z</time>
      </trkpt>
      <trkpt lat="42.85368" lon="0.96372">
        <ele>1743.01</ele>
        <time>2022-09-04T11:43:58Z</time>
      </trkpt>
      <trkpt lat="42.85369" lon="0.96373">
        <ele>1743.01</ele>
        <time>2022-09-04T11:44:25Z</time>
      </trkpt>
      <trkpt lat="42.85367" lon="0.96374">
        <ele>1743.01</ele>
        <time>2022-09-04T11:44:55Z</time>
      </trkpt>
      <trkpt lat="42.85366" lon="0.96373">
        <ele>1743.01</ele>
        <time>2022-09-04T11:45:28Z</time>
      </trkpt>
      <trkpt lat="42.85369" lon="0.96373">
        <ele>1743.49</ele>
        <time>2022-09-04T11:46:08Z</time>
      </trkpt>
      <trkpt lat="42.85369" lon="0.96374">
        <ele>1744.45</ele>
        <time>2022-09-04T11:46:26Z</time>
      </trkpt>
      <trkpt lat="42.85367" lon="0.96374">
        <ele>1744.45</ele>
        <time>2022-09-04T11:47:07Z</time>
      </trkpt>
      <trkpt lat="42.8537" lon="0.96373">
        <ele>1744.45</ele>
        <time>2022-09-04T11:47:42Z</time>
      </trkpt>
      <trkpt lat="42.85372" lon="0.96372">
        <ele>1744.45</ele>
        <time>2022-09-04T11:48:23Z</time>
      </trkpt>
      <trkpt lat="42.85369" lon="0.96373">
        <ele>1744.93</ele>
        <time>2022-09-04T11:49:06Z</time>
      </trkpt>
      <trkpt lat="42.85371" lon="0.96374">
        <ele>1744.93</ele>
        <time>2022-09-04T11:49:38Z</time>
      </trkpt>
      <trkpt lat="42.85367" lon="0.96374">
        <ele>1744.93</ele>
        <time>2022-09-04T11:50:13Z</time>
      </trkpt>
      <trkpt lat="42.85369" lon="0.96375">
        <ele>1744.93</ele>
        <time>2022-09-04T11:50:49Z</time>
      </trkpt>
      <trkpt lat="42.85369" lon="0.96374">
        <ele>1745.41</ele>
        <time>2022-09-04T11:51:26Z</time>
      </trkpt>
      <trkpt lat="42.85369" lon="0.96375">
        <ele>1745.41</ele>
        <time>2022-09-04T11:53:07Z</time>
      </trkpt>
      <trkpt lat="42.8537" lon="0.96373">
        <ele>1745.89</ele>
        <time>2022-09-04T11:53:38Z</time>
      </trkpt>
      <trkpt lat="42.85372" lon="0.96374">
        <ele>1745.89</ele>
        <time>2022-09-04T11:54:15Z</time>
      </trkpt>
      <trkpt lat="42.8537" lon="0.96375">
        <ele>1745.89</ele>
        <time>2022-09-04T11:54:50Z</time>
      </trkpt>
      <trkpt lat="42.85368" lon="0.96375">
        <ele>1745.89</ele>
        <time>2022-09-04T11:55:18Z</time>
      </trkpt>
      <trkpt lat="42.85371" lon="0.96373">
        <ele>1745.89</ele>
        <time>2022-09-04T11:55:51Z</time>
      </trkpt>
      <trkpt lat="42.8537" lon="0.96374">
        <ele>1746.37</ele>
        <time>2022-09-04T11:57:00Z</time>
      </trkpt>
      <trkpt lat="42.85369" lon="0.96375">
        <ele>1746.37</ele>
        <time>2022-09-04T11:58:00Z</time>
      </trkpt>
      <trkpt lat="42.85371" lon="0.96374">
        <ele>1746.37</ele>
        <time>2022-09-04T11:58:38Z</time>
      </trkpt>
      <trkpt lat="42.85372" lon="0.96374">
        <ele>1746.37</ele>
        <time>2022-09-04T11:59:20Z</time>
      </trkpt>
      <trkpt lat="42.85371" lon="0.96374">
        <ele>1746.85</ele>
        <time>2022-09-04T11:59:57Z</time>
      </trkpt>
      <trkpt lat="42.85372" lon="0.96374">
        <ele>1746.85</ele>
        <time>2022-09-04T12:00:29Z</time>
      </trkpt>
      <trkpt lat="42.85371" lon="0.96374">
        <ele>1746.85</ele>
        <time>2022-09-04T12:01:42Z</time>
      </trkpt>
      <trkpt lat="42.85367" lon="0.96375">
        <ele>1745.89</ele>
        <time>2022-09-04T12:02:20Z</time>
      </trkpt>
      <trkpt lat="42.85366" lon="0.96374">
        <ele>1745.89</ele>
        <time>2022-09-04T12:03:23Z</time>
      </trkpt>
      <trkpt lat="42.85366" lon="0.96375">
        <ele>1745.41</ele>
        <time>2022-09-04T12:04:34Z</time>
      </trkpt>
      <trkpt lat="42.85366" lon="0.96374">
        <ele>1745.41</ele>
        <time>2022-09-04T12:06:12Z</time>
      </trkpt>
      <trkpt lat="42.85369" lon="0.96375">
        <ele>1745.41</ele>
        <time>2022-09-04T12:06:48Z</time>
      </trkpt>
      <trkpt lat="42.85366" lon="0.96374">
        <ele>1745.41</ele>
        <time>2022-09-04T12:07:24Z</time>
      </trkpt>
      <trkpt lat="42.85364" lon="0.96373">
        <ele>1745.41</ele>
        <time>2022-09-04T12:07:54Z</time>
      </trkpt>
      <trkpt lat="42.85363" lon="0.96373">
        <ele>1745.41</ele>
        <time>2022-09-04T12:08:22Z</time>
      </trkpt>
      <trkpt lat="42.85362" lon="0.96372">
        <ele>1745.41</ele>
        <time>2022-09-04T12:08:49Z</time>
      </trkpt>
      <trkpt lat="42.85363" lon="0.96372">
        <ele>1745.41</ele>
        <time>2022-09-04T12:09:19Z</time>
      </trkpt>
      <trkpt lat="42.85362" lon="0.96372">
        <ele>1745.41</ele>
        <time>2022-09-04T12:09:50Z</time>
      </trkpt>
      <trkpt lat="42.85363" lon="0.96372">
        <ele>1745.41</ele>
        <time>2022-09-04T12:10:16Z</time>
      </trkpt>
      <trkpt lat="42.85362" lon="0.96372">
        <ele>1744.93</ele>
        <time>2022-09-04T12:10:39Z</time>
      </trkpt>
      <trkpt lat="42.85361" lon="0.96371">
        <ele>1744.93</ele>
        <time>2022-09-04T12:11:08Z</time>
      </trkpt>
      <trkpt lat="42.85362" lon="0.96372">
        <ele>1744.93</ele>
        <time>2022-09-04T12:11:38Z</time>
      </trkpt>
      <trkpt lat="42.85363" lon="0.96372">
        <ele>1744.93</ele>
        <time>2022-09-04T12:12:04Z</time>
      </trkpt>
      <trkpt lat="42.85363" lon="0.96373">
        <ele>1744.93</ele>
        <time>2022-09-04T12:12:38Z</time>
      </trkpt>
      <trkpt lat="42.85363" lon="0.96374">
        <ele>1744.93</ele>
        <time>2022-09-04T12:13:30Z</time>
      </trkpt>
      <trkpt lat="42.85362" lon="0.96374">
        <ele>1744.93</ele>
        <time>2022-09-04T12:14:03Z</time>
      </trkpt>
      <trkpt lat="42.85362" lon="0.96375">
        <ele>1744.93</ele>
        <time>2022-09-04T12:14:22Z</time>
      </trkpt>
      <trkpt lat="42.85361" lon="0.96374">
        <ele>1744.93</ele>
        <time>2022-09-04T12:14:51Z</time>
      </trkpt>
      <trkpt lat="42.85365" lon="0.96376">
        <ele>1744.93</ele>
        <time>2022-09-04T12:15:25Z</time>
      </trkpt>
      <trkpt lat="42.85366" lon="0.96376">
        <ele>1744.45</ele>
        <time>2022-09-04T12:16:09Z</time>
      </trkpt>
      <trkpt lat="42.85365" lon="0.96376">
        <ele>1743.97</ele>
        <time>2022-09-04T12:18:01Z</time>
      </trkpt>
      <trkpt lat="42.85364" lon="0.96376">
        <ele>1743.97</ele>
        <time>2022-09-04T12:18:42Z</time>
      </trkpt>
      <trkpt lat="42.85363" lon="0.96376">
        <ele>1743.97</ele>
        <time>2022-09-04T12:19:44Z</time>
      </trkpt>
      <trkpt lat="42.85364" lon="0.96377">
        <ele>1743.97</ele>
        <time>2022-09-04T12:20:43Z</time>
      </trkpt>
      <trkpt lat="42.85364" lon="0.96376">
        <ele>1744.93</ele>
        <time>2022-09-04T12:22:46Z</time>
      </trkpt>
      <trkpt lat="42.85366" lon="0.96373">
        <ele>1743.97</ele>
        <time>2022-09-04T12:23:15Z</time>
      </trkpt>
      <trkpt lat="42.85366" lon="0.96374">
        <ele>1743.97</ele>
        <time>2022-09-04T12:23:16Z</time>
      </trkpt>
      <trkpt lat="42.8537" lon="0.96374">
        <ele>1742.53</ele>
        <time>2022-09-04T12:23:30Z</time>
      </trkpt>
      <trkpt lat="42.85374" lon="0.96372">
        <ele>1741.08</ele>
        <time>2022-09-04T12:23:41Z</time>
      </trkpt>
      <trkpt lat="42.85373" lon="0.96363">
        <ele>1738.2</ele>
        <time>2022-09-04T12:23:55Z</time>
      </trkpt>
      <trkpt lat="42.85377" lon="0.96358">
        <ele>1735.32</ele>
        <time>2022-09-04T12:24:10Z</time>
      </trkpt>
      <trkpt lat="42.85378" lon="0.96355">
        <ele>1734.36</ele>
        <time>2022-09-04T12:24:29Z</time>
      </trkpt>
      <trkpt lat="42.85378" lon="0.96356">
        <ele>1734.36</ele>
        <time>2022-09-04T12:25:45Z</time>
      </trkpt>
      <trkpt lat="42.85379" lon="0.96355">
        <ele>1733.39</ele>
        <time>2022-09-04T12:26:23Z</time>
      </trkpt>
      <trkpt lat="42.85377" lon="0.96358">
        <ele>1733.39</ele>
        <time>2022-09-04T12:26:54Z</time>
      </trkpt>
      <trkpt lat="42.85379" lon="0.96357">
        <ele>1732.91</ele>
        <time>2022-09-04T12:27:53Z</time>
      </trkpt>
      <trkpt lat="42.85377" lon="0.96357">
        <ele>1732.43</ele>
        <time>2022-09-04T12:28:14Z</time>
      </trkpt>
      <trkpt lat="42.85378" lon="0.96356">
        <ele>1732.43</ele>
        <time>2022-09-04T12:28:44Z</time>
      </trkpt>
      <trkpt lat="42.85377" lon="0.96358">
        <ele>1731.95</ele>
        <time>2022-09-04T12:29:23Z</time>
      </trkpt>
      <trkpt lat="42.85376" lon="0.96359">
        <ele>1731.95</ele>
        <time>2022-09-04T12:29:58Z</time>
      </trkpt>
      <trkpt lat="42.85375" lon="0.96359">
        <ele>1731.95</ele>
        <time>2022-09-04T12:30:38Z</time>
      </trkpt>
      <trkpt lat="42.85374" lon="0.96359">
        <ele>1732.91</ele>
        <time>2022-09-04T12:31:52Z</time>
      </trkpt>
      <trkpt lat="42.85375" lon="0.96357">
        <ele>1732.91</ele>
        <time>2022-09-04T12:33:07Z</time>
      </trkpt>
      <trkpt lat="42.85375" lon="0.96358">
        <ele>1731.47</ele>
        <time>2022-09-04T12:34:26Z</time>
      </trkpt>
      <trkpt lat="42.85377" lon="0.96358">
        <ele>1732.43</ele>
        <time>2022-09-04T12:35:06Z</time>
      </trkpt>
      <trkpt lat="42.85378" lon="0.96359">
        <ele>1732.43</ele>
        <time>2022-09-04T12:35:54Z</time>
      </trkpt>
      <trkpt lat="42.85378" lon="0.9636">
        <ele>1732.43</ele>
        <time>2022-09-04T12:36:43Z</time>
      </trkpt>
      <trkpt lat="42.85379" lon="0.96358">
        <ele>1732.91</ele>
        <time>2022-09-04T12:37:26Z</time>
      </trkpt>
      <trkpt lat="42.85378" lon="0.96357">
        <ele>1732.91</ele>
        <time>2022-09-04T12:37:51Z</time>
      </trkpt>
      <trkpt lat="42.85378" lon="0.96358">
        <ele>1732.43</ele>
        <time>2022-09-04T12:38:10Z</time>
      </trkpt>
      <trkpt lat="42.85378" lon="0.96359">
        <ele>1731.47</ele>
        <time>2022-09-04T12:38:45Z</time>
      </trkpt>
      <trkpt lat="42.85379" lon="0.96358">
        <ele>1730.99</ele>
        <time>2022-09-04T12:39:38Z</time>
      </trkpt>
      <trkpt lat="42.85379" lon="0.96356">
        <ele>1730.99</ele>
        <time>2022-09-04T12:40:00Z</time>
      </trkpt>
      <trkpt lat="42.85379" lon="0.96357">
        <ele>1730.99</ele>
        <time>2022-09-04T12:40:26Z</time>
      </trkpt>
      <trkpt lat="42.85378" lon="0.96357">
        <ele>1730.99</ele>
        <time>2022-09-04T12:41:06Z</time>
      </trkpt>
      <trkpt lat="42.85377" lon="0.96358">
        <ele>1731.47</ele>
        <time>2022-09-04T12:41:36Z</time>
      </trkpt>
      <trkpt lat="42.85378" lon="0.96358">
        <ele>1731.47</ele>
        <time>2022-09-04T12:42:14Z</time>
      </trkpt>
      <trkpt lat="42.85379" lon="0.96357">
        <ele>1731.47</ele>
        <time>2022-09-04T12:42:47Z</time>
      </trkpt>
      <trkpt lat="42.85379" lon="0.96356">
        <ele>1730.51</ele>
        <time>2022-09-04T12:43:58Z</time>
      </trkpt>
      <trkpt lat="42.85379" lon="0.96357">
        <ele>1730.51</ele>
        <time>2022-09-04T12:45:11Z</time>
      </trkpt>
      <trkpt lat="42.85378" lon="0.96357">
        <ele>1730.03</ele>
        <time>2022-09-04T12:47:04Z</time>
      </trkpt>
      <trkpt lat="42.85378" lon="0.96358">
        <ele>1730.03</ele>
        <time>2022-09-04T12:47:41Z</time>
      </trkpt>
      <trkpt lat="42.85378" lon="0.9636">
        <ele>1729.55</ele>
        <time>2022-09-04T12:49:20Z</time>
      </trkpt>
      <trkpt lat="42.85378" lon="0.96356">
        <ele>1730.51</ele>
        <time>2022-09-04T12:50:28Z</time>
      </trkpt>
      <trkpt lat="42.85379" lon="0.96356">
        <ele>1730.51</ele>
        <time>2022-09-04T12:50:45Z</time>
      </trkpt>
      <trkpt lat="42.8538" lon="0.96356">
        <ele>1730.99</ele>
        <time>2022-09-04T12:51:08Z</time>
      </trkpt>
      <trkpt lat="42.85379" lon="0.96356">
        <ele>1730.99</ele>
        <time>2022-09-04T12:51:34Z</time>
      </trkpt>
      <trkpt lat="42.8538" lon="0.96356">
        <ele>1731.47</ele>
        <time>2022-09-04T12:52:01Z</time>
      </trkpt>
      <trkpt lat="42.85381" lon="0.96353">
        <ele>1730.51</ele>
        <time>2022-09-04T12:52:19Z</time>
      </trkpt>
      <trkpt lat="42.85382" lon="0.96351">
        <ele>1728.11</ele>
        <time>2022-09-04T12:52:37Z</time>
      </trkpt>
      <trkpt lat="42.85384" lon="0.96342">
        <ele>1725.22</ele>
        <time>2022-09-04T12:52:55Z</time>
      </trkpt>
      <trkpt lat="42.85386" lon="0.96335">
        <ele>1722.34</ele>
        <time>2022-09-04T12:53:11Z</time>
      </trkpt>
      <trkpt lat="42.85388" lon="0.96329">
        <ele>1719.46</ele>
        <time>2022-09-04T12:53:26Z</time>
      </trkpt>
      <trkpt lat="42.85393" lon="0.96322">
        <ele>1716.09</ele>
        <time>2022-09-04T12:53:40Z</time>
      </trkpt>
      <trkpt lat="42.85396" lon="0.96316">
        <ele>1713.69</ele>
        <time>2022-09-04T12:53:56Z</time>
      </trkpt>
      <trkpt lat="42.85396" lon="0.96309">
        <ele>1710.32</ele>
        <time>2022-09-04T12:54:06Z</time>
      </trkpt>
      <trkpt lat="42.85396" lon="0.963">
        <ele>1707.92</ele>
        <time>2022-09-04T12:54:15Z</time>
      </trkpt>
      <trkpt lat="42.85397" lon="0.96298">
        <ele>1706.96</ele>
        <time>2022-09-04T12:54:18Z</time>
      </trkpt>
      <trkpt lat="42.85396" lon="0.9629">
        <ele>1704.07</ele>
        <time>2022-09-04T12:54:32Z</time>
      </trkpt>
      <trkpt lat="42.85396" lon="0.96282">
        <ele>1700.71</ele>
        <time>2022-09-04T12:54:43Z</time>
      </trkpt>
      <trkpt lat="42.85395" lon="0.96274">
        <ele>1698.79</ele>
        <time>2022-09-04T12:54:57Z</time>
      </trkpt>
      <trkpt lat="42.85393" lon="0.96262">
        <ele>1695.42</ele>
        <time>2022-09-04T12:55:13Z</time>
      </trkpt>
      <trkpt lat="42.85389" lon="0.9625">
        <ele>1692.54</ele>
        <time>2022-09-04T12:55:29Z</time>
      </trkpt>
      <trkpt lat="42.85387" lon="0.96242">
        <ele>1689.17</ele>
        <time>2022-09-04T12:55:39Z</time>
      </trkpt>
      <trkpt lat="42.85385" lon="0.96229">
        <ele>1685.81</ele>
        <time>2022-09-04T12:55:54Z</time>
      </trkpt>
      <trkpt lat="42.85384" lon="0.9622">
        <ele>1682.93</ele>
        <time>2022-09-04T12:56:07Z</time>
      </trkpt>
      <trkpt lat="42.85384" lon="0.96211">
        <ele>1680.52</ele>
        <time>2022-09-04T12:56:21Z</time>
      </trkpt>
      <trkpt lat="42.85387" lon="0.96206">
        <ele>1677.64</ele>
        <time>2022-09-04T12:56:31Z</time>
      </trkpt>
      <trkpt lat="42.85385" lon="0.96195">
        <ele>1675.23</ele>
        <time>2022-09-04T12:56:46Z</time>
      </trkpt>
      <trkpt lat="42.85381" lon="0.96189">
        <ele>1674.75</ele>
        <time>2022-09-04T12:56:56Z</time>
      </trkpt>
      <trkpt lat="42.85372" lon="0.96175">
        <ele>1672.83</ele>
        <time>2022-09-04T12:57:14Z</time>
      </trkpt>
      <trkpt lat="42.85365" lon="0.9616">
        <ele>1674.27</ele>
        <time>2022-09-04T12:57:29Z</time>
      </trkpt>
      <trkpt lat="42.85364" lon="0.96159">
        <ele>1672.83</ele>
        <time>2022-09-04T12:57:31Z</time>
      </trkpt>
      <trkpt lat="42.85362" lon="0.96157">
        <ele>1671.87</ele>
        <time>2022-09-04T12:57:34Z</time>
      </trkpt>
      <trkpt lat="42.85358" lon="0.9615">
        <ele>1670.43</ele>
        <time>2022-09-04T12:57:41Z</time>
      </trkpt>
      <trkpt lat="42.85357" lon="0.96148">
        <ele>1668.99</ele>
        <time>2022-09-04T12:57:43Z</time>
      </trkpt>
      <trkpt lat="42.85355" lon="0.96143">
        <ele>1669.95</ele>
        <time>2022-09-04T12:57:49Z</time>
      </trkpt>
      <trkpt lat="42.85353" lon="0.96137">
        <ele>1668.02</ele>
        <time>2022-09-04T12:57:54Z</time>
      </trkpt>
      <trkpt lat="42.85351" lon="0.96134">
        <ele>1665.62</ele>
        <time>2022-09-04T12:57:59Z</time>
      </trkpt>
      <trkpt lat="42.85347" lon="0.96125">
        <ele>1664.66</ele>
        <time>2022-09-04T12:58:12Z</time>
      </trkpt>
      <trkpt lat="42.85345" lon="0.96115">
        <ele>1662.74</ele>
        <time>2022-09-04T12:58:22Z</time>
      </trkpt>
      <trkpt lat="42.85343" lon="0.96114">
        <ele>1661.3</ele>
        <time>2022-09-04T12:58:24Z</time>
      </trkpt>
      <trkpt lat="42.85337" lon="0.96101">
        <ele>1660.81</ele>
        <time>2022-09-04T12:58:39Z</time>
      </trkpt>
      <trkpt lat="42.85335" lon="0.96097">
        <ele>1659.85</ele>
        <time>2022-09-04T12:58:44Z</time>
      </trkpt>
      <trkpt lat="42.85335" lon="0.96092">
        <ele>1658.89</ele>
        <time>2022-09-04T12:58:50Z</time>
      </trkpt>
      <trkpt lat="42.8533" lon="0.96078">
        <ele>1656.97</ele>
        <time>2022-09-04T12:59:05Z</time>
      </trkpt>
      <trkpt lat="42.85329" lon="0.96069">
        <ele>1653.6</ele>
        <time>2022-09-04T12:59:15Z</time>
      </trkpt>
      <trkpt lat="42.85329" lon="0.9607">
        <ele>1652.64</ele>
        <time>2022-09-04T12:59:17Z</time>
      </trkpt>
      <trkpt lat="42.85328" lon="0.96068">
        <ele>1655.05</ele>
        <time>2022-09-04T12:59:20Z</time>
      </trkpt>
      <trkpt lat="42.85328" lon="0.96066">
        <ele>1653.6</ele>
        <time>2022-09-04T12:59:22Z</time>
      </trkpt>
      <trkpt lat="42.85322" lon="0.96052">
        <ele>1650.72</ele>
        <time>2022-09-04T12:59:35Z</time>
      </trkpt>
      <trkpt lat="42.85314" lon="0.96034">
        <ele>1647.36</ele>
        <time>2022-09-04T12:59:51Z</time>
      </trkpt>
      <trkpt lat="42.85312" lon="0.96021">
        <ele>1644.95</ele>
        <time>2022-09-04T13:00:05Z</time>
      </trkpt>
      <trkpt lat="42.85312" lon="0.96011">
        <ele>1643.03</ele>
        <time>2022-09-04T13:00:18Z</time>
      </trkpt>
      <trkpt lat="42.85311" lon="0.96004">
        <ele>1640.63</ele>
        <time>2022-09-04T13:00:24Z</time>
      </trkpt>
      <trkpt lat="42.85301" lon="0.95992">
        <ele>1638.22</ele>
        <time>2022-09-04T13:00:39Z</time>
      </trkpt>
      <trkpt lat="42.85295" lon="0.95975">
        <ele>1635.34</ele>
        <time>2022-09-04T13:00:55Z</time>
      </trkpt>
      <trkpt lat="42.85292" lon="0.95964">
        <ele>1633.9</ele>
        <time>2022-09-04T13:01:08Z</time>
      </trkpt>
      <trkpt lat="42.85282" lon="0.95946">
        <ele>1632.94</ele>
        <time>2022-09-04T13:01:23Z</time>
      </trkpt>
      <trkpt lat="42.8528" lon="0.95941">
        <ele>1631.98</ele>
        <time>2022-09-04T13:01:28Z</time>
      </trkpt>
      <trkpt lat="42.85276" lon="0.95929">
        <ele>1631.49</ele>
        <time>2022-09-04T13:01:39Z</time>
      </trkpt>
      <trkpt lat="42.85274" lon="0.9591">
        <ele>1630.05</ele>
        <time>2022-09-04T13:01:53Z</time>
      </trkpt>
      <trkpt lat="42.85273" lon="0.95889">
        <ele>1627.65</ele>
        <time>2022-09-04T13:02:09Z</time>
      </trkpt>
      <trkpt lat="42.85271" lon="0.95871">
        <ele>1626.21</ele>
        <time>2022-09-04T13:02:24Z</time>
      </trkpt>
      <trkpt lat="42.85271" lon="0.95868">
        <ele>1626.21</ele>
        <time>2022-09-04T13:02:26Z</time>
      </trkpt>
      <trkpt lat="42.85269" lon="0.95851">
        <ele>1624.28</ele>
        <time>2022-09-04T13:02:43Z</time>
      </trkpt>
      <trkpt lat="42.85268" lon="0.95846">
        <ele>1621.4</ele>
        <time>2022-09-04T13:02:51Z</time>
      </trkpt>
      <trkpt lat="42.85267" lon="0.95843">
        <ele>1621.88</ele>
        <time>2022-09-04T13:02:59Z</time>
      </trkpt>
      <trkpt lat="42.85269" lon="0.95851">
        <ele>1623.8</ele>
        <time>2022-09-04T13:03:09Z</time>
      </trkpt>
      <trkpt lat="42.85264" lon="0.95859">
        <ele>1622.84</ele>
        <time>2022-09-04T13:03:20Z</time>
      </trkpt>
      <trkpt lat="42.85261" lon="0.95862">
        <ele>1619.96</ele>
        <time>2022-09-04T13:03:28Z</time>
      </trkpt>
      <trkpt lat="42.85259" lon="0.95864">
        <ele>1620.92</ele>
        <time>2022-09-04T13:03:36Z</time>
      </trkpt>
      <trkpt lat="42.85258" lon="0.95865">
        <ele>1618.04</ele>
        <time>2022-09-04T13:03:39Z</time>
      </trkpt>
      <trkpt lat="42.85256" lon="0.9587">
        <ele>1619.48</ele>
        <time>2022-09-04T13:03:50Z</time>
      </trkpt>
      <trkpt lat="42.85254" lon="0.95885">
        <ele>1620.44</ele>
        <time>2022-09-04T13:04:07Z</time>
      </trkpt>
      <trkpt lat="42.85252" lon="0.9589">
        <ele>1619</ele>
        <time>2022-09-04T13:04:17Z</time>
      </trkpt>
      <trkpt lat="42.85251" lon="0.95891">
        <ele>1620.44</ele>
        <time>2022-09-04T13:04:24Z</time>
      </trkpt>
      <trkpt lat="42.8525" lon="0.95891">
        <ele>1620.44</ele>
        <time>2022-09-04T13:04:44Z</time>
      </trkpt>
      <trkpt lat="42.85249" lon="0.95892">
        <ele>1619</ele>
        <time>2022-09-04T13:04:58Z</time>
      </trkpt>
      <trkpt lat="42.85247" lon="0.959">
        <ele>1618.52</ele>
        <time>2022-09-04T13:05:12Z</time>
      </trkpt>
      <trkpt lat="42.85246" lon="0.95904">
        <ele>1618.04</ele>
        <time>2022-09-04T13:05:27Z</time>
      </trkpt>
      <trkpt lat="42.85245" lon="0.95907">
        <ele>1617.56</ele>
        <time>2022-09-04T13:05:38Z</time>
      </trkpt>
      <trkpt lat="42.85244" lon="0.95912">
        <ele>1616.59</ele>
        <time>2022-09-04T13:05:54Z</time>
      </trkpt>
      <trkpt lat="42.85244" lon="0.95913">
        <ele>1616.59</ele>
        <time>2022-09-04T13:06:07Z</time>
      </trkpt>
      <trkpt lat="42.85244" lon="0.95915">
        <ele>1617.56</ele>
        <time>2022-09-04T13:06:11Z</time>
      </trkpt>
      <trkpt lat="42.85245" lon="0.9592">
        <ele>1618.52</ele>
        <time>2022-09-04T13:06:23Z</time>
      </trkpt>
      <trkpt lat="42.85247" lon="0.95922">
        <ele>1617.56</ele>
        <time>2022-09-04T13:06:37Z</time>
      </trkpt>
      <trkpt lat="42.85247" lon="0.9593">
        <ele>1617.07</ele>
        <time>2022-09-04T13:06:50Z</time>
      </trkpt>
      <trkpt lat="42.85245" lon="0.95933">
        <ele>1613.23</ele>
        <time>2022-09-04T13:07:01Z</time>
      </trkpt>
      <trkpt lat="42.85243" lon="0.95944">
        <ele>1612.27</ele>
        <time>2022-09-04T13:07:16Z</time>
      </trkpt>
      <trkpt lat="42.85242" lon="0.95946">
        <ele>1611.79</ele>
        <time>2022-09-04T13:07:19Z</time>
      </trkpt>
      <trkpt lat="42.85241" lon="0.95956">
        <ele>1611.31</ele>
        <time>2022-09-04T13:07:33Z</time>
      </trkpt>
      <trkpt lat="42.85239" lon="0.95957">
        <ele>1610.83</ele>
        <time>2022-09-04T13:07:51Z</time>
      </trkpt>
      <trkpt lat="42.85234" lon="0.95962">
        <ele>1609.38</ele>
        <time>2022-09-04T13:08:03Z</time>
      </trkpt>
      <trkpt lat="42.85231" lon="0.95966">
        <ele>1606.02</ele>
        <time>2022-09-04T13:08:13Z</time>
      </trkpt>
      <trkpt lat="42.85227" lon="0.95973">
        <ele>1603.62</ele>
        <time>2022-09-04T13:08:25Z</time>
      </trkpt>
      <trkpt lat="42.85222" lon="0.95979">
        <ele>1601.21</ele>
        <time>2022-09-04T13:08:38Z</time>
      </trkpt>
      <trkpt lat="42.85217" lon="0.95983">
        <ele>1598.33</ele>
        <time>2022-09-04T13:08:52Z</time>
      </trkpt>
      <trkpt lat="42.85216" lon="0.95982">
        <ele>1596.89</ele>
        <time>2022-09-04T13:09:07Z</time>
      </trkpt>
      <trkpt lat="42.85216" lon="0.95983">
        <ele>1599.29</ele>
        <time>2022-09-04T13:09:09Z</time>
      </trkpt>
      <trkpt lat="42.85216" lon="0.95984">
        <ele>1599.29</ele>
        <time>2022-09-04T13:09:20Z</time>
      </trkpt>
      <trkpt lat="42.85216" lon="0.95985">
        <ele>1598.81</ele>
        <time>2022-09-04T13:09:27Z</time>
      </trkpt>
      <trkpt lat="42.85209" lon="0.95988">
        <ele>1595.93</ele>
        <time>2022-09-04T13:09:41Z</time>
      </trkpt>
      <trkpt lat="42.85203" lon="0.95994">
        <ele>1593.04</ele>
        <time>2022-09-04T13:09:57Z</time>
      </trkpt>
      <trkpt lat="42.85197" lon="0.96001">
        <ele>1590.16</ele>
        <time>2022-09-04T13:10:11Z</time>
      </trkpt>
      <trkpt lat="42.85193" lon="0.96002">
        <ele>1588.24</ele>
        <time>2022-09-04T13:10:28Z</time>
      </trkpt>
      <trkpt lat="42.85188" lon="0.9601">
        <ele>1586.31</ele>
        <time>2022-09-04T13:10:43Z</time>
      </trkpt>
      <trkpt lat="42.85183" lon="0.96014">
        <ele>1582.95</ele>
        <time>2022-09-04T13:10:56Z</time>
      </trkpt>
      <trkpt lat="42.85177" lon="0.96023">
        <ele>1580.54</ele>
        <time>2022-09-04T13:11:12Z</time>
      </trkpt>
      <trkpt lat="42.85172" lon="0.96028">
        <ele>1577.18</ele>
        <time>2022-09-04T13:11:23Z</time>
      </trkpt>
      <trkpt lat="42.85166" lon="0.96035">
        <ele>1574.3</ele>
        <time>2022-09-04T13:11:38Z</time>
      </trkpt>
      <trkpt lat="42.85162" lon="0.96044">
        <ele>1572.37</ele>
        <time>2022-09-04T13:11:53Z</time>
      </trkpt>
      <trkpt lat="42.85158" lon="0.96049">
        <ele>1570.45</ele>
        <time>2022-09-04T13:12:05Z</time>
      </trkpt>
      <trkpt lat="42.85153" lon="0.96048">
        <ele>1568.05</ele>
        <time>2022-09-04T13:12:19Z</time>
      </trkpt>
      <trkpt lat="42.85153" lon="0.96034">
        <ele>1564.68</ele>
        <time>2022-09-04T13:12:32Z</time>
      </trkpt>
      <trkpt lat="42.8515" lon="0.96028">
        <ele>1562.76</ele>
        <time>2022-09-04T13:12:47Z</time>
      </trkpt>
      <trkpt lat="42.85145" lon="0.96024">
        <ele>1559.88</ele>
        <time>2022-09-04T13:13:01Z</time>
      </trkpt>
      <trkpt lat="42.85141" lon="0.96025">
        <ele>1557.95</ele>
        <time>2022-09-04T13:13:14Z</time>
      </trkpt>
      <trkpt lat="42.85139" lon="0.96027">
        <ele>1557.47</ele>
        <time>2022-09-04T13:13:28Z</time>
      </trkpt>
      <trkpt lat="42.85136" lon="0.96028">
        <ele>1556.03</ele>
        <time>2022-09-04T13:13:39Z</time>
      </trkpt>
      <trkpt lat="42.85135" lon="0.96026">
        <ele>1554.59</ele>
        <time>2022-09-04T13:13:54Z</time>
      </trkpt>
      <trkpt lat="42.8513" lon="0.96022">
        <ele>1551.71</ele>
        <time>2022-09-04T13:14:10Z</time>
      </trkpt>
      <trkpt lat="42.85125" lon="0.96026">
        <ele>1548.82</ele>
        <time>2022-09-04T13:14:24Z</time>
      </trkpt>
      <trkpt lat="42.85122" lon="0.9603">
        <ele>1548.34</ele>
        <time>2022-09-04T13:14:39Z</time>
      </trkpt>
      <trkpt lat="42.85118" lon="0.96035">
        <ele>1546.9</ele>
        <time>2022-09-04T13:14:56Z</time>
      </trkpt>
      <trkpt lat="42.85116" lon="0.96036">
        <ele>1545.94</ele>
        <time>2022-09-04T13:15:18Z</time>
      </trkpt>
      <trkpt lat="42.85111" lon="0.96038">
        <ele>1544.01</ele>
        <time>2022-09-04T13:15:37Z</time>
      </trkpt>
      <trkpt lat="42.85103" lon="0.96046">
        <ele>1541.13</ele>
        <time>2022-09-04T13:15:53Z</time>
      </trkpt>
      <trkpt lat="42.85094" lon="0.96055">
        <ele>1539.21</ele>
        <time>2022-09-04T13:16:11Z</time>
      </trkpt>
      <trkpt lat="42.85085" lon="0.96061">
        <ele>1537.29</ele>
        <time>2022-09-04T13:16:25Z</time>
      </trkpt>
      <trkpt lat="42.85073" lon="0.96069">
        <ele>1533.92</ele>
        <time>2022-09-04T13:16:44Z</time>
      </trkpt>
      <trkpt lat="42.8507" lon="0.96069">
        <ele>1532.48</ele>
        <time>2022-09-04T13:16:59Z</time>
      </trkpt>
      <trkpt lat="42.85071" lon="0.96064">
        <ele>1530.56</ele>
        <time>2022-09-04T13:17:18Z</time>
      </trkpt>
      <trkpt lat="42.85072" lon="0.96062">
        <ele>1530.08</ele>
        <time>2022-09-04T13:17:33Z</time>
      </trkpt>
      <trkpt lat="42.85072" lon="0.96059">
        <ele>1529.11</ele>
        <time>2022-09-04T13:17:50Z</time>
      </trkpt>
      <trkpt lat="42.8507" lon="0.9606">
        <ele>1528.63</ele>
        <time>2022-09-04T13:18:14Z</time>
      </trkpt>
      <trkpt lat="42.85068" lon="0.96058">
        <ele>1528.63</ele>
        <time>2022-09-04T13:18:41Z</time>
      </trkpt>
      <trkpt lat="42.85073" lon="0.96053">
        <ele>1528.63</ele>
        <time>2022-09-04T13:18:58Z</time>
      </trkpt>
      <trkpt lat="42.85082" lon="0.96034">
        <ele>1524.79</ele>
        <time>2022-09-04T13:19:15Z</time>
      </trkpt>
      <trkpt lat="42.85085" lon="0.96022">
        <ele>1521.9</ele>
        <time>2022-09-04T13:19:32Z</time>
      </trkpt>
      <trkpt lat="42.85084" lon="0.96014">
        <ele>1518.54</ele>
        <time>2022-09-04T13:19:47Z</time>
      </trkpt>
      <trkpt lat="42.85082" lon="0.96004">
        <ele>1514.69</ele>
        <time>2022-09-04T13:20:02Z</time>
      </trkpt>
      <trkpt lat="42.85082" lon="0.95997">
        <ele>1513.73</ele>
        <time>2022-09-04T13:20:07Z</time>
      </trkpt>
      <trkpt lat="42.85076" lon="0.95997">
        <ele>1511.33</ele>
        <time>2022-09-04T13:20:24Z</time>
      </trkpt>
      <trkpt lat="42.85072" lon="0.95996">
        <ele>1507.97</ele>
        <time>2022-09-04T13:20:38Z</time>
      </trkpt>
      <trkpt lat="42.85071" lon="0.95986">
        <ele>1506.52</ele>
        <time>2022-09-04T13:20:52Z</time>
      </trkpt>
      <trkpt lat="42.85072" lon="0.95972">
        <ele>1504.12</ele>
        <time>2022-09-04T13:21:07Z</time>
      </trkpt>
      <trkpt lat="42.85072" lon="0.95956">
        <ele>1501.72</ele>
        <time>2022-09-04T13:21:23Z</time>
      </trkpt>
      <trkpt lat="42.85073" lon="0.95941">
        <ele>1498.83</ele>
        <time>2022-09-04T13:21:38Z</time>
      </trkpt>
      <trkpt lat="42.85071" lon="0.95929">
        <ele>1496.43</ele>
        <time>2022-09-04T13:21:54Z</time>
      </trkpt>
      <trkpt lat="42.85072" lon="0.95917">
        <ele>1494.51</ele>
        <time>2022-09-04T13:22:08Z</time>
      </trkpt>
      <trkpt lat="42.8507" lon="0.95916">
        <ele>1493.55</ele>
        <time>2022-09-04T13:22:27Z</time>
      </trkpt>
      <trkpt lat="42.85066" lon="0.95918">
        <ele>1492.58</ele>
        <time>2022-09-04T13:22:39Z</time>
      </trkpt>
      <trkpt lat="42.85062" lon="0.95921">
        <ele>1490.18</ele>
        <time>2022-09-04T13:22:54Z</time>
      </trkpt>
      <trkpt lat="42.85057" lon="0.95921">
        <ele>1487.78</ele>
        <time>2022-09-04T13:23:09Z</time>
      </trkpt>
      <trkpt lat="42.85055" lon="0.95914">
        <ele>1485.37</ele>
        <time>2022-09-04T13:23:27Z</time>
      </trkpt>
      <trkpt lat="42.85051" lon="0.95912">
        <ele>1482.97</ele>
        <time>2022-09-04T13:23:39Z</time>
      </trkpt>
      <trkpt lat="42.85046" lon="0.9591">
        <ele>1481.05</ele>
        <time>2022-09-04T13:23:52Z</time>
      </trkpt>
      <trkpt lat="42.85042" lon="0.95911">
        <ele>1477.68</ele>
        <time>2022-09-04T13:24:03Z</time>
      </trkpt>
      <trkpt lat="42.8504" lon="0.95909">
        <ele>1476.72</ele>
        <time>2022-09-04T13:24:14Z</time>
      </trkpt>
      <trkpt lat="42.8504" lon="0.95902">
        <ele>1474.8</ele>
        <time>2022-09-04T13:24:26Z</time>
      </trkpt>
      <trkpt lat="42.85038" lon="0.95899">
        <ele>1472.88</ele>
        <time>2022-09-04T13:24:41Z</time>
      </trkpt>
      <trkpt lat="42.85037" lon="0.95897">
        <ele>1472.88</ele>
        <time>2022-09-04T13:24:51Z</time>
      </trkpt>
      <trkpt lat="42.85037" lon="0.9589">
        <ele>1471.92</ele>
        <time>2022-09-04T13:25:06Z</time>
      </trkpt>
      <trkpt lat="42.8504" lon="0.95887">
        <ele>1470.47</ele>
        <time>2022-09-04T13:25:09Z</time>
      </trkpt>
      <trkpt lat="42.8504" lon="0.95885">
        <ele>1472.4</ele>
        <time>2022-09-04T13:25:11Z</time>
      </trkpt>
      <trkpt lat="42.85041" lon="0.95879">
        <ele>1469.51</ele>
        <time>2022-09-04T13:25:19Z</time>
      </trkpt>
      <trkpt lat="42.85043" lon="0.95876">
        <ele>1472.88</ele>
        <time>2022-09-04T13:25:22Z</time>
      </trkpt>
      <trkpt lat="42.85045" lon="0.9587">
        <ele>1471.44</ele>
        <time>2022-09-04T13:25:25Z</time>
      </trkpt>
      <trkpt lat="42.85052" lon="0.95853">
        <ele>1469.99</ele>
        <time>2022-09-04T13:25:39Z</time>
      </trkpt>
      <trkpt lat="42.85057" lon="0.95833">
        <ele>1468.55</ele>
        <time>2022-09-04T13:25:55Z</time>
      </trkpt>
      <trkpt lat="42.85059" lon="0.95824">
        <ele>1465.19</ele>
        <time>2022-09-04T13:26:08Z</time>
      </trkpt>
      <trkpt lat="42.85059" lon="0.95825">
        <ele>1468.55</ele>
        <time>2022-09-04T13:26:09Z</time>
      </trkpt>
      <trkpt lat="42.85057" lon="0.95822">
        <ele>1467.11</ele>
        <time>2022-09-04T13:26:27Z</time>
      </trkpt>
      <trkpt lat="42.8506" lon="0.95812">
        <ele>1466.15</ele>
        <time>2022-09-04T13:26:36Z</time>
      </trkpt>
      <trkpt lat="42.85061" lon="0.95808">
        <ele>1465.67</ele>
        <time>2022-09-04T13:26:39Z</time>
      </trkpt>
      <trkpt lat="42.85064" lon="0.95794">
        <ele>1464.71</ele>
        <time>2022-09-04T13:26:51Z</time>
      </trkpt>
      <trkpt lat="42.8507" lon="0.95769">
        <ele>1461.34</ele>
        <time>2022-09-04T13:27:09Z</time>
      </trkpt>
      <trkpt lat="42.85076" lon="0.95742">
        <ele>1458.94</ele>
        <time>2022-09-04T13:27:28Z</time>
      </trkpt>
      <trkpt lat="42.85081" lon="0.95727">
        <ele>1457.02</ele>
        <time>2022-09-04T13:27:44Z</time>
      </trkpt>
      <trkpt lat="42.85082" lon="0.95721">
        <ele>1455.09</ele>
        <time>2022-09-04T13:27:50Z</time>
      </trkpt>
      <trkpt lat="42.85085" lon="0.95705">
        <ele>1453.17</ele>
        <time>2022-09-04T13:28:03Z</time>
      </trkpt>
      <trkpt lat="42.85089" lon="0.95679">
        <ele>1450.29</ele>
        <time>2022-09-04T13:28:23Z</time>
      </trkpt>
      <trkpt lat="42.85092" lon="0.95666">
        <ele>1449.32</ele>
        <time>2022-09-04T13:28:34Z</time>
      </trkpt>
      <trkpt lat="42.85094" lon="0.95649">
        <ele>1446.92</ele>
        <time>2022-09-04T13:28:51Z</time>
      </trkpt>
      <trkpt lat="42.85096" lon="0.95631">
        <ele>1444.52</ele>
        <time>2022-09-04T13:29:08Z</time>
      </trkpt>
      <trkpt lat="42.851" lon="0.95607">
        <ele>1441.63</ele>
        <time>2022-09-04T13:29:26Z</time>
      </trkpt>
      <trkpt lat="42.851" lon="0.95604">
        <ele>1440.67</ele>
        <time>2022-09-04T13:29:28Z</time>
      </trkpt>
      <trkpt lat="42.85102" lon="0.95594">
        <ele>1439.71</ele>
        <time>2022-09-04T13:29:36Z</time>
      </trkpt>
      <trkpt lat="42.85105" lon="0.95574">
        <ele>1436.83</ele>
        <time>2022-09-04T13:29:53Z</time>
      </trkpt>
      <trkpt lat="42.8511" lon="0.95553">
        <ele>1433.94</ele>
        <time>2022-09-04T13:30:11Z</time>
      </trkpt>
      <trkpt lat="42.85114" lon="0.95533">
        <ele>1431.54</ele>
        <time>2022-09-04T13:30:30Z</time>
      </trkpt>
      <trkpt lat="42.8512" lon="0.95517">
        <ele>1428.66</ele>
        <time>2022-09-04T13:30:47Z</time>
      </trkpt>
      <trkpt lat="42.85119" lon="0.95514">
        <ele>1427.7</ele>
        <time>2022-09-04T13:31:06Z</time>
      </trkpt>
      <trkpt lat="42.85123" lon="0.95501">
        <ele>1426.25</ele>
        <time>2022-09-04T13:31:22Z</time>
      </trkpt>
      <trkpt lat="42.85123" lon="0.95491">
        <ele>1424.81</ele>
        <time>2022-09-04T13:31:32Z</time>
      </trkpt>
      <trkpt lat="42.85126" lon="0.95472">
        <ele>1422.41</ele>
        <time>2022-09-04T13:31:49Z</time>
      </trkpt>
      <trkpt lat="42.85128" lon="0.95459">
        <ele>1420</ele>
        <time>2022-09-04T13:32:05Z</time>
      </trkpt>
      <trkpt lat="42.8513" lon="0.95455">
        <ele>1419.04</ele>
        <time>2022-09-04T13:32:21Z</time>
      </trkpt>
      <trkpt lat="42.85133" lon="0.95438">
        <ele>1417.12</ele>
        <time>2022-09-04T13:32:38Z</time>
      </trkpt>
      <trkpt lat="42.85134" lon="0.95413">
        <ele>1415.68</ele>
        <time>2022-09-04T13:32:56Z</time>
      </trkpt>
      <trkpt lat="42.85134" lon="0.95418">
        <ele>1415.2</ele>
        <time>2022-09-04T13:33:12Z</time>
      </trkpt>
      <trkpt lat="42.85134" lon="0.95422">
        <ele>1415.2</ele>
        <time>2022-09-04T13:33:51Z</time>
      </trkpt>
      <trkpt lat="42.85133" lon="0.95421">
        <ele>1415.2</ele>
        <time>2022-09-04T13:34:22Z</time>
      </trkpt>
      <trkpt lat="42.85137" lon="0.95405">
        <ele>1414.72</ele>
        <time>2022-09-04T13:34:38Z</time>
      </trkpt>
      <trkpt lat="42.85143" lon="0.95393">
        <ele>1414.24</ele>
        <time>2022-09-04T13:34:54Z</time>
      </trkpt>
      <trkpt lat="42.85148" lon="0.95383">
        <ele>1414.24</ele>
        <time>2022-09-04T13:35:09Z</time>
      </trkpt>
      <trkpt lat="42.85153" lon="0.95367">
        <ele>1413.28</ele>
        <time>2022-09-04T13:35:26Z</time>
      </trkpt>
      <trkpt lat="42.85155" lon="0.95362">
        <ele>1413.28</ele>
        <time>2022-09-04T13:35:30Z</time>
      </trkpt>
      <trkpt lat="42.85163" lon="0.95341">
        <ele>1412.31</ele>
        <time>2022-09-04T13:35:48Z</time>
      </trkpt>
      <trkpt lat="42.85171" lon="0.95325">
        <ele>1411.83</ele>
        <time>2022-09-04T13:36:03Z</time>
      </trkpt>
      <trkpt lat="42.85177" lon="0.95318">
        <ele>1413.28</ele>
        <time>2022-09-04T13:36:18Z</time>
      </trkpt>
      <trkpt lat="42.85184" lon="0.95306">
        <ele>1413.76</ele>
        <time>2022-09-04T13:36:29Z</time>
      </trkpt>
      <trkpt lat="42.85194" lon="0.95289">
        <ele>1413.28</ele>
        <time>2022-09-04T13:36:46Z</time>
      </trkpt>
      <trkpt lat="42.85204" lon="0.95275">
        <ele>1413.28</ele>
        <time>2022-09-04T13:37:02Z</time>
      </trkpt>
      <trkpt lat="42.85212" lon="0.95262">
        <ele>1413.28</ele>
        <time>2022-09-04T13:37:15Z</time>
      </trkpt>
      <trkpt lat="42.85225" lon="0.95244">
        <ele>1413.28</ele>
        <time>2022-09-04T13:37:33Z</time>
      </trkpt>
      <trkpt lat="42.8523" lon="0.95233">
        <ele>1411.35</ele>
        <time>2022-09-04T13:37:45Z</time>
      </trkpt>
      <trkpt lat="42.85231" lon="0.95231">
        <ele>1412.31</ele>
        <time>2022-09-04T13:37:47Z</time>
      </trkpt>
      <trkpt lat="42.85229" lon="0.95234">
        <ele>1412.31</ele>
        <time>2022-09-04T13:38:04Z</time>
      </trkpt>
      <trkpt lat="42.85229" lon="0.95233">
        <ele>1411.83</ele>
        <time>2022-09-04T13:38:33Z</time>
      </trkpt>
      <trkpt lat="42.85228" lon="0.9523">
        <ele>1412.31</ele>
        <time>2022-09-04T13:38:47Z</time>
      </trkpt>
      <trkpt lat="42.85226" lon="0.95231">
        <ele>1412.31</ele>
        <time>2022-09-04T13:39:15Z</time>
      </trkpt>
      <trkpt lat="42.85225" lon="0.95236">
        <ele>1411.83</ele>
        <time>2022-09-04T13:39:27Z</time>
      </trkpt>
      <trkpt lat="42.85226" lon="0.95237">
        <ele>1411.83</ele>
        <time>2022-09-04T13:39:56Z</time>
      </trkpt>
      <trkpt lat="42.85222" lon="0.95245">
        <ele>1411.83</ele>
        <time>2022-09-04T13:40:16Z</time>
      </trkpt>
      <trkpt lat="42.85221" lon="0.95247">
        <ele>1411.83</ele>
        <time>2022-09-04T13:40:18Z</time>
      </trkpt>
      <trkpt lat="42.85217" lon="0.95253">
        <ele>1411.83</ele>
        <time>2022-09-04T13:40:25Z</time>
      </trkpt>
      <trkpt lat="42.85203" lon="0.95271">
        <ele>1411.35</ele>
        <time>2022-09-04T13:40:42Z</time>
      </trkpt>
      <trkpt lat="42.85202" lon="0.95274">
        <ele>1412.79</ele>
        <time>2022-09-04T13:40:46Z</time>
      </trkpt>
      <trkpt lat="42.85196" lon="0.95281">
        <ele>1412.79</ele>
        <time>2022-09-04T13:40:59Z</time>
      </trkpt>
      <trkpt lat="42.85188" lon="0.95291">
        <ele>1412.79</ele>
        <time>2022-09-04T13:41:12Z</time>
      </trkpt>
      <trkpt lat="42.85177" lon="0.95309">
        <ele>1412.79</ele>
        <time>2022-09-04T13:41:31Z</time>
      </trkpt>
      <trkpt lat="42.8517" lon="0.95322">
        <ele>1412.79</ele>
        <time>2022-09-04T13:41:46Z</time>
      </trkpt>
      <trkpt lat="42.85159" lon="0.9534">
        <ele>1412.31</ele>
        <time>2022-09-04T13:42:04Z</time>
      </trkpt>
      <trkpt lat="42.85156" lon="0.95349">
        <ele>1412.31</ele>
        <time>2022-09-04T13:42:19Z</time>
      </trkpt>
      <trkpt lat="42.85153" lon="0.95356">
        <ele>1411.35</ele>
        <time>2022-09-04T13:42:43Z</time>
      </trkpt>
      <trkpt lat="42.85147" lon="0.95372">
        <ele>1412.31</ele>
        <time>2022-09-04T13:43:05Z</time>
      </trkpt>
      <trkpt lat="42.85146" lon="0.9538">
        <ele>1412.79</ele>
        <time>2022-09-04T13:43:24Z</time>
      </trkpt>
      <trkpt lat="42.85143" lon="0.95379">
        <ele>1411.35</ele>
        <time>2022-09-04T13:43:39Z</time>
      </trkpt>
      <trkpt lat="42.85141" lon="0.95379">
        <ele>1410.39</ele>
        <time>2022-09-04T13:43:46Z</time>
      </trkpt>
      <trkpt lat="42.85142" lon="0.95381">
        <ele>1410.39</ele>
        <time>2022-09-04T13:44:04Z</time>
      </trkpt>
      <trkpt lat="42.85138" lon="0.95378">
        <ele>1408.47</ele>
        <time>2022-09-04T13:44:26Z</time>
      </trkpt>
      <trkpt lat="42.85139" lon="0.95375">
        <ele>1407.03</ele>
        <time>2022-09-04T13:44:40Z</time>
      </trkpt>
      <trkpt lat="42.85139" lon="0.95374">
        <ele>1406.55</ele>
        <time>2022-09-04T13:44:52Z</time>
      </trkpt>
      <trkpt lat="42.8514" lon="0.95372">
        <ele>1407.51</ele>
        <time>2022-09-04T13:44:58Z</time>
      </trkpt>
      <trkpt lat="42.85137" lon="0.95366">
        <ele>1405.58</ele>
        <time>2022-09-04T13:45:12Z</time>
      </trkpt>
      <trkpt lat="42.8514" lon="0.95352">
        <ele>1403.18</ele>
        <time>2022-09-04T13:45:28Z</time>
      </trkpt>
      <trkpt lat="42.85147" lon="0.95338">
        <ele>1402.7</ele>
        <time>2022-09-04T13:45:43Z</time>
      </trkpt>
      <trkpt lat="42.85151" lon="0.95328">
        <ele>1401.74</ele>
        <time>2022-09-04T13:45:57Z</time>
      </trkpt>
      <trkpt lat="42.85153" lon="0.95318">
        <ele>1400.3</ele>
        <time>2022-09-04T13:46:11Z</time>
      </trkpt>
      <trkpt lat="42.85156" lon="0.95309">
        <ele>1399.82</ele>
        <time>2022-09-04T13:46:25Z</time>
      </trkpt>
      <trkpt lat="42.85154" lon="0.95309">
        <ele>1399.34</ele>
        <time>2022-09-04T13:46:45Z</time>
      </trkpt>
      <trkpt lat="42.85153" lon="0.95311">
        <ele>1399.34</ele>
        <time>2022-09-04T13:47:05Z</time>
      </trkpt>
      <trkpt lat="42.85152" lon="0.9531">
        <ele>1398.86</ele>
        <time>2022-09-04T13:47:36Z</time>
      </trkpt>
      <trkpt lat="42.85149" lon="0.95304">
        <ele>1396.93</ele>
        <time>2022-09-04T13:48:02Z</time>
      </trkpt>
      <trkpt lat="42.85148" lon="0.95302">
        <ele>1396.45</ele>
        <time>2022-09-04T13:48:13Z</time>
      </trkpt>
      <trkpt lat="42.85148" lon="0.95298">
        <ele>1395.49</ele>
        <time>2022-09-04T13:48:34Z</time>
      </trkpt>
      <trkpt lat="42.85156" lon="0.95292">
        <ele>1394.05</ele>
        <time>2022-09-04T13:48:48Z</time>
      </trkpt>
      <trkpt lat="42.85156" lon="0.95287">
        <ele>1391.65</ele>
        <time>2022-09-04T13:49:04Z</time>
      </trkpt>
      <trkpt lat="42.85153" lon="0.95287">
        <ele>1388.76</ele>
        <time>2022-09-04T13:49:20Z</time>
      </trkpt>
      <trkpt lat="42.85153" lon="0.95288">
        <ele>1393.09</ele>
        <time>2022-09-04T13:49:21Z</time>
      </trkpt>
      <trkpt lat="42.8515" lon="0.9529">
        <ele>1389.72</ele>
        <time>2022-09-04T13:49:34Z</time>
      </trkpt>
      <trkpt lat="42.85147" lon="0.95288">
        <ele>1387.32</ele>
        <time>2022-09-04T13:49:48Z</time>
      </trkpt>
      <trkpt lat="42.85147" lon="0.95281">
        <ele>1385.4</ele>
        <time>2022-09-04T13:50:02Z</time>
      </trkpt>
      <trkpt lat="42.85145" lon="0.95274">
        <ele>1383.47</ele>
        <time>2022-09-04T13:50:17Z</time>
      </trkpt>
      <trkpt lat="42.85139" lon="0.95271">
        <ele>1379.63</ele>
        <time>2022-09-04T13:50:33Z</time>
      </trkpt>
      <trkpt lat="42.85137" lon="0.95268">
        <ele>1377.23</ele>
        <time>2022-09-04T13:50:46Z</time>
      </trkpt>
      <trkpt lat="42.85133" lon="0.95266">
        <ele>1374.82</ele>
        <time>2022-09-04T13:50:57Z</time>
      </trkpt>
      <trkpt lat="42.85131" lon="0.95266">
        <ele>1373.86</ele>
        <time>2022-09-04T13:51:09Z</time>
      </trkpt>
      <trkpt lat="42.85124" lon="0.9526">
        <ele>1372.42</ele>
        <time>2022-09-04T13:51:39Z</time>
      </trkpt>
      <trkpt lat="42.8512" lon="0.95254">
        <ele>1369.54</ele>
        <time>2022-09-04T13:51:54Z</time>
      </trkpt>
      <trkpt lat="42.85116" lon="0.95249">
        <ele>1366.17</ele>
        <time>2022-09-04T13:52:09Z</time>
      </trkpt>
      <trkpt lat="42.85109" lon="0.95246">
        <ele>1363.29</ele>
        <time>2022-09-04T13:52:28Z</time>
      </trkpt>
      <trkpt lat="42.85104" lon="0.95249">
        <ele>1360.4</ele>
        <time>2022-09-04T13:52:44Z</time>
      </trkpt>
      <trkpt lat="42.85098" lon="0.95244">
        <ele>1358</ele>
        <time>2022-09-04T13:52:59Z</time>
      </trkpt>
      <trkpt lat="42.85096" lon="0.95243">
        <ele>1357.04</ele>
        <time>2022-09-04T13:53:10Z</time>
      </trkpt>
      <trkpt lat="42.85094" lon="0.95239">
        <ele>1354.63</ele>
        <time>2022-09-04T13:53:26Z</time>
      </trkpt>
      <trkpt lat="42.85089" lon="0.95234">
        <ele>1351.75</ele>
        <time>2022-09-04T13:53:44Z</time>
      </trkpt>
      <trkpt lat="42.85084" lon="0.95234">
        <ele>1349.83</ele>
        <time>2022-09-04T13:53:59Z</time>
      </trkpt>
      <trkpt lat="42.85079" lon="0.95235">
        <ele>1347.43</ele>
        <time>2022-09-04T13:54:12Z</time>
      </trkpt>
      <trkpt lat="42.85075" lon="0.95228">
        <ele>1345.02</ele>
        <time>2022-09-04T13:54:26Z</time>
      </trkpt>
      <trkpt lat="42.85069" lon="0.95226">
        <ele>1343.1</ele>
        <time>2022-09-04T13:54:42Z</time>
      </trkpt>
      <trkpt lat="42.85067" lon="0.9522">
        <ele>1341.18</ele>
        <time>2022-09-04T13:54:57Z</time>
      </trkpt>
      <trkpt lat="42.85063" lon="0.95214">
        <ele>1338.77</ele>
        <time>2022-09-04T13:55:10Z</time>
      </trkpt>
      <trkpt lat="42.8506" lon="0.95208">
        <ele>1336.85</ele>
        <time>2022-09-04T13:55:23Z</time>
      </trkpt>
      <trkpt lat="42.85056" lon="0.95207">
        <ele>1334.93</ele>
        <time>2022-09-04T13:55:37Z</time>
      </trkpt>
      <trkpt lat="42.85052" lon="0.95205">
        <ele>1334.45</ele>
        <time>2022-09-04T13:55:52Z</time>
      </trkpt>
      <trkpt lat="42.85048" lon="0.95199">
        <ele>1332.52</ele>
        <time>2022-09-04T13:56:05Z</time>
      </trkpt>
      <trkpt lat="42.85044" lon="0.95192">
        <ele>1331.08</ele>
        <time>2022-09-04T13:56:20Z</time>
      </trkpt>
      <trkpt lat="42.85047" lon="0.95186">
        <ele>1329.16</ele>
        <time>2022-09-04T13:56:33Z</time>
      </trkpt>
      <trkpt lat="42.85051" lon="0.95187">
        <ele>1329.16</ele>
        <time>2022-09-04T13:56:46Z</time>
      </trkpt>
      <trkpt lat="42.85053" lon="0.95182">
        <ele>1328.68</ele>
        <time>2022-09-04T13:56:59Z</time>
      </trkpt>
      <trkpt lat="42.85054" lon="0.95184">
        <ele>1327.72</ele>
        <time>2022-09-04T13:57:21Z</time>
      </trkpt>
      <trkpt lat="42.85059" lon="0.9518">
        <ele>1327.24</ele>
        <time>2022-09-04T13:57:32Z</time>
      </trkpt>
      <trkpt lat="42.85062" lon="0.95175">
        <ele>1325.8</ele>
        <time>2022-09-04T13:57:44Z</time>
      </trkpt>
      <trkpt lat="42.85064" lon="0.95167">
        <ele>1323.87</ele>
        <time>2022-09-04T13:57:58Z</time>
      </trkpt>
      <trkpt lat="42.85063" lon="0.95162">
        <ele>1321.95</ele>
        <time>2022-09-04T13:58:08Z</time>
      </trkpt>
      <trkpt lat="42.85063" lon="0.95156">
        <ele>1320.03</ele>
        <time>2022-09-04T13:58:22Z</time>
      </trkpt>
      <trkpt lat="42.85062" lon="0.95151">
        <ele>1318.1</ele>
        <time>2022-09-04T13:58:34Z</time>
      </trkpt>
      <trkpt lat="42.85062" lon="0.95146">
        <ele>1317.14</ele>
        <time>2022-09-04T13:58:50Z</time>
      </trkpt>
      <trkpt lat="42.85061" lon="0.95138">
        <ele>1315.22</ele>
        <time>2022-09-04T13:59:08Z</time>
      </trkpt>
      <trkpt lat="42.85063" lon="0.95136">
        <ele>1315.22</ele>
        <time>2022-09-04T13:59:30Z</time>
      </trkpt>
      <trkpt lat="42.85066" lon="0.95128">
        <ele>1312.34</ele>
        <time>2022-09-04T13:59:49Z</time>
      </trkpt>
      <trkpt lat="42.85066" lon="0.9512">
        <ele>1308.97</ele>
        <time>2022-09-04T14:00:01Z</time>
      </trkpt>
      <trkpt lat="42.85067" lon="0.95115">
        <ele>1305.61</ele>
        <time>2022-09-04T14:00:11Z</time>
      </trkpt>
      <trkpt lat="42.85074" lon="0.95104">
        <ele>1302.72</ele>
        <time>2022-09-04T14:00:23Z</time>
      </trkpt>
      <trkpt lat="42.85078" lon="0.95093">
        <ele>1298.88</ele>
        <time>2022-09-04T14:00:38Z</time>
      </trkpt>
      <trkpt lat="42.85088" lon="0.9509">
        <ele>1301.28</ele>
        <time>2022-09-04T14:00:53Z</time>
      </trkpt>
      <trkpt lat="42.85091" lon="0.95089">
        <ele>1301.28</ele>
        <time>2022-09-04T14:01:16Z</time>
      </trkpt>
      <trkpt lat="42.85085" lon="0.95092">
        <ele>1300.8</ele>
        <time>2022-09-04T14:01:39Z</time>
      </trkpt>
      <trkpt lat="42.85082" lon="0.95088">
        <ele>1301.76</ele>
        <time>2022-09-04T14:02:02Z</time>
      </trkpt>
      <trkpt lat="42.851" lon="0.95081">
        <ele>1297.92</ele>
        <time>2022-09-04T14:02:20Z</time>
      </trkpt>
      <trkpt lat="42.85104" lon="0.95071">
        <ele>1294.55</ele>
        <time>2022-09-04T14:02:33Z</time>
      </trkpt>
      <trkpt lat="42.85105" lon="0.95066">
        <ele>1293.11</ele>
        <time>2022-09-04T14:02:52Z</time>
      </trkpt>
      <trkpt lat="42.85109" lon="0.95055">
        <ele>1289.75</ele>
        <time>2022-09-04T14:03:09Z</time>
      </trkpt>
      <trkpt lat="42.85114" lon="0.95038">
        <ele>1286.38</ele>
        <time>2022-09-04T14:03:25Z</time>
      </trkpt>
      <trkpt lat="42.85113" lon="0.95027">
        <ele>1283.5</ele>
        <time>2022-09-04T14:03:40Z</time>
      </trkpt>
      <trkpt lat="42.85113" lon="0.95017">
        <ele>1282.54</ele>
        <time>2022-09-04T14:03:53Z</time>
      </trkpt>
      <trkpt lat="42.85117" lon="0.95011">
        <ele>1282.54</ele>
        <time>2022-09-04T14:04:11Z</time>
      </trkpt>
      <trkpt lat="42.85118" lon="0.95001">
        <ele>1280.13</ele>
        <time>2022-09-04T14:04:28Z</time>
      </trkpt>
      <trkpt lat="42.85119" lon="0.94995">
        <ele>1278.21</ele>
        <time>2022-09-04T14:04:43Z</time>
      </trkpt>
      <trkpt lat="42.8512" lon="0.94981">
        <ele>1276.29</ele>
        <time>2022-09-04T14:04:58Z</time>
      </trkpt>
      <trkpt lat="42.8512" lon="0.94983">
        <ele>1276.29</ele>
        <time>2022-09-04T14:05:17Z</time>
      </trkpt>
      <trkpt lat="42.85121" lon="0.94978">
        <ele>1276.29</ele>
        <time>2022-09-04T14:05:44Z</time>
      </trkpt>
      <trkpt lat="42.85123" lon="0.94979">
        <ele>1275.81</ele>
        <time>2022-09-04T14:06:04Z</time>
      </trkpt>
      <trkpt lat="42.85131" lon="0.94975">
        <ele>1275.81</ele>
        <time>2022-09-04T14:06:21Z</time>
      </trkpt>
      <trkpt lat="42.85132" lon="0.9497">
        <ele>1276.77</ele>
        <time>2022-09-04T14:06:36Z</time>
      </trkpt>
      <trkpt lat="42.85137" lon="0.94958">
        <ele>1275.81</ele>
        <time>2022-09-04T14:06:52Z</time>
      </trkpt>
      <trkpt lat="42.85142" lon="0.9495">
        <ele>1275.33</ele>
        <time>2022-09-04T14:07:07Z</time>
      </trkpt>
      <trkpt lat="42.85148" lon="0.94943">
        <ele>1274.85</ele>
        <time>2022-09-04T14:07:24Z</time>
      </trkpt>
      <trkpt lat="42.85158" lon="0.94932">
        <ele>1274.85</ele>
        <time>2022-09-04T14:07:38Z</time>
      </trkpt>
      <trkpt lat="42.85163" lon="0.94926">
        <ele>1274.36</ele>
        <time>2022-09-04T14:07:56Z</time>
      </trkpt>
      <trkpt lat="42.85168" lon="0.9492">
        <ele>1273.88</ele>
        <time>2022-09-04T14:08:11Z</time>
      </trkpt>
      <trkpt lat="42.85173" lon="0.94908">
        <ele>1272.92</ele>
        <time>2022-09-04T14:08:26Z</time>
      </trkpt>
      <trkpt lat="42.85172" lon="0.94902">
        <ele>1271.96</ele>
        <time>2022-09-04T14:08:39Z</time>
      </trkpt>
      <trkpt lat="42.85165" lon="0.94898">
        <ele>1271</ele>
        <time>2022-09-04T14:09:00Z</time>
      </trkpt>
      <trkpt lat="42.85169" lon="0.94897">
        <ele>1269.56</ele>
        <time>2022-09-04T14:09:08Z</time>
      </trkpt>
      <trkpt lat="42.85169" lon="0.94896">
        <ele>1273.4</ele>
        <time>2022-09-04T14:09:09Z</time>
      </trkpt>
      <trkpt lat="42.85173" lon="0.94896">
        <ele>1271</ele>
        <time>2022-09-04T14:09:34Z</time>
      </trkpt>
      <trkpt lat="42.85168" lon="0.94887">
        <ele>1267.16</ele>
        <time>2022-09-04T14:09:50Z</time>
      </trkpt>
      <trkpt lat="42.85168" lon="0.94879">
        <ele>1264.75</ele>
        <time>2022-09-04T14:10:05Z</time>
      </trkpt>
      <trkpt lat="42.85162" lon="0.94875">
        <ele>1261.39</ele>
        <time>2022-09-04T14:10:19Z</time>
      </trkpt>
      <trkpt lat="42.85155" lon="0.94869">
        <ele>1258.02</ele>
        <time>2022-09-04T14:10:33Z</time>
      </trkpt>
      <trkpt lat="42.85153" lon="0.9486">
        <ele>1255.14</ele>
        <time>2022-09-04T14:10:48Z</time>
      </trkpt>
      <trkpt lat="42.85149" lon="0.94852">
        <ele>1251.77</ele>
        <time>2022-09-04T14:11:02Z</time>
      </trkpt>
      <trkpt lat="42.85152" lon="0.94847">
        <ele>1249.37</ele>
        <time>2022-09-04T14:11:18Z</time>
      </trkpt>
      <trkpt lat="42.85147" lon="0.94845">
        <ele>1248.41</ele>
        <time>2022-09-04T14:11:38Z</time>
      </trkpt>
      <trkpt lat="42.85139" lon="0.94841">
        <ele>1246.01</ele>
        <time>2022-09-04T14:11:52Z</time>
      </trkpt>
      <trkpt lat="42.85143" lon="0.94835">
        <ele>1242.16</ele>
        <time>2022-09-04T14:12:04Z</time>
      </trkpt>
      <trkpt lat="42.8515" lon="0.94829">
        <ele>1240.24</ele>
        <time>2022-09-04T14:12:19Z</time>
      </trkpt>
      <trkpt lat="42.85149" lon="0.94825">
        <ele>1237.83</ele>
        <time>2022-09-04T14:12:29Z</time>
      </trkpt>
      <trkpt lat="42.85148" lon="0.94818">
        <ele>1235.43</ele>
        <time>2022-09-04T14:12:41Z</time>
      </trkpt>
      <trkpt lat="42.85151" lon="0.94811">
        <ele>1233.99</ele>
        <time>2022-09-04T14:12:52Z</time>
      </trkpt>
      <trkpt lat="42.85154" lon="0.94804">
        <ele>1233.51</ele>
        <time>2022-09-04T14:13:02Z</time>
      </trkpt>
      <trkpt lat="42.85154" lon="0.94799">
        <ele>1233.03</ele>
        <time>2022-09-04T14:13:18Z</time>
      </trkpt>
      <trkpt lat="42.85157" lon="0.94791">
        <ele>1231.11</ele>
        <time>2022-09-04T14:13:32Z</time>
      </trkpt>
      <trkpt lat="42.85154" lon="0.94788">
        <ele>1228.7</ele>
        <time>2022-09-04T14:13:52Z</time>
      </trkpt>
      <trkpt lat="42.85155" lon="0.9478">
        <ele>1227.26</ele>
        <time>2022-09-04T14:14:10Z</time>
      </trkpt>
      <trkpt lat="42.85166" lon="0.94771">
        <ele>1224.86</ele>
        <time>2022-09-04T14:14:28Z</time>
      </trkpt>
      <trkpt lat="42.85171" lon="0.94769">
        <ele>1222.93</ele>
        <time>2022-09-04T14:14:41Z</time>
      </trkpt>
      <trkpt lat="42.85175" lon="0.94769">
        <ele>1221.97</ele>
        <time>2022-09-04T14:14:54Z</time>
      </trkpt>
      <trkpt lat="42.85176" lon="0.94766">
        <ele>1221.01</ele>
        <time>2022-09-04T14:15:10Z</time>
      </trkpt>
      <trkpt lat="42.85177" lon="0.94766">
        <ele>1220.53</ele>
        <time>2022-09-04T14:15:27Z</time>
      </trkpt>
      <trkpt lat="42.85179" lon="0.94766">
        <ele>1220.53</ele>
        <time>2022-09-04T14:15:39Z</time>
      </trkpt>
      <trkpt lat="42.85177" lon="0.94761">
        <ele>1220.53</ele>
        <time>2022-09-04T14:15:56Z</time>
      </trkpt>
      <trkpt lat="42.85182" lon="0.94762">
        <ele>1220.53</ele>
        <time>2022-09-04T14:16:09Z</time>
      </trkpt>
      <trkpt lat="42.85184" lon="0.94752">
        <ele>1219.57</ele>
        <time>2022-09-04T14:16:22Z</time>
      </trkpt>
      <trkpt lat="42.85182" lon="0.94751">
        <ele>1221.01</ele>
        <time>2022-09-04T14:16:34Z</time>
      </trkpt>
      <trkpt lat="42.85181" lon="0.94746">
        <ele>1221.49</ele>
        <time>2022-09-04T14:16:44Z</time>
      </trkpt>
      <trkpt lat="42.85184" lon="0.94741">
        <ele>1218.13</ele>
        <time>2022-09-04T14:16:52Z</time>
      </trkpt>
      <trkpt lat="42.85186" lon="0.94735">
        <ele>1214.76</ele>
        <time>2022-09-04T14:17:05Z</time>
      </trkpt>
      <trkpt lat="42.85185" lon="0.94735">
        <ele>1213.32</ele>
        <time>2022-09-04T14:17:18Z</time>
      </trkpt>
      <trkpt lat="42.85186" lon="0.94733">
        <ele>1212.36</ele>
        <time>2022-09-04T14:17:31Z</time>
      </trkpt>
      <trkpt lat="42.85184" lon="0.94725">
        <ele>1209.96</ele>
        <time>2022-09-04T14:17:49Z</time>
      </trkpt>
      <trkpt lat="42.85186" lon="0.94724">
        <ele>1212.36</ele>
        <time>2022-09-04T14:17:53Z</time>
      </trkpt>
      <trkpt lat="42.85191" lon="0.94722">
        <ele>1210.92</ele>
        <time>2022-09-04T14:18:12Z</time>
      </trkpt>
      <trkpt lat="42.85188" lon="0.94713">
        <ele>1208.51</ele>
        <time>2022-09-04T14:18:35Z</time>
      </trkpt>
      <trkpt lat="42.85188" lon="0.94706">
        <ele>1205.63</ele>
        <time>2022-09-04T14:18:47Z</time>
      </trkpt>
      <trkpt lat="42.85186" lon="0.947">
        <ele>1203.71</ele>
        <time>2022-09-04T14:19:00Z</time>
      </trkpt>
      <trkpt lat="42.85188" lon="0.94701">
        <ele>1201.3</ele>
        <time>2022-09-04T14:19:14Z</time>
      </trkpt>
      <trkpt lat="42.85189" lon="0.94699">
        <ele>1199.86</ele>
        <time>2022-09-04T14:19:34Z</time>
      </trkpt>
      <trkpt lat="42.85191" lon="0.94692">
        <ele>1197.46</ele>
        <time>2022-09-04T14:19:55Z</time>
      </trkpt>
      <trkpt lat="42.8519" lon="0.94681">
        <ele>1195.54</ele>
        <time>2022-09-04T14:20:13Z</time>
      </trkpt>
      <trkpt lat="42.85189" lon="0.94679">
        <ele>1194.09</ele>
        <time>2022-09-04T14:20:26Z</time>
      </trkpt>
      <trkpt lat="42.8519" lon="0.9468">
        <ele>1193.13</ele>
        <time>2022-09-04T14:20:41Z</time>
      </trkpt>
      <trkpt lat="42.85186" lon="0.94677">
        <ele>1191.69</ele>
        <time>2022-09-04T14:20:54Z</time>
      </trkpt>
      <trkpt lat="42.85179" lon="0.94673">
        <ele>1190.73</ele>
        <time>2022-09-04T14:21:09Z</time>
      </trkpt>
      <trkpt lat="42.85177" lon="0.94669">
        <ele>1190.25</ele>
        <time>2022-09-04T14:21:21Z</time>
      </trkpt>
      <trkpt lat="42.85177" lon="0.94672">
        <ele>1190.25</ele>
        <time>2022-09-04T14:21:35Z</time>
      </trkpt>
      <trkpt lat="42.85178" lon="0.94672">
        <ele>1188.81</ele>
        <time>2022-09-04T14:21:50Z</time>
      </trkpt>
      <trkpt lat="42.85177" lon="0.94672">
        <ele>1188.81</ele>
        <time>2022-09-04T14:21:57Z</time>
      </trkpt>
      <trkpt lat="42.85178" lon="0.94669">
        <ele>1187.85</ele>
        <time>2022-09-04T14:22:10Z</time>
      </trkpt>
      <trkpt lat="42.85182" lon="0.94668">
        <ele>1187.85</ele>
        <time>2022-09-04T14:22:22Z</time>
      </trkpt>
      <trkpt lat="42.85183" lon="0.94664">
        <ele>1187.37</ele>
        <time>2022-09-04T14:22:35Z</time>
      </trkpt>
      <trkpt lat="42.85183" lon="0.94659">
        <ele>1186.4</ele>
        <time>2022-09-04T14:22:50Z</time>
      </trkpt>
      <trkpt lat="42.85183" lon="0.94653">
        <ele>1185.44</ele>
        <time>2022-09-04T14:23:03Z</time>
      </trkpt>
      <trkpt lat="42.85178" lon="0.9465">
        <ele>1184.96</ele>
        <time>2022-09-04T14:23:25Z</time>
      </trkpt>
      <trkpt lat="42.85174" lon="0.9465">
        <ele>1185.92</ele>
        <time>2022-09-04T14:23:37Z</time>
      </trkpt>
      <trkpt lat="42.85175" lon="0.9465">
        <ele>1187.37</ele>
        <time>2022-09-04T14:23:44Z</time>
      </trkpt>
      <trkpt lat="42.85171" lon="0.94648">
        <ele>1186.88</ele>
        <time>2022-09-04T14:23:59Z</time>
      </trkpt>
      <trkpt lat="42.8517" lon="0.94643">
        <ele>1186.88</ele>
        <time>2022-09-04T14:24:12Z</time>
      </trkpt>
      <trkpt lat="42.85168" lon="0.94638">
        <ele>1187.37</ele>
        <time>2022-09-04T14:24:26Z</time>
      </trkpt>
      <trkpt lat="42.85166" lon="0.94636">
        <ele>1189.29</ele>
        <time>2022-09-04T14:24:44Z</time>
      </trkpt>
      <trkpt lat="42.85164" lon="0.94637">
        <ele>1190.25</ele>
        <time>2022-09-04T14:25:01Z</time>
      </trkpt>
      <trkpt lat="42.85162" lon="0.94642">
        <ele>1191.21</ele>
        <time>2022-09-04T14:25:19Z</time>
      </trkpt>
      <trkpt lat="42.8516" lon="0.94639">
        <ele>1192.17</ele>
        <time>2022-09-04T14:25:35Z</time>
      </trkpt>
      <trkpt lat="42.85158" lon="0.94638">
        <ele>1193.13</ele>
        <time>2022-09-04T14:25:50Z</time>
      </trkpt>
      <trkpt lat="42.85157" lon="0.94636">
        <ele>1195.06</ele>
        <time>2022-09-04T14:26:10Z</time>
      </trkpt>
      <trkpt lat="42.85154" lon="0.94631">
        <ele>1196.02</ele>
        <time>2022-09-04T14:26:24Z</time>
      </trkpt>
      <trkpt lat="42.85155" lon="0.94631">
        <ele>1195.54</ele>
        <time>2022-09-04T14:26:44Z</time>
      </trkpt>
      <trkpt lat="42.85155" lon="0.94633">
        <ele>1195.54</ele>
        <time>2022-09-04T14:27:04Z</time>
      </trkpt>
      <trkpt lat="42.85159" lon="0.94639">
        <ele>1195.54</ele>
        <time>2022-09-04T14:27:27Z</time>
      </trkpt>
      <trkpt lat="42.8516" lon="0.94642">
        <ele>1195.54</ele>
        <time>2022-09-04T14:27:45Z</time>
      </trkpt>
      <trkpt lat="42.85157" lon="0.94636">
        <ele>1195.54</ele>
        <time>2022-09-04T14:28:10Z</time>
      </trkpt>
      <trkpt lat="42.85156" lon="0.94634">
        <ele>1195.54</ele>
        <time>2022-09-04T14:28:23Z</time>
      </trkpt>
      <trkpt lat="42.85157" lon="0.94634">
        <ele>1195.54</ele>
        <time>2022-09-04T14:28:39Z</time>
      </trkpt>
      <trkpt lat="42.85157" lon="0.94635">
        <ele>1195.54</ele>
        <time>2022-09-04T14:28:54Z</time>
      </trkpt>
      <trkpt lat="42.85158" lon="0.9464">
        <ele>1195.06</ele>
        <time>2022-09-04T14:29:09Z</time>
      </trkpt>
      <trkpt lat="42.85157" lon="0.94642">
        <ele>1194.58</ele>
        <time>2022-09-04T14:29:26Z</time>
      </trkpt>
      <trkpt lat="42.85157" lon="0.94644">
        <ele>1194.58</ele>
        <time>2022-09-04T14:29:46Z</time>
      </trkpt>
      <trkpt lat="42.85157" lon="0.94647">
        <ele>1194.58</ele>
        <time>2022-09-04T14:30:02Z</time>
      </trkpt>
      <trkpt lat="42.85153" lon="0.94644">
        <ele>1193.61</ele>
        <time>2022-09-04T14:30:19Z</time>
      </trkpt>
      <trkpt lat="42.85149" lon="0.94651">
        <ele>1191.69</ele>
        <time>2022-09-04T14:30:35Z</time>
      </trkpt>
      <trkpt lat="42.85145" lon="0.94649">
        <ele>1190.25</ele>
        <time>2022-09-04T14:30:50Z</time>
      </trkpt>
      <trkpt lat="42.85146" lon="0.94647">
        <ele>1189.29</ele>
        <time>2022-09-04T14:31:07Z</time>
      </trkpt>
      <trkpt lat="42.85145" lon="0.94648">
        <ele>1189.29</ele>
        <time>2022-09-04T14:31:22Z</time>
      </trkpt>
      <trkpt lat="42.85142" lon="0.94647">
        <ele>1186.88</ele>
        <time>2022-09-04T14:31:38Z</time>
      </trkpt>
      <trkpt lat="42.8514" lon="0.94639">
        <ele>1184</ele>
        <time>2022-09-04T14:31:51Z</time>
      </trkpt>
      <trkpt lat="42.85135" lon="0.94635">
        <ele>1180.64</ele>
        <time>2022-09-04T14:32:06Z</time>
      </trkpt>
      <trkpt lat="42.85127" lon="0.94634">
        <ele>1177.27</ele>
        <time>2022-09-04T14:32:20Z</time>
      </trkpt>
      <trkpt lat="42.85121" lon="0.94629">
        <ele>1174.39</ele>
        <time>2022-09-04T14:32:34Z</time>
      </trkpt>
      <trkpt lat="42.85116" lon="0.94628">
        <ele>1171.5</ele>
        <time>2022-09-04T14:32:54Z</time>
      </trkpt>
      <trkpt lat="42.85117" lon="0.94628">
        <ele>1171.98</ele>
        <time>2022-09-04T14:33:10Z</time>
      </trkpt>
      <trkpt lat="42.85114" lon="0.94625">
        <ele>1170.54</ele>
        <time>2022-09-04T14:33:35Z</time>
      </trkpt>
      <trkpt lat="42.85113" lon="0.9462">
        <ele>1167.66</ele>
        <time>2022-09-04T14:33:51Z</time>
      </trkpt>
      <trkpt lat="42.85107" lon="0.94622">
        <ele>1164.29</ele>
        <time>2022-09-04T14:34:05Z</time>
      </trkpt>
      <trkpt lat="42.851" lon="0.94619">
        <ele>1161.41</ele>
        <time>2022-09-04T14:34:20Z</time>
      </trkpt>
      <trkpt lat="42.85093" lon="0.94619">
        <ele>1158.05</ele>
        <time>2022-09-04T14:34:33Z</time>
      </trkpt>
      <trkpt lat="42.85086" lon="0.9462">
        <ele>1155.16</ele>
        <time>2022-09-04T14:34:47Z</time>
      </trkpt>
      <trkpt lat="42.85079" lon="0.94621">
        <ele>1151.8</ele>
        <time>2022-09-04T14:35:01Z</time>
      </trkpt>
      <trkpt lat="42.85074" lon="0.94622">
        <ele>1149.39</ele>
        <time>2022-09-04T14:35:16Z</time>
      </trkpt>
      <trkpt lat="42.85073" lon="0.94616">
        <ele>1147.95</ele>
        <time>2022-09-04T14:35:49Z</time>
      </trkpt>
      <trkpt lat="42.85066" lon="0.94616">
        <ele>1144.59</ele>
        <time>2022-09-04T14:36:00Z</time>
      </trkpt>
      <trkpt lat="42.85068" lon="0.94604">
        <ele>1142.66</ele>
        <time>2022-09-04T14:36:16Z</time>
      </trkpt>
      <trkpt lat="42.85068" lon="0.94594">
        <ele>1139.78</ele>
        <time>2022-09-04T14:36:33Z</time>
      </trkpt>
      <trkpt lat="42.85068" lon="0.94585">
        <ele>1137.38</ele>
        <time>2022-09-04T14:36:47Z</time>
      </trkpt>
      <trkpt lat="42.85069" lon="0.94574">
        <ele>1134.49</ele>
        <time>2022-09-04T14:37:01Z</time>
      </trkpt>
      <trkpt lat="42.85068" lon="0.94561">
        <ele>1131.61</ele>
        <time>2022-09-04T14:37:16Z</time>
      </trkpt>
      <trkpt lat="42.85068" lon="0.94551">
        <ele>1128.73</ele>
        <time>2022-09-04T14:37:32Z</time>
      </trkpt>
      <trkpt lat="42.85069" lon="0.94539">
        <ele>1126.32</ele>
        <time>2022-09-04T14:37:48Z</time>
      </trkpt>
      <trkpt lat="42.85066" lon="0.94537">
        <ele>1124.88</ele>
        <time>2022-09-04T14:38:19Z</time>
      </trkpt>
      <trkpt lat="42.85067" lon="0.94535">
        <ele>1128.24</ele>
        <time>2022-09-04T14:38:31Z</time>
      </trkpt>
      <trkpt lat="42.85067" lon="0.94527">
        <ele>1125.84</ele>
        <time>2022-09-04T14:38:49Z</time>
      </trkpt>
      <trkpt lat="42.85068" lon="0.94514">
        <ele>1122.96</ele>
        <time>2022-09-04T14:39:05Z</time>
      </trkpt>
      <trkpt lat="42.85065" lon="0.94508">
        <ele>1119.59</ele>
        <time>2022-09-04T14:39:18Z</time>
      </trkpt>
      <trkpt lat="42.8506" lon="0.94505">
        <ele>1117.19</ele>
        <time>2022-09-04T14:39:35Z</time>
      </trkpt>
      <trkpt lat="42.85055" lon="0.9451">
        <ele>1115.27</ele>
        <time>2022-09-04T14:39:49Z</time>
      </trkpt>
      <trkpt lat="42.85052" lon="0.94508">
        <ele>1112.86</ele>
        <time>2022-09-04T14:40:02Z</time>
      </trkpt>
      <trkpt lat="42.85054" lon="0.94501">
        <ele>1110.46</ele>
        <time>2022-09-04T14:40:17Z</time>
      </trkpt>
      <trkpt lat="42.85056" lon="0.94494">
        <ele>1109.02</ele>
        <time>2022-09-04T14:40:31Z</time>
      </trkpt>
      <trkpt lat="42.8505" lon="0.94492">
        <ele>1106.13</ele>
        <time>2022-09-04T14:40:47Z</time>
      </trkpt>
      <trkpt lat="42.85051" lon="0.94489">
        <ele>1104.21</ele>
        <time>2022-09-04T14:41:02Z</time>
      </trkpt>
      <trkpt lat="42.85045" lon="0.94483">
        <ele>1102.29</ele>
        <time>2022-09-04T14:41:18Z</time>
      </trkpt>
      <trkpt lat="42.8504" lon="0.94482">
        <ele>1099.89</ele>
        <time>2022-09-04T14:41:29Z</time>
      </trkpt>
      <trkpt lat="42.85039" lon="0.94483">
        <ele>1097.96</ele>
        <time>2022-09-04T14:41:45Z</time>
      </trkpt>
      <trkpt lat="42.85041" lon="0.94484">
        <ele>1097.48</ele>
        <time>2022-09-04T14:42:06Z</time>
      </trkpt>
      <trkpt lat="42.85038" lon="0.94479">
        <ele>1094.6</ele>
        <time>2022-09-04T14:42:22Z</time>
      </trkpt>
      <trkpt lat="42.8504" lon="0.94479">
        <ele>1093.16</ele>
        <time>2022-09-04T14:42:34Z</time>
      </trkpt>
      <trkpt lat="42.8504" lon="0.94475">
        <ele>1091.23</ele>
        <time>2022-09-04T14:42:45Z</time>
      </trkpt>
      <trkpt lat="42.85041" lon="0.94474">
        <ele>1093.64</ele>
        <time>2022-09-04T14:43:00Z</time>
      </trkpt>
      <trkpt lat="42.85041" lon="0.94464">
        <ele>1090.27</ele>
        <time>2022-09-04T14:43:08Z</time>
      </trkpt>
      <trkpt lat="42.85036" lon="0.94457">
        <ele>1087.39</ele>
        <time>2022-09-04T14:43:23Z</time>
      </trkpt>
      <trkpt lat="42.85035" lon="0.94454">
        <ele>1086.43</ele>
        <time>2022-09-04T14:43:40Z</time>
      </trkpt>
      <trkpt lat="42.85031" lon="0.94449">
        <ele>1084.5</ele>
        <time>2022-09-04T14:43:59Z</time>
      </trkpt>
      <trkpt lat="42.85024" lon="0.9445">
        <ele>1082.58</ele>
        <time>2022-09-04T14:44:12Z</time>
      </trkpt>
      <trkpt lat="42.85024" lon="0.94448">
        <ele>1082.1</ele>
        <time>2022-09-04T14:44:33Z</time>
      </trkpt>
      <trkpt lat="42.85021" lon="0.94452">
        <ele>1082.1</ele>
        <time>2022-09-04T14:44:53Z</time>
      </trkpt>
      <trkpt lat="42.85012" lon="0.94461">
        <ele>1080.18</ele>
        <time>2022-09-04T14:45:10Z</time>
      </trkpt>
      <trkpt lat="42.85004" lon="0.94469">
        <ele>1078.74</ele>
        <time>2022-09-04T14:45:26Z</time>
      </trkpt>
      <trkpt lat="42.85" lon="0.94471">
        <ele>1078.26</ele>
        <time>2022-09-04T14:45:40Z</time>
      </trkpt>
      <trkpt lat="42.84993" lon="0.94478">
        <ele>1076.81</ele>
        <time>2022-09-04T14:45:57Z</time>
      </trkpt>
      <trkpt lat="42.84984" lon="0.94488">
        <ele>1075.37</ele>
        <time>2022-09-04T14:46:13Z</time>
      </trkpt>
      <trkpt lat="42.8498" lon="0.94503">
        <ele>1075.37</ele>
        <time>2022-09-04T14:46:29Z</time>
      </trkpt>
      <trkpt lat="42.84982" lon="0.94504">
        <ele>1075.37</ele>
        <time>2022-09-04T14:46:46Z</time>
      </trkpt>
      <trkpt lat="42.84984" lon="0.94508">
        <ele>1076.33</ele>
        <time>2022-09-04T14:46:51Z</time>
      </trkpt>
      <trkpt lat="42.84981" lon="0.94512">
        <ele>1076.81</ele>
        <time>2022-09-04T14:47:09Z</time>
      </trkpt>
      <trkpt lat="42.84983" lon="0.94512">
        <ele>1077.29</ele>
        <time>2022-09-04T14:47:15Z</time>
      </trkpt>
      <trkpt lat="42.84983" lon="0.94511">
        <ele>1072.97</ele>
        <time>2022-09-04T14:47:16Z</time>
      </trkpt>
      <trkpt lat="42.84982" lon="0.94509">
        <ele>1075.85</ele>
        <time>2022-09-04T14:47:26Z</time>
      </trkpt>
      <trkpt lat="42.84986" lon="0.94496">
        <ele>1074.89</ele>
        <time>2022-09-04T14:47:37Z</time>
      </trkpt>
      <trkpt lat="42.84991" lon="0.94487">
        <ele>1073.93</ele>
        <time>2022-09-04T14:47:52Z</time>
      </trkpt>
      <trkpt lat="42.84986" lon="0.94477">
        <ele>1071.05</ele>
        <time>2022-09-04T14:48:08Z</time>
      </trkpt>
      <trkpt lat="42.84986" lon="0.94471">
        <ele>1069.12</ele>
        <time>2022-09-04T14:48:25Z</time>
      </trkpt>
      <trkpt lat="42.84984" lon="0.94466">
        <ele>1068.16</ele>
        <time>2022-09-04T14:48:40Z</time>
      </trkpt>
      <trkpt lat="42.84982" lon="0.94457">
        <ele>1064.8</ele>
        <time>2022-09-04T14:48:54Z</time>
      </trkpt>
      <trkpt lat="42.84981" lon="0.94447">
        <ele>1062.87</ele>
        <time>2022-09-04T14:49:07Z</time>
      </trkpt>
      <trkpt lat="42.8498" lon="0.94444">
        <ele>1058.55</ele>
        <time>2022-09-04T14:49:16Z</time>
      </trkpt>
      <trkpt lat="42.84979" lon="0.94444">
        <ele>1058.55</ele>
        <time>2022-09-04T14:49:17Z</time>
      </trkpt>
      <trkpt lat="42.8498" lon="0.94446">
        <ele>1060.95</ele>
        <time>2022-09-04T14:49:36Z</time>
      </trkpt>
      <trkpt lat="42.8499" lon="0.94439">
        <ele>1060.47</ele>
        <time>2022-09-04T14:49:51Z</time>
      </trkpt>
      <trkpt lat="42.84996" lon="0.94428">
        <ele>1060.47</ele>
        <time>2022-09-04T14:50:06Z</time>
      </trkpt>
      <trkpt lat="42.84998" lon="0.94419">
        <ele>1059.03</ele>
        <time>2022-09-04T14:50:19Z</time>
      </trkpt>
      <trkpt lat="42.85004" lon="0.94409">
        <ele>1057.11</ele>
        <time>2022-09-04T14:50:33Z</time>
      </trkpt>
      <trkpt lat="42.85009" lon="0.94402">
        <ele>1055.67</ele>
        <time>2022-09-04T14:50:46Z</time>
      </trkpt>
      <trkpt lat="42.85006" lon="0.94395">
        <ele>1055.67</ele>
        <time>2022-09-04T14:51:07Z</time>
      </trkpt>
      <trkpt lat="42.85011" lon="0.94395">
        <ele>1054.22</ele>
        <time>2022-09-04T14:51:28Z</time>
      </trkpt>
      <trkpt lat="42.85012" lon="0.94395">
        <ele>1054.22</ele>
        <time>2022-09-04T14:51:50Z</time>
      </trkpt>
      <trkpt lat="42.85013" lon="0.94395">
        <ele>1054.22</ele>
        <time>2022-09-04T14:52:07Z</time>
      </trkpt>
      <trkpt lat="42.85015" lon="0.944">
        <ele>1053.74</ele>
        <time>2022-09-04T14:52:23Z</time>
      </trkpt>
      <trkpt lat="42.8501" lon="0.94388">
        <ele>1053.74</ele>
        <time>2022-09-04T14:52:44Z</time>
      </trkpt>
      <trkpt lat="42.85009" lon="0.94382">
        <ele>1053.74</ele>
        <time>2022-09-04T14:53:22Z</time>
      </trkpt>
      <trkpt lat="42.85006" lon="0.94377">
        <ele>1053.74</ele>
        <time>2022-09-04T14:53:59Z</time>
      </trkpt>
      <trkpt lat="42.85008" lon="0.94379">
        <ele>1055.18</ele>
        <time>2022-09-04T14:55:12Z</time>
      </trkpt>
      <trkpt lat="42.85009" lon="0.94379">
        <ele>1054.7</ele>
        <time>2022-09-04T14:55:44Z</time>
      </trkpt>
      <trkpt lat="42.8501" lon="0.94384">
        <ele>1054.7</ele>
        <time>2022-09-04T14:56:14Z</time>
      </trkpt>
      <trkpt lat="42.85009" lon="0.94382">
        <ele>1054.7</ele>
        <time>2022-09-04T14:56:50Z</time>
      </trkpt>
      <trkpt lat="42.85011" lon="0.94383">
        <ele>1054.7</ele>
        <time>2022-09-04T14:57:22Z</time>
      </trkpt>
      <trkpt lat="42.85009" lon="0.94381">
        <ele>1054.22</ele>
        <time>2022-09-04T14:58:05Z</time>
      </trkpt>
      <trkpt lat="42.8501" lon="0.94386">
        <ele>1054.22</ele>
        <time>2022-09-04T14:58:47Z</time>
      </trkpt>
      <trkpt lat="42.85008" lon="0.94385">
        <ele>1054.22</ele>
        <time>2022-09-04T14:59:22Z</time>
      </trkpt>
      <trkpt lat="42.85008" lon="0.94384">
        <ele>1053.74</ele>
        <time>2022-09-04T14:59:57Z</time>
      </trkpt>
      <trkpt lat="42.85014" lon="0.94381">
        <ele>1053.74</ele>
        <time>2022-09-04T15:00:31Z</time>
      </trkpt>
      <trkpt lat="42.85007" lon="0.94382">
        <ele>1054.22</ele>
        <time>2022-09-04T15:01:06Z</time>
      </trkpt>
      <trkpt lat="42.85012" lon="0.9438">
        <ele>1054.7</ele>
        <time>2022-09-04T15:01:48Z</time>
      </trkpt>
      <trkpt lat="42.8501" lon="0.94382">
        <ele>1054.22</ele>
        <time>2022-09-04T15:02:43Z</time>
      </trkpt>
      <trkpt lat="42.85014" lon="0.94385">
        <ele>1054.22</ele>
        <time>2022-09-04T15:03:11Z</time>
      </trkpt>
      <trkpt lat="42.85012" lon="0.94388">
        <ele>1054.7</ele>
        <time>2022-09-04T15:03:25Z</time>
      </trkpt>
      <trkpt lat="42.85011" lon="0.94392">
        <ele>1055.18</ele>
        <time>2022-09-04T15:03:47Z</time>
      </trkpt>
      <trkpt lat="42.85011" lon="0.94389">
        <ele>1055.18</ele>
        <time>2022-09-04T15:04:04Z</time>
      </trkpt>
      <trkpt lat="42.8501" lon="0.9439">
        <ele>1054.7</ele>
        <time>2022-09-04T15:04:24Z</time>
      </trkpt>
      <trkpt lat="42.8501" lon="0.94393">
        <ele>1054.7</ele>
        <time>2022-09-04T15:04:38Z</time>
      </trkpt>
      <trkpt lat="42.85006" lon="0.94401">
        <ele>1054.7</ele>
        <time>2022-09-04T15:04:52Z</time>
      </trkpt>
      <trkpt lat="42.84998" lon="0.94406">
        <ele>1054.7</ele>
        <time>2022-09-04T15:05:07Z</time>
      </trkpt>
      <trkpt lat="42.84991" lon="0.94413">
        <ele>1056.63</ele>
        <time>2022-09-04T15:05:24Z</time>
      </trkpt>
      <trkpt lat="42.84987" lon="0.94414">
        <ele>1054.22</ele>
        <time>2022-09-04T15:05:42Z</time>
      </trkpt>
      <trkpt lat="42.84983" lon="0.94404">
        <ele>1051.34</ele>
        <time>2022-09-04T15:06:01Z</time>
      </trkpt>
      <trkpt lat="42.84979" lon="0.94395">
        <ele>1049.9</ele>
        <time>2022-09-04T15:06:19Z</time>
      </trkpt>
      <trkpt lat="42.84976" lon="0.94392">
        <ele>1048.94</ele>
        <time>2022-09-04T15:06:34Z</time>
      </trkpt>
      <trkpt lat="42.84973" lon="0.94391">
        <ele>1047.49</ele>
        <time>2022-09-04T15:06:51Z</time>
      </trkpt>
      <trkpt lat="42.84964" lon="0.9439">
        <ele>1044.61</ele>
        <time>2022-09-04T15:07:07Z</time>
      </trkpt>
      <trkpt lat="42.84956" lon="0.94394">
        <ele>1043.65</ele>
        <time>2022-09-04T15:07:23Z</time>
      </trkpt>
      <trkpt lat="42.84953" lon="0.94401">
        <ele>1042.21</ele>
        <time>2022-09-04T15:07:38Z</time>
      </trkpt>
      <trkpt lat="42.84948" lon="0.94411">
        <ele>1041.73</ele>
        <time>2022-09-04T15:07:54Z</time>
      </trkpt>
      <trkpt lat="42.84944" lon="0.94422">
        <ele>1041.73</ele>
        <time>2022-09-04T15:08:09Z</time>
      </trkpt>
      <trkpt lat="42.84941" lon="0.94428">
        <ele>1041.73</ele>
        <time>2022-09-04T15:08:23Z</time>
      </trkpt>
      <trkpt lat="42.84938" lon="0.94428">
        <ele>1041.25</ele>
        <time>2022-09-04T15:08:38Z</time>
      </trkpt>
      <trkpt lat="42.84936" lon="0.9442">
        <ele>1039.32</ele>
        <time>2022-09-04T15:08:55Z</time>
      </trkpt>
      <trkpt lat="42.84932" lon="0.94412">
        <ele>1036.44</ele>
        <time>2022-09-04T15:09:11Z</time>
      </trkpt>
      <trkpt lat="42.84932" lon="0.94406">
        <ele>1034.04</ele>
        <time>2022-09-04T15:09:25Z</time>
      </trkpt>
      <trkpt lat="42.84932" lon="0.94394">
        <ele>1032.11</ele>
        <time>2022-09-04T15:09:41Z</time>
      </trkpt>
      <trkpt lat="42.84929" lon="0.94386">
        <ele>1029.23</ele>
        <time>2022-09-04T15:09:58Z</time>
      </trkpt>
      <trkpt lat="42.84925" lon="0.9438">
        <ele>1026.34</ele>
        <time>2022-09-04T15:10:13Z</time>
      </trkpt>
      <trkpt lat="42.84924" lon="0.94373">
        <ele>1023.94</ele>
        <time>2022-09-04T15:10:28Z</time>
      </trkpt>
      <trkpt lat="42.84922" lon="0.94359">
        <ele>1021.54</ele>
        <time>2022-09-04T15:10:43Z</time>
      </trkpt>
      <trkpt lat="42.84918" lon="0.94359">
        <ele>1018.65</ele>
        <time>2022-09-04T15:10:55Z</time>
      </trkpt>
      <trkpt lat="42.84916" lon="0.94362">
        <ele>1017.21</ele>
        <time>2022-09-04T15:11:11Z</time>
      </trkpt>
      <trkpt lat="42.84917" lon="0.94351">
        <ele>1015.77</ele>
        <time>2022-09-04T15:11:27Z</time>
      </trkpt>
      <trkpt lat="42.84918" lon="0.94336">
        <ele>1013.37</ele>
        <time>2022-09-04T15:11:46Z</time>
      </trkpt>
      <trkpt lat="42.84914" lon="0.94331">
        <ele>1011.44</ele>
        <time>2022-09-04T15:12:08Z</time>
      </trkpt>
      <trkpt lat="42.84915" lon="0.94332">
        <ele>1011.93</ele>
        <time>2022-09-04T15:12:20Z</time>
      </trkpt>
      <trkpt lat="42.84913" lon="0.94328">
        <ele>1010.48</ele>
        <time>2022-09-04T15:12:34Z</time>
      </trkpt>
      <trkpt lat="42.84908" lon="0.94324">
        <ele>1007.6</ele>
        <time>2022-09-04T15:12:49Z</time>
      </trkpt>
      <trkpt lat="42.84902" lon="0.94327">
        <ele>1005.68</ele>
        <time>2022-09-04T15:13:03Z</time>
      </trkpt>
      <trkpt lat="42.84897" lon="0.94335">
        <ele>1004.23</ele>
        <time>2022-09-04T15:13:17Z</time>
      </trkpt>
      <trkpt lat="42.84895" lon="0.94344">
        <ele>1004.23</ele>
        <time>2022-09-04T15:13:33Z</time>
      </trkpt>
      <trkpt lat="42.84892" lon="0.94343">
        <ele>1003.27</ele>
        <time>2022-09-04T15:13:58Z</time>
      </trkpt>
      <trkpt lat="42.84893" lon="0.94333">
        <ele>1002.79</ele>
        <time>2022-09-04T15:14:16Z</time>
      </trkpt>
      <trkpt lat="42.8489" lon="0.94325">
        <ele>1000.39</ele>
        <time>2022-09-04T15:14:31Z</time>
      </trkpt>
      <trkpt lat="42.84894" lon="0.94311">
        <ele>998.95</ele>
        <time>2022-09-04T15:14:46Z</time>
      </trkpt>
      <trkpt lat="42.84898" lon="0.94301">
        <ele>997.02</ele>
        <time>2022-09-04T15:15:00Z</time>
      </trkpt>
      <trkpt lat="42.849" lon="0.94288">
        <ele>994.62</ele>
        <time>2022-09-04T15:15:16Z</time>
      </trkpt>
      <trkpt lat="42.84898" lon="0.94276">
        <ele>992.22</ele>
        <time>2022-09-04T15:15:31Z</time>
      </trkpt>
      <trkpt lat="42.84898" lon="0.94268">
        <ele>988.85</ele>
        <time>2022-09-04T15:15:49Z</time>
      </trkpt>
      <trkpt lat="42.84902" lon="0.94261">
        <ele>987.89</ele>
        <time>2022-09-04T15:16:02Z</time>
      </trkpt>
      <trkpt lat="42.84898" lon="0.94261">
        <ele>985.49</ele>
        <time>2022-09-04T15:16:23Z</time>
      </trkpt>
      <trkpt lat="42.84892" lon="0.94263">
        <ele>982.6</ele>
        <time>2022-09-04T15:16:40Z</time>
      </trkpt>
      <trkpt lat="42.84883" lon="0.94264">
        <ele>979.24</ele>
        <time>2022-09-04T15:16:57Z</time>
      </trkpt>
      <trkpt lat="42.84877" lon="0.94265">
        <ele>976.84</ele>
        <time>2022-09-04T15:17:13Z</time>
      </trkpt>
      <trkpt lat="42.84872" lon="0.94268">
        <ele>975.88</ele>
        <time>2022-09-04T15:17:32Z</time>
      </trkpt>
      <trkpt lat="42.84868" lon="0.94281">
        <ele>974.91</ele>
        <time>2022-09-04T15:17:48Z</time>
      </trkpt>
      <trkpt lat="42.84866" lon="0.94272">
        <ele>972.51</ele>
        <time>2022-09-04T15:18:06Z</time>
      </trkpt>
      <trkpt lat="42.84861" lon="0.94277">
        <ele>969.63</ele>
        <time>2022-09-04T15:18:25Z</time>
      </trkpt>
      <trkpt lat="42.84857" lon="0.94272">
        <ele>967.22</ele>
        <time>2022-09-04T15:18:42Z</time>
      </trkpt>
      <trkpt lat="42.84855" lon="0.94273">
        <ele>965.78</ele>
        <time>2022-09-04T15:18:58Z</time>
      </trkpt>
      <trkpt lat="42.84854" lon="0.94275">
        <ele>964.82</ele>
        <time>2022-09-04T15:19:14Z</time>
      </trkpt>
      <trkpt lat="42.84852" lon="0.94277">
        <ele>962.42</ele>
        <time>2022-09-04T15:19:30Z</time>
      </trkpt>
      <trkpt lat="42.84852" lon="0.94276">
        <ele>961.46</ele>
        <time>2022-09-04T15:19:47Z</time>
      </trkpt>
      <trkpt lat="42.84852" lon="0.94275">
        <ele>960.49</ele>
        <time>2022-09-04T15:20:01Z</time>
      </trkpt>
      <trkpt lat="42.84848" lon="0.94268">
        <ele>958.09</ele>
        <time>2022-09-04T15:20:17Z</time>
      </trkpt>
      <trkpt lat="42.84843" lon="0.94262">
        <ele>955.69</ele>
        <time>2022-09-04T15:20:30Z</time>
      </trkpt>
      <trkpt lat="42.84844" lon="0.94262">
        <ele>955.21</ele>
        <time>2022-09-04T15:20:47Z</time>
      </trkpt>
      <trkpt lat="42.84844" lon="0.94266">
        <ele>955.21</ele>
        <time>2022-09-04T15:21:07Z</time>
      </trkpt>
      <trkpt lat="42.84845" lon="0.94264">
        <ele>954.73</ele>
        <time>2022-09-04T15:21:20Z</time>
      </trkpt>
      <trkpt lat="42.84844" lon="0.94258">
        <ele>953.28</ele>
        <time>2022-09-04T15:21:32Z</time>
      </trkpt>
      <trkpt lat="42.84841" lon="0.94252">
        <ele>950.88</ele>
        <time>2022-09-04T15:21:43Z</time>
      </trkpt>
      <trkpt lat="42.84838" lon="0.94244">
        <ele>949.44</ele>
        <time>2022-09-04T15:21:55Z</time>
      </trkpt>
      <trkpt lat="42.84836" lon="0.94236">
        <ele>949.44</ele>
        <time>2022-09-04T15:22:07Z</time>
      </trkpt>
      <trkpt lat="42.84834" lon="0.94236">
        <ele>948</ele>
        <time>2022-09-04T15:22:29Z</time>
      </trkpt>
      <trkpt lat="42.84828" lon="0.94222">
        <ele>945.11</ele>
        <time>2022-09-04T15:22:48Z</time>
      </trkpt>
      <trkpt lat="42.84826" lon="0.94215">
        <ele>944.15</ele>
        <time>2022-09-04T15:23:03Z</time>
      </trkpt>
      <trkpt lat="42.84822" lon="0.94213">
        <ele>941.75</ele>
        <time>2022-09-04T15:23:19Z</time>
      </trkpt>
      <trkpt lat="42.84821" lon="0.94213">
        <ele>940.79</ele>
        <time>2022-09-04T15:23:31Z</time>
      </trkpt>
      <trkpt lat="42.84823" lon="0.94215">
        <ele>940.31</ele>
        <time>2022-09-04T15:23:46Z</time>
      </trkpt>
      <trkpt lat="42.84826" lon="0.94214">
        <ele>941.75</ele>
        <time>2022-09-04T15:23:56Z</time>
      </trkpt>
      <trkpt lat="42.84825" lon="0.94211">
        <ele>942.23</ele>
        <time>2022-09-04T15:24:41Z</time>
      </trkpt>
      <trkpt lat="42.84827" lon="0.94212">
        <ele>941.75</ele>
        <time>2022-09-04T15:25:05Z</time>
      </trkpt>
      <trkpt lat="42.84827" lon="0.9421">
        <ele>940.79</ele>
        <time>2022-09-04T15:25:15Z</time>
      </trkpt>
      <trkpt lat="42.84824" lon="0.94208">
        <ele>940.31</ele>
        <time>2022-09-04T15:25:27Z</time>
      </trkpt>
      <trkpt lat="42.84827" lon="0.94209">
        <ele>939.83</ele>
        <time>2022-09-04T15:25:42Z</time>
      </trkpt>
      <trkpt lat="42.84831" lon="0.94203">
        <ele>937.42</ele>
        <time>2022-09-04T15:25:54Z</time>
      </trkpt>
      <trkpt lat="42.8483" lon="0.94196">
        <ele>935.98</ele>
        <time>2022-09-04T15:26:06Z</time>
      </trkpt>
      <trkpt lat="42.84829" lon="0.94193">
        <ele>934.54</ele>
        <time>2022-09-04T15:26:24Z</time>
      </trkpt>
      <trkpt lat="42.84825" lon="0.94189">
        <ele>932.62</ele>
        <time>2022-09-04T15:26:39Z</time>
      </trkpt>
      <trkpt lat="42.84819" lon="0.94185">
        <ele>931.17</ele>
        <time>2022-09-04T15:26:54Z</time>
      </trkpt>
      <trkpt lat="42.84819" lon="0.94184">
        <ele>931.17</ele>
        <time>2022-09-04T15:27:10Z</time>
      </trkpt>
      <trkpt lat="42.84812" lon="0.94174">
        <ele>930.21</ele>
        <time>2022-09-04T15:27:25Z</time>
      </trkpt>
      <trkpt lat="42.8481" lon="0.94172">
        <ele>928.77</ele>
        <time>2022-09-04T15:27:43Z</time>
      </trkpt>
      <trkpt lat="42.84804" lon="0.94165">
        <ele>927.33</ele>
        <time>2022-09-04T15:27:58Z</time>
      </trkpt>
      <trkpt lat="42.84805" lon="0.94168">
        <ele>927.33</ele>
        <time>2022-09-04T15:28:13Z</time>
      </trkpt>
      <trkpt lat="42.84807" lon="0.94173">
        <ele>927.33</ele>
        <time>2022-09-04T15:28:30Z</time>
      </trkpt>
      <trkpt lat="42.84806" lon="0.94176">
        <ele>930.21</ele>
        <time>2022-09-04T15:28:45Z</time>
      </trkpt>
      <trkpt lat="42.84806" lon="0.94175">
        <ele>930.21</ele>
        <time>2022-09-04T15:28:50Z</time>
      </trkpt>
      <trkpt lat="42.84808" lon="0.94175">
        <ele>928.29</ele>
        <time>2022-09-04T15:28:51Z</time>
      </trkpt>
      <trkpt lat="42.84807" lon="0.94176">
        <ele>927.81</ele>
        <time>2022-09-04T15:28:53Z</time>
      </trkpt>
      <trkpt lat="42.84803" lon="0.94174">
        <ele>925.41</ele>
        <time>2022-09-04T15:29:08Z</time>
      </trkpt>
      <trkpt lat="42.84803" lon="0.94172">
        <ele>924.93</ele>
        <time>2022-09-04T15:29:24Z</time>
      </trkpt>
      <trkpt lat="42.84804" lon="0.94171">
        <ele>924.93</ele>
        <time>2022-09-04T15:29:43Z</time>
      </trkpt>
      <trkpt lat="42.84805" lon="0.94166">
        <ele>925.89</ele>
        <time>2022-09-04T15:30:03Z</time>
      </trkpt>
      <trkpt lat="42.84809" lon="0.94162">
        <ele>927.33</ele>
        <time>2022-09-04T15:30:20Z</time>
      </trkpt>
      <trkpt lat="42.84813" lon="0.94151">
        <ele>925.89</ele>
        <time>2022-09-04T15:30:33Z</time>
      </trkpt>
      <trkpt lat="42.84811" lon="0.94143">
        <ele>923.48</ele>
        <time>2022-09-04T15:30:47Z</time>
      </trkpt>
      <trkpt lat="42.84811" lon="0.94137">
        <ele>921.56</ele>
        <time>2022-09-04T15:31:02Z</time>
      </trkpt>
      <trkpt lat="42.84813" lon="0.94128">
        <ele>920.6</ele>
        <time>2022-09-04T15:31:17Z</time>
      </trkpt>
      <trkpt lat="42.84809" lon="0.94123">
        <ele>918.2</ele>
        <time>2022-09-04T15:31:32Z</time>
      </trkpt>
      <trkpt lat="42.84805" lon="0.9412">
        <ele>916.27</ele>
        <time>2022-09-04T15:31:48Z</time>
      </trkpt>
      <trkpt lat="42.84804" lon="0.94117">
        <ele>915.79</ele>
        <time>2022-09-04T15:32:10Z</time>
      </trkpt>
      <trkpt lat="42.84805" lon="0.94119">
        <ele>914.83</ele>
        <time>2022-09-04T15:32:30Z</time>
      </trkpt>
      <trkpt lat="42.84804" lon="0.94119">
        <ele>917.72</ele>
        <time>2022-09-04T15:32:36Z</time>
      </trkpt>
      <trkpt lat="42.84805" lon="0.9412">
        <ele>915.79</ele>
        <time>2022-09-04T15:32:38Z</time>
      </trkpt>
      <trkpt lat="42.84806" lon="0.94118">
        <ele>915.31</ele>
        <time>2022-09-04T15:33:04Z</time>
      </trkpt>
      <trkpt lat="42.84804" lon="0.94117">
        <ele>913.39</ele>
        <time>2022-09-04T15:33:18Z</time>
      </trkpt>
      <trkpt lat="42.84804" lon="0.94116">
        <ele>913.39</ele>
        <time>2022-09-04T15:33:33Z</time>
      </trkpt>
      <trkpt lat="42.84803" lon="0.94113">
        <ele>911.47</ele>
        <time>2022-09-04T15:33:51Z</time>
      </trkpt>
      <trkpt lat="42.84799" lon="0.94111">
        <ele>910.03</ele>
        <time>2022-09-04T15:34:06Z</time>
      </trkpt>
      <trkpt lat="42.84797" lon="0.94114">
        <ele>909.06</ele>
        <time>2022-09-04T15:34:28Z</time>
      </trkpt>
      <trkpt lat="42.84798" lon="0.94112">
        <ele>908.1</ele>
        <time>2022-09-04T15:34:48Z</time>
      </trkpt>
      <trkpt lat="42.848" lon="0.94111">
        <ele>907.62</ele>
        <time>2022-09-04T15:35:04Z</time>
      </trkpt>
      <trkpt lat="42.84802" lon="0.9411">
        <ele>906.66</ele>
        <time>2022-09-04T15:35:26Z</time>
      </trkpt>
      <trkpt lat="42.848" lon="0.94112">
        <ele>906.18</ele>
        <time>2022-09-04T15:35:40Z</time>
      </trkpt>
      <trkpt lat="42.84799" lon="0.94114">
        <ele>906.18</ele>
        <time>2022-09-04T15:35:58Z</time>
      </trkpt>
      <trkpt lat="42.84797" lon="0.94114">
        <ele>906.18</ele>
        <time>2022-09-04T15:36:23Z</time>
      </trkpt>
      <trkpt lat="42.84797" lon="0.94116">
        <ele>906.18</ele>
        <time>2022-09-04T15:36:48Z</time>
      </trkpt>
      <trkpt lat="42.84796" lon="0.94117">
        <ele>906.18</ele>
        <time>2022-09-04T15:37:05Z</time>
      </trkpt>
      <trkpt lat="42.84795" lon="0.94112">
        <ele>906.18</ele>
        <time>2022-09-04T15:37:23Z</time>
      </trkpt>
      <trkpt lat="42.84796" lon="0.94108">
        <ele>905.22</ele>
        <time>2022-09-04T15:37:38Z</time>
      </trkpt>
      <trkpt lat="42.84797" lon="0.94105">
        <ele>903.3</ele>
        <time>2022-09-04T15:37:56Z</time>
      </trkpt>
      <trkpt lat="42.84794" lon="0.94104">
        <ele>902.33</ele>
        <time>2022-09-04T15:38:11Z</time>
      </trkpt>
      <trkpt lat="42.84794" lon="0.94105">
        <ele>901.37</ele>
        <time>2022-09-04T15:38:29Z</time>
      </trkpt>
      <trkpt lat="42.84794" lon="0.94102">
        <ele>899.45</ele>
        <time>2022-09-04T15:39:02Z</time>
      </trkpt>
      <trkpt lat="42.84793" lon="0.94103">
        <ele>896.09</ele>
        <time>2022-09-04T15:39:39Z</time>
      </trkpt>
      <trkpt lat="42.84792" lon="0.94102">
        <ele>895.12</ele>
        <time>2022-09-04T15:39:55Z</time>
      </trkpt>
      <trkpt lat="42.8479" lon="0.94103">
        <ele>895.12</ele>
        <time>2022-09-04T15:40:10Z</time>
      </trkpt>
      <trkpt lat="42.8479" lon="0.94101">
        <ele>894.64</ele>
        <time>2022-09-04T15:40:27Z</time>
      </trkpt>
      <trkpt lat="42.8479" lon="0.94099">
        <ele>894.64</ele>
        <time>2022-09-04T15:40:44Z</time>
      </trkpt>
      <trkpt lat="42.84791" lon="0.94102">
        <ele>894.16</ele>
        <time>2022-09-04T15:41:19Z</time>
      </trkpt>
      <trkpt lat="42.8479" lon="0.94106">
        <ele>894.16</ele>
        <time>2022-09-04T15:41:38Z</time>
      </trkpt>
      <trkpt lat="42.8479" lon="0.94107">
        <ele>893.68</ele>
        <time>2022-09-04T15:41:53Z</time>
      </trkpt>
      <trkpt lat="42.8479" lon="0.9411">
        <ele>893.2</ele>
        <time>2022-09-04T15:42:18Z</time>
      </trkpt>
      <trkpt lat="42.84791" lon="0.94109">
        <ele>893.2</ele>
        <time>2022-09-04T15:42:36Z</time>
      </trkpt>
      <trkpt lat="42.84788" lon="0.94107">
        <ele>892.24</ele>
        <time>2022-09-04T15:42:52Z</time>
      </trkpt>
      <trkpt lat="42.84786" lon="0.94102">
        <ele>891.76</ele>
        <time>2022-09-04T15:43:08Z</time>
      </trkpt>
      <trkpt lat="42.84783" lon="0.94101">
        <ele>890.32</ele>
        <time>2022-09-04T15:43:25Z</time>
      </trkpt>
      <trkpt lat="42.84782" lon="0.94106">
        <ele>889.36</ele>
        <time>2022-09-04T15:43:37Z</time>
      </trkpt>
      <trkpt lat="42.8478" lon="0.94104">
        <ele>887.91</ele>
        <time>2022-09-04T15:43:56Z</time>
      </trkpt>
      <trkpt lat="42.8478" lon="0.94105">
        <ele>887.91</ele>
        <time>2022-09-04T15:44:17Z</time>
      </trkpt>
      <trkpt lat="42.8478" lon="0.94103">
        <ele>887.91</ele>
        <time>2022-09-04T15:44:38Z</time>
      </trkpt>
      <trkpt lat="42.84775" lon="0.94104">
        <ele>888.4</ele>
        <time>2022-09-04T15:45:06Z</time>
      </trkpt>
      <trkpt lat="42.84776" lon="0.94104">
        <ele>888.4</ele>
        <time>2022-09-04T15:45:30Z</time>
      </trkpt>
      <trkpt lat="42.84778" lon="0.94108">
        <ele>888.4</ele>
        <time>2022-09-04T15:45:58Z</time>
      </trkpt>
      <trkpt lat="42.84778" lon="0.94111">
        <ele>888.4</ele>
        <time>2022-09-04T15:46:21Z</time>
      </trkpt>
      <trkpt lat="42.84778" lon="0.94112">
        <ele>888.88</ele>
        <time>2022-09-04T15:46:42Z</time>
      </trkpt>
      <trkpt lat="42.8478" lon="0.94107">
        <ele>888.4</ele>
        <time>2022-09-04T15:47:04Z</time>
      </trkpt>
      <trkpt lat="42.84781" lon="0.94101">
        <ele>888.4</ele>
        <time>2022-09-04T15:47:29Z</time>
      </trkpt>
      <trkpt lat="42.84781" lon="0.94096">
        <ele>887.91</ele>
        <time>2022-09-04T15:47:53Z</time>
      </trkpt>
      <trkpt lat="42.84783" lon="0.941">
        <ele>888.4</ele>
        <time>2022-09-04T15:48:21Z</time>
      </trkpt>
      <trkpt lat="42.8478" lon="0.94095">
        <ele>888.4</ele>
        <time>2022-09-04T15:48:52Z</time>
      </trkpt>
      <trkpt lat="42.84781" lon="0.941">
        <ele>890.32</ele>
        <time>2022-09-04T15:49:18Z</time>
      </trkpt>
      <trkpt lat="42.84779" lon="0.94111">
        <ele>890.32</ele>
        <time>2022-09-04T15:49:43Z</time>
      </trkpt>
      <trkpt lat="42.84781" lon="0.94108">
        <ele>890.32</ele>
        <time>2022-09-04T15:50:04Z</time>
      </trkpt>
      <trkpt lat="42.84783" lon="0.94107">
        <ele>890.32</ele>
        <time>2022-09-04T15:50:37Z</time>
      </trkpt>
      <trkpt lat="42.84779" lon="0.94115">
        <ele>890.8</ele>
        <time>2022-09-04T15:50:51Z</time>
      </trkpt>
      <trkpt lat="42.84778" lon="0.94116">
        <ele>889.36</ele>
        <time>2022-09-04T15:51:03Z</time>
      </trkpt>
      <trkpt lat="42.84774" lon="0.94122">
        <ele>888.4</ele>
        <time>2022-09-04T15:51:16Z</time>
      </trkpt>
      <trkpt lat="42.84767" lon="0.94134">
        <ele>887.91</ele>
        <time>2022-09-04T15:51:30Z</time>
      </trkpt>
      <trkpt lat="42.84763" lon="0.9414">
        <ele>886.47</ele>
        <time>2022-09-04T15:51:46Z</time>
      </trkpt>
      <trkpt lat="42.84762" lon="0.94144">
        <ele>885.51</ele>
        <time>2022-09-04T15:52:00Z</time>
      </trkpt>
      <trkpt lat="42.84761" lon="0.94162">
        <ele>884.55</ele>
        <time>2022-09-04T15:52:15Z</time>
      </trkpt>
      <trkpt lat="42.84761" lon="0.94179">
        <ele>883.11</ele>
        <time>2022-09-04T15:52:31Z</time>
      </trkpt>
      <trkpt lat="42.84759" lon="0.94195">
        <ele>881.67</ele>
        <time>2022-09-04T15:52:46Z</time>
      </trkpt>
      <trkpt lat="42.84756" lon="0.94209">
        <ele>879.26</ele>
        <time>2022-09-04T15:53:05Z</time>
      </trkpt>
      <trkpt lat="42.84756" lon="0.94199">
        <ele>878.78</ele>
        <time>2022-09-04T15:53:16Z</time>
      </trkpt>
      <trkpt lat="42.8475" lon="0.94192">
        <ele>878.78</ele>
        <time>2022-09-04T15:53:25Z</time>
      </trkpt>
      <trkpt lat="42.84736" lon="0.94172">
        <ele>880.71</ele>
        <time>2022-09-04T15:53:45Z</time>
      </trkpt>
      <trkpt lat="42.84722" lon="0.94169">
        <ele>881.19</ele>
        <time>2022-09-04T15:54:02Z</time>
      </trkpt>
      <trkpt lat="42.84714" lon="0.9417">
        <ele>880.71</ele>
        <time>2022-09-04T15:54:19Z</time>
      </trkpt>
      <trkpt lat="42.84703" lon="0.94166">
        <ele>880.71</ele>
        <time>2022-09-04T15:54:44Z</time>
      </trkpt>
      <trkpt lat="42.8469" lon="0.94167">
        <ele>881.67</ele>
        <time>2022-09-04T15:55:02Z</time>
      </trkpt>
      <trkpt lat="42.84685" lon="0.94172">
        <ele>882.63</ele>
        <time>2022-09-04T15:55:18Z</time>
      </trkpt>
      <trkpt lat="42.84683" lon="0.9417">
        <ele>882.63</ele>
        <time>2022-09-04T15:55:22Z</time>
      </trkpt>
      <trkpt lat="42.84673" lon="0.9416">
        <ele>881.19</ele>
        <time>2022-09-04T15:55:35Z</time>
      </trkpt>
      <trkpt lat="42.84661" lon="0.94163">
        <ele>882.15</ele>
        <time>2022-09-04T15:55:50Z</time>
      </trkpt>
      <trkpt lat="42.84658" lon="0.94176">
        <ele>883.11</ele>
        <time>2022-09-04T15:56:04Z</time>
      </trkpt>
      <trkpt lat="42.8466" lon="0.94175">
        <ele>883.11</ele>
        <time>2022-09-04T15:56:17Z</time>
      </trkpt>
      <trkpt lat="42.84657" lon="0.94175">
        <ele>883.11</ele>
        <time>2022-09-04T15:56:29Z</time>
      </trkpt>
      <trkpt lat="42.84656" lon="0.94173">
        <ele>883.11</ele>
        <time>2022-09-04T15:56:49Z</time>
      </trkpt>
      <trkpt lat="42.84659" lon="0.94173">
        <ele>883.11</ele>
        <time>2022-09-04T15:57:10Z</time>
      </trkpt>
      <trkpt lat="42.84661" lon="0.94169">
        <ele>883.11</ele>
        <time>2022-09-04T15:57:25Z</time>
      </trkpt>
      <trkpt lat="42.84657" lon="0.94154">
        <ele>883.59</ele>
        <time>2022-09-04T15:57:41Z</time>
      </trkpt>
      <trkpt lat="42.84655" lon="0.9414">
        <ele>884.55</ele>
        <time>2022-09-04T15:57:54Z</time>
      </trkpt>
      <trkpt lat="42.84654" lon="0.94132">
        <ele>885.03</ele>
        <time>2022-09-04T15:58:00Z</time>
      </trkpt>
      <trkpt lat="42.84652" lon="0.94123">
        <ele>886.47</ele>
        <time>2022-09-04T15:58:07Z</time>
      </trkpt>
      <trkpt lat="42.84646" lon="0.94103">
        <ele>887.43</ele>
        <time>2022-09-04T15:58:24Z</time>
      </trkpt>
      <trkpt lat="42.84637" lon="0.94097">
        <ele>887.43</ele>
        <time>2022-09-04T15:58:34Z</time>
      </trkpt>
      <trkpt lat="42.84635" lon="0.94096">
        <ele>887.43</ele>
        <time>2022-09-04T15:58:36Z</time>
      </trkpt>
      <trkpt lat="42.84627" lon="0.94102">
        <ele>887.91</ele>
        <time>2022-09-04T15:58:50Z</time>
      </trkpt>
      <trkpt lat="42.84618" lon="0.94105">
        <ele>888.88</ele>
        <time>2022-09-04T15:59:04Z</time>
      </trkpt>
      <trkpt lat="42.84606" lon="0.94114">
        <ele>890.32</ele>
        <time>2022-09-04T15:59:18Z</time>
      </trkpt>
      <trkpt lat="42.84602" lon="0.94116">
        <ele>890.8</ele>
        <time>2022-09-04T15:59:23Z</time>
      </trkpt>
      <trkpt lat="42.846" lon="0.94113">
        <ele>891.28</ele>
        <time>2022-09-04T15:59:26Z</time>
      </trkpt>
      <trkpt lat="42.84591" lon="0.94101">
        <ele>892.24</ele>
        <time>2022-09-04T15:59:42Z</time>
      </trkpt>
      <trkpt lat="42.8459" lon="0.94099">
        <ele>892.24</ele>
        <time>2022-09-04T15:59:44Z</time>
      </trkpt>
      <trkpt lat="42.84587" lon="0.94096">
        <ele>892.72</ele>
        <time>2022-09-04T15:59:47Z</time>
      </trkpt>
      <trkpt lat="42.84584" lon="0.94091">
        <ele>893.2</ele>
        <time>2022-09-04T15:59:52Z</time>
      </trkpt>
      <trkpt lat="42.84577" lon="0.94083">
        <ele>894.16</ele>
        <time>2022-09-04T16:00:07Z</time>
      </trkpt>
    </trkseg>
  </trk>
</gpx>